GFSCGP_700_spd_000.txt.gz
Wind_Speed
3 5 4 3 4 6 7 5 3 10 2 7 7 8 3 4 2 3 5 9 10 8 16 22 23 23 24 21 22 19 22 24 22 27 26 26 28 33 33 32 36 36 37 42
3 2 3 2 6 5 4 3 6 3 5 4 7 10 6 4 5 7 4 9 11 14 17 21 28 28 21 19 19 18 22 23 22 29 31 28 38 36 35 34 36 41 46 47
5 4 2 3 3 3 3 3 3 4 4 8 8 9 12 8 7 9 16 14 9 9 17 19 22 17 15 16 16 20 23 23 24 31 34 39 37 37 37 39 48 52 55 52
3 1 3 2 2 3 3 2 5 7 8 10 15 4 14 13 10 9 11 10 6 6 6 2 9 9 10 11 15 18 22 23 27 33 34 36 38 39 50 49 40 38 38 39
4 3 3 1 3 2 4 10 6 6 9 10 11 10 21 15 12 10 7 6 4 8 6 10 11 13 15 17 19 23 28 30 32 34 36 40 46 46 46 44 46 43 45 42
4 1 0 2 4 4 5 7 7 6 8 5 12 2 8 6 8 6 4 3 3 2 8 11 16 21 21 23 25 25 26 30 34 37 39 41 40 40 45 50 53 51 48 46
6 3 4 4 4 4 7 6 8 3 4 4 2 2 12 10 11 9 5 1 3 3 5 2 3 11 22 24 21 21 23 25 31 39 42 40 46 52 54 49 48 48 50 49
8 6 3 6 5 5 5 5 4 3 4 3 4 4 12 11 8 7 2 1 5 7 8 8 15 17 22 27 30 30 31 30 34 38 43 48 53 53 48 49 49 51 50 49
2 5 3 7 4 5 5 5 2 2 4 3 7 13 13 6 5 4 3 5 4 8 10 14 9 16 20 24 29 38 37 36 31 38 43 54 53 51 50 55 52 47 47 47
2 4 1 5 8 9 7 4 4 5 2 3 10 6 7 5 1 3 2 5 7 12 10 11 11 19 24 29 33 33 36 39 43 40 53 46 46 49 49 46 45 48 48 50
6 4 1 5 5 5 3 3 3 3 0 2 3 3 2 1 3 6 8 8 9 7 11 15 14 16 23 31 40 34 43 46 44 49 51 48 42 42 42 43 47 49 51 52
4 5 5 3 5 1 3 2 2 1 1 2 1 11 1 0 3 12 8 7 7 8 17 23 27 30 36 40 39 46 46 47 49 49 48 39 39 39 40 44 47 49 51 48
5 1 1 6 2 3 1 2 3 4 5 7 4 6 8 13 8 6 8 7 11 16 22 28 33 32 37 41 41 44 47 45 43 42 40 37 38 41 42 43 50 49 46 47
4 2 1 2 5 8 10 10 10 12 11 12 14 18 16 14 10 5 9 11 18 21 24 31 28 40 42 44 47 44 36 39 39 39 37 42 44 48 46 48 43 45 45 45
3 5 3 5 8 9 11 14 13 15 16 17 20 17 16 11 9 9 12 19 21 36 37 32 41 44 47 45 37 35 36 33 35 35 34 48 50 48 52 46 44 47 45 40
2 2 8 9 3 7 13 16 16 16 17 14 15 17 12 10 13 20 28 29 33 37 35 38 44 44 38 35 32 35 35 32 39 41 48 49 43 37 39 37 41 43 38 37
3 4 8 3 12 14 3 4 2 5 7 11 13 14 16 15 19 22 34 36 37 34 35 43 42 27 28 33 36 34 35 38 35 41 45 48 38 40 36 45 47 39 33 38
2 3 5 6 7 3 1 11 14 13 11 9 10 11 7 19 28 30 34 33 28 37 40 36 25 28 27 39 32 38 46 44 34 34 39 45 48 46 38 43 37 32 34 39
1 3 4 2 4 14 7 6 4 7 13 12 13 19 23 26 28 30 27 31 36 39 32 25 26 29 38 32 37 44 46 37 32 33 40 41 45 25 40 35 34 32 35 35
3 4 4 5 2 4 4 6 12 18 17 15 19 21 27 35 35 27 31 33 38 35 27 24 29 32 32 36 41 46 41 39 36 34 41 42 34 29 39 34 32 29 34 34
6 7 9 7 7 10 10 11 14 9 10 18 25 32 32 34 32 30 33 30 27 21 23 28 31 33 38 41 46 42 43 37 37 42 39 37 26 33 39 30 27 33 32 37
6 5 5 5 6 8 9 9 14 16 21 33 29 29 34 30 32 28 25 29 21 25 28 29 32 36 41 44 40 40 45 45 41 37 35 29 30 34 32 25 31 33 34 33
10 13 10 10 10 10 22 23 29 32 29 33 30 30 29 29 24 24 27 21 25 29 30 33 35 41 41 35 38 42 47 47 42 36 33 27 28 30 27 29 30 29 31 30
16 15 18 19 25 21 23 26 30 30 29 30 32 26 22 20 26 23 22 25 30 33 38 35 42 39 37 41 42 44 45 41 38 36 29 27 26 26 25 25 26 29 28 27
21 19 24 23 25 23 28 34 31 33 28 31 23 20 19 27 21 21 27 32 35 36 36 42 40 39 44 45 42 44 42 39 36 31 28 26 23 21 22 22 25 26 27 26
27 29 25 26 23 27 30 32 33 31 34 29 20 24 24 18 25 29 32 38 40 40 42 41 41 44 44 46 46 43 40 35 33 30 27 21 20 22 20 21 22 25 26 25

GFSCGP_700_spd_003.txt.gz
Wind_Speed
2 8 10 8 6 2 1 10 19 18 13 8 5 12 10 11 9 11 15 11 18 22 21 22 21 16 15 17 23 28 24 19 16 27 20 24 28 32 38 42 34 31 34 40
5 7 7 3 2 2 2 6 13 9 4 2 5 11 10 9 10 11 9 10 14 20 20 21 22 22 22 23 21 21 24 22 25 28 27 29 30 34 38 32 38 42 44 51
5 5 4 8 2 7 5 4 2 1 2 3 4 18 17 14 16 15 15 13 14 17 21 22 23 22 19 12 11 12 14 17 21 25 29 33 37 39 38 35 40 46 47 45
3 4 7 5 1 2 1 3 5 7 3 5 5 6 16 18 18 17 16 11 11 19 22 22 17 7 6 8 13 15 16 18 23 27 32 34 34 35 37 43 49 46 48 48
6 6 6 5 3 3 1 6 5 5 7 7 3 3 19 17 14 14 15 8 11 11 14 16 15 12 14 17 20 22 25 24 28 29 32 33 37 42 44 45 47 52 50 46
3 1 1 3 6 9 7 6 5 5 5 3 7 5 19 16 17 12 9 8 7 9 10 13 14 15 15 18 21 20 20 24 28 32 35 36 36 38 43 48 51 50 46 45
11 4 8 5 4 3 4 7 2 1 1 3 4 8 7 11 17 13 9 7 8 9 12 18 21 21 21 18 21 27 26 32 34 37 38 40 44 44 52 52 45 44 47 47
8 3 1 6 7 3 10 7 5 1 1 5 6 9 13 17 20 14 5 6 4 10 13 10 13 15 18 18 22 37 39 37 38 40 46 47 48 48 51 55 46 43 47 47
10 5 4 4 7 4 5 8 7 4 4 3 8 15 8 2 3 5 8 6 6 9 14 17 16 20 8 17 26 35 39 41 45 45 46 46 48 48 54 57 48 52 51 46
9 6 3 10 10 11 9 8 4 3 2 2 4 5 4 13 10 5 6 3 6 4 8 11 20 23 24 25 33 36 41 42 42 48 45 44 47 49 55 53 52 50 45 46
12 6 7 6 5 6 5 1 2 1 1 4 1 5 5 9 9 4 6 7 8 8 13 19 19 25 30 29 32 39 40 42 43 46 44 41 43 50 48 41 44 48 46 47
8 10 10 4 6 3 3 1 0 0 2 2 1 5 5 7 6 3 8 12 9 13 19 23 26 28 32 39 38 37 42 45 44 42 40 39 42 46 34 45 52 58 45 44
10 7 7 3 1 2 4 2 4 5 4 2 3 4 2 15 20 21 10 12 16 20 25 27 27 39 42 38 42 45 45 41 36 38 40 41 41 41 38 47 54 54 42 38
8 8 5 5 2 4 6 7 8 10 10 11 14 16 13 13 5 8 10 15 21 26 24 31 37 39 38 44 47 45 37 36 36 37 40 42 42 43 46 55 53 46 36 44
7 8 5 4 6 7 9 10 10 12 14 15 18 16 15 13 10 12 15 19 21 23 36 39 42 41 43 47 44 37 39 38 37 39 38 43 42 42 47 51 57 33 38 42
5 5 2 2 5 6 12 11 12 15 15 16 15 9 6 13 17 22 22 25 26 34 46 39 36 43 44 41 38 41 45 43 44 45 42 37 41 44 47 51 44 31 29 34
4 1 1 2 5 4 5 3 1 4 8 10 12 12 14 17 23 24 22 28 36 44 41 39 42 43 38 36 40 44 45 46 47 47 42 36 37 40 42 46 27 29 31 33
4 2 1 2 1 1 7 6 10 14 11 12 9 14 22 25 26 25 29 37 41 39 37 39 33 29 31 35 42 45 46 47 47 44 41 36 38 41 44 37 30 27 30 31
7 4 2 3 2 9 7 7 11 10 11 17 23 26 26 20 21 33 39 38 35 33 35 28 27 30 37 44 44 45 47 48 45 44 38 33 36 37 36 32 25 27 28 30
7 7 5 6 4 6 11 3 11 14 16 20 20 21 24 28 36 39 33 35 36 36 35 31 33 36 43 42 45 49 51 47 47 44 40 37 35 34 30 29 29 25 29 32
12 10 13 11 7 8 10 14 14 11 16 20 22 24 30 37 34 33 34 31 33 32 28 30 33 41 42 46 47 52 49 48 47 42 39 36 32 28 23 24 25 27 29 34
11 7 9 8 7 9 6 13 16 22 30 26 29 34 33 32 36 35 28 31 28 24 29 33 39 43 46 46 51 51 48 46 42 39 39 34 29 26 24 24 26 28 32 30
14 16 12 13 10 19 20 20 29 31 31 30 31 33 35 34 30 24 29 23 23 29 34 40 43 45 45 48 50 47 47 45 42 38 35 31 27 25 23 25 26 27 27 26
15 17 20 17 17 15 23 28 29 31 33 33 31 36 31 25 19 26 23 26 32 36 38 40 42 43 44 44 45 44 44 44 39 35 31 28 27 24 20 19 22 24 23 23
22 23 27 31 26 24 29 33 34 33 35 32 34 30 24 18 23 29 30 34 36 37 39 40 41 43 43 44 42 41 43 41 35 31 28 26 23 19 19 22 21 22 23 24
26 27 28 33 33 30 31 30 31 34 35 35 36 26 20 26 31 31 32 34 37 39 40 42 42 42 42 42 42 41 41 38 34 28 26 24 20 20 22 21 21 22 22 23

GFSCGP_700_spd_006.txt.gz
Wind_Speed
11 2 3 6 7 9 4 7 8 20 14 13 5 21 17 14 15 17 17 14 20 20 22 19 18 17 14 16 18 18 19 24 21 20 13 15 22 26 29 32 32 30 33 36
4 8 8 10 10 7 6 12 20 18 12 7 17 20 20 17 15 13 16 15 17 19 22 21 20 17 16 20 21 20 15 15 14 13 18 23 25 28 28 30 36 41 41 44
9 9 9 6 6 9 7 16 16 12 8 7 18 20 17 17 20 18 16 15 16 13 14 17 16 16 15 10 7 7 7 10 15 20 24 26 27 29 34 36 36 36 41 44
7 8 9 5 5 5 7 6 4 3 6 12 9 10 23 21 18 16 17 16 14 12 10 12 14 11 4 6 9 12 13 17 21 24 26 28 31 34 37 38 38 38 43 48
7 7 5 4 3 1 4 2 0 1 5 6 6 13 20 18 16 14 15 14 13 10 9 10 14 16 16 18 19 18 21 24 23 24 26 26 29 29 32 37 39 45 48 49
6 2 4 3 8 7 4 4 3 1 1 1 5 9 23 22 20 15 14 13 12 11 7 7 8 8 10 16 19 17 14 20 22 27 34 36 39 42 44 46 50 48 50 49
8 5 7 7 8 8 2 2 2 3 2 4 3 4 7 16 15 13 16 12 9 11 16 11 12 17 18 25 20 24 27 30 32 39 42 43 46 50 51 47 48 40 52 43
5 4 2 5 7 5 7 6 4 4 2 3 5 5 6 16 15 11 6 3 4 18 13 9 15 18 21 23 27 28 28 29 35 41 44 46 47 43 46 53 54 48 50 51
7 4 6 9 8 5 4 9 7 4 2 2 5 13 12 11 10 12 11 14 4 9 10 13 15 19 24 24 29 28 28 32 37 41 44 46 43 43 50 49 55 55 54 42
9 9 10 10 11 10 10 6 2 3 2 1 3 9 8 16 13 13 9 8 12 15 13 15 20 25 26 24 21 26 36 44 43 46 49 48 45 43 44 45 45 41 40 45
11 7 9 7 5 6 5 3 3 2 1 4 2 3 7 18 13 13 14 9 6 12 15 18 22 24 25 24 31 37 45 43 46 52 46 40 40 42 44 44 42 42 47 41
10 11 9 7 6 6 3 3 1 1 2 2 4 4 11 18 17 12 14 14 14 22 21 22 25 30 32 36 41 44 41 44 49 43 40 40 41 42 42 45 44 44 47 48
14 9 8 4 4 4 3 3 3 3 4 6 3 3 16 13 14 16 18 21 23 22 22 25 27 30 37 43 45 45 46 47 39 39 38 38 40 41 43 46 50 48 42 43
10 13 7 7 5 5 7 6 4 8 10 11 16 12 20 21 21 21 20 17 19 22 24 26 30 41 47 48 46 47 46 40 39 38 38 41 43 43 42 43 43 39 38 45
9 9 8 8 9 9 11 10 12 12 10 12 13 15 22 20 19 18 19 20 22 23 24 30 39 44 45 46 47 44 41 41 40 40 42 44 44 43 39 38 42 45 44 43
11 9 9 9 9 8 9 10 10 13 17 18 17 15 18 20 21 19 20 23 23 27 31 39 41 43 46 46 43 41 41 41 41 43 44 42 44 44 40 39 41 41 34 36
10 9 8 5 9 8 5 10 6 8 11 13 14 18 19 20 21 20 21 23 27 32 40 41 43 44 43 40 41 41 41 41 43 45 45 43 44 42 38 36 34 30 25 21
9 8 7 4 6 0 7 10 8 11 16 20 21 20 18 19 22 25 29 30 35 41 39 43 41 39 39 40 40 43 43 44 45 46 46 42 42 38 36 34 28 24 24 22
11 10 6 4 8 10 10 15 14 10 14 17 18 19 22 27 29 26 31 36 41 36 40 39 37 38 39 41 43 46 46 46 46 48 46 43 41 37 34 31 27 23 22 22
14 14 11 8 4 6 9 15 15 13 17 10 11 19 21 24 29 33 41 42 36 38 34 34 35 37 40 43 46 47 49 49 50 49 46 43 39 35 32 28 24 23 23 26
17 17 17 16 10 9 16 16 15 11 12 13 20 20 22 26 30 32 34 37 34 32 33 34 34 37 41 46 47 48 50 50 48 47 43 41 36 33 30 26 25 25 25 27
14 12 14 13 10 11 12 18 19 20 23 24 23 26 27 29 31 34 35 31 32 31 31 33 35 38 44 45 47 48 48 48 46 43 40 37 33 31 27 26 25 24 25 26
19 23 18 16 11 15 20 25 23 23 25 27 27 28 31 33 34 33 32 31 30 30 31 33 37 41 42 43 44 46 46 45 43 40 38 35 31 27 25 24 21 21 23 24
23 22 22 25 28 25 25 26 24 27 28 29 30 31 35 36 35 34 29 28 29 30 32 37 39 41 42 43 44 44 43 43 40 37 35 31 29 24 20 19 21 21 22 22
21 21 24 28 28 28 26 26 31 34 30 31 31 34 36 35 28 24 27 28 29 33 37 38 40 42 44 43 41 41 43 39 37 34 30 28 26 22 20 20 21 21 21 23
27 27 28 32 28 32 34 34 31 30 33 35 38 36 33 29 23 26 26 30 33 35 37 39 41 43 41 39 38 41 41 39 38 31 25 25 24 22 21 21 22 23 22 22

GFSCGP_700_spd_009.txt.gz
Wind_Speed
11 5 4 5 5 4 5 11 18 20 17 16 16 15 20 20 19 19 20 22 22 22 21 17 17 14 14 16 20 19 21 23 23 18 17 13 15 23 26 30 30 32 34 35
6 4 2 3 6 4 6 1 12 12 12 12 15 17 20 20 19 18 22 18 16 19 20 17 17 15 16 17 16 17 21 20 14 15 14 19 23 26 28 30 30 33 37 39
5 6 6 7 8 4 12 14 16 15 7 9 16 12 12 14 17 16 14 13 12 10 7 10 10 11 12 17 20 17 13 11 14 16 19 21 22 24 26 29 31 35 38 42
7 9 11 11 5 3 14 13 13 10 10 16 12 7 15 18 17 14 13 10 8 2 10 6 9 12 13 10 11 13 11 13 15 15 15 17 20 24 28 32 36 40 43 46
7 6 7 6 6 6 9 9 8 10 12 13 10 7 20 19 18 17 14 10 8 5 6 7 10 13 14 15 18 19 18 17 15 20 24 27 32 37 39 42 45 47 49 53
9 8 7 6 6 9 9 8 8 4 5 3 11 6 22 29 26 21 16 12 9 11 6 9 6 10 5 11 14 14 17 21 28 32 34 39 42 45 48 51 53 52 54 51
7 5 5 12 8 5 8 10 2 1 1 4 2 7 6 27 21 17 14 11 9 6 10 15 18 13 13 16 16 18 25 28 33 36 41 45 48 48 50 53 51 49 46 54
5 4 5 12 10 5 7 7 4 5 3 2 1 1 2 26 14 14 12 12 10 9 18 26 18 15 15 18 20 23 30 34 34 38 43 47 47 49 49 46 48 51 51 49
7 4 4 8 9 7 4 5 4 6 4 2 2 4 8 17 19 20 21 14 18 22 20 21 19 17 18 21 24 28 34 34 37 42 47 47 48 49 47 47 49 50 48 43
8 7 10 9 8 6 5 5 1 2 3 1 4 7 9 21 22 22 22 22 22 19 21 22 21 21 22 24 27 28 33 41 44 45 45 46 48 46 47 48 47 46 45 46
12 7 12 9 5 8 5 2 2 3 2 5 2 6 16 21 23 22 21 17 16 18 21 24 24 24 26 24 26 33 40 40 41 43 47 46 44 44 44 46 48 48 47 45
12 9 11 7 8 6 4 3 3 1 4 4 2 5 9 17 22 19 17 16 17 21 24 26 27 25 25 27 31 43 41 40 42 44 42 42 43 45 46 47 46 47 47 44
13 10 10 5 6 7 6 6 5 3 5 7 3 4 11 19 21 19 19 21 24 25 25 26 26 29 32 34 39 40 40 40 39 41 43 43 46 48 46 45 45 45 43 43
15 14 10 11 6 9 8 10 9 9 8 9 15 13 13 20 24 24 24 23 23 23 24 26 27 31 34 39 41 41 39 39 42 42 43 44 47 48 48 48 46 42 39 38
15 11 13 9 8 8 10 13 15 17 16 15 17 18 18 22 26 27 28 24 23 23 24 26 29 35 38 39 39 38 40 42 42 42 43 45 48 49 49 46 44 39 38 35
15 8 12 11 11 12 13 14 16 18 19 21 22 24 22 23 24 26 25 24 24 25 29 35 38 42 38 39 38 40 41 41 42 43 45 47 49 48 47 46 42 39 34 29
13 11 12 6 11 11 13 18 16 14 17 17 21 19 19 18 20 25 25 26 28 31 35 36 39 40 40 38 40 41 41 42 44 46 48 49 49 48 47 43 38 35 31 26
12 12 10 5 6 1 12 12 16 17 17 17 20 22 22 19 17 22 25 28 30 33 37 40 41 42 37 39 40 40 42 46 48 50 51 50 49 46 43 39 36 32 29 22
14 13 9 5 10 11 12 16 19 19 19 17 18 18 16 17 20 23 24 29 33 37 37 37 37 33 36 38 39 42 46 49 50 51 50 49 46 44 40 36 32 30 27 26
18 18 17 11 5 6 10 11 15 20 25 19 14 11 19 19 24 21 27 32 34 35 37 32 30 33 36 38 41 45 49 50 50 49 48 46 44 41 37 34 30 28 26 25
15 19 20 20 13 11 17 17 17 15 17 10 16 20 22 23 23 27 30 34 35 34 30 29 31 35 37 40 44 46 47 48 48 47 45 44 40 38 35 32 29 27 24 23
14 11 15 17 14 14 19 20 20 18 16 23 24 24 26 24 27 29 33 36 33 29 25 30 33 35 37 42 44 45 47 47 45 43 43 40 37 35 33 31 26 22 21 23
21 22 18 18 16 18 16 12 23 24 26 28 26 28 29 28 30 31 34 32 25 23 27 32 33 35 39 42 43 46 46 44 42 43 40 38 36 32 30 27 23 22 23 23
24 21 26 27 28 27 27 30 30 31 31 26 30 31 28 30 31 35 30 23 24 25 30 32 35 39 40 42 44 45 43 40 41 42 39 36 31 27 25 23 22 22 23 24
22 23 26 29 27 30 32 31 29 28 29 35 33 29 31 31 33 28 21 20 24 28 32 35 38 40 42 44 44 41 39 38 40 39 35 31 24 24 26 23 21 21 23 25
28 27 28 31 25 27 29 28 30 34 34 31 31 31 31 35 26 19 18 23 26 31 35 38 38 40 43 44 41 37 36 37 39 36 33 27 20 24 28 23 21 21 24 24

GFSCGP_700_spd_012.txt.gz
Wind_Speed
9 9 12 11 10 7 4 7 12 13 14 13 15 12 9 13 14 16 15 15 16 17 19 16 17 15 14 14 16 18 20 21 23 16 15 13 14 16 21 26 27 28 29 34
10 7 7 5 2 1 5 8 7 9 16 16 14 12 14 16 18 17 17 19 20 20 19 18 18 18 15 16 17 16 17 17 14 12 13 14 18 23 24 26 28 31 34 37
10 6 4 2 3 2 5 8 8 15 14 8 9 7 10 16 18 17 16 12 11 6 3 2 5 9 13 17 18 18 17 17 18 17 18 20 22 23 25 28 33 35 38 41
6 5 4 5 5 4 9 5 6 12 12 8 11 5 10 14 15 13 9 7 6 8 3 3 9 5 7 13 12 14 17 19 19 16 16 21 25 29 33 37 42 45 48 51
7 6 5 5 5 5 8 6 6 6 6 8 11 4 14 16 16 15 13 12 12 8 2 15 6 7 22 20 13 11 12 11 14 21 25 30 33 37 41 45 46 48 51 54
6 7 7 7 7 9 10 8 4 2 5 2 11 9 14 26 26 23 19 16 12 7 5 10 3 11 15 10 15 13 15 18 20 25 31 36 39 41 45 48 47 50 53 52
8 6 9 8 8 8 9 9 1 2 0 4 6 10 15 16 26 24 18 15 11 8 8 9 10 25 9 16 17 18 20 23 27 32 34 38 41 44 45 45 47 49 48 48
7 4 7 10 11 5 9 11 5 5 3 4 6 6 7 13 23 19 15 13 14 12 13 19 25 18 20 20 21 21 23 25 28 33 40 44 45 45 46 47 48 48 49 49
8 5 7 9 12 7 5 5 8 2 2 1 4 6 6 10 23 22 22 22 20 18 19 24 17 20 24 24 23 24 22 24 30 39 45 45 46 47 47 48 48 47 47 47
6 5 7 8 8 9 6 7 2 2 2 2 3 6 9 13 26 25 27 24 21 21 24 20 22 24 27 28 28 29 27 28 34 40 44 45 44 43 45 45 44 45 45 45
12 8 8 9 5 9 8 4 3 2 1 5 1 5 7 13 16 17 20 21 22 24 21 23 25 28 29 32 31 29 32 35 39 41 42 41 43 43 43 44 44 44 44 44
14 8 11 12 8 9 7 6 5 3 3 3 2 7 8 12 19 21 22 22 23 21 24 26 28 31 30 29 27 31 36 39 38 39 39 41 43 45 45 45 46 46 45 43
13 7 8 5 8 12 10 9 8 6 7 7 2 5 7 7 12 22 25 24 22 24 26 26 27 28 30 33 35 37 41 34 34 37 40 43 45 46 47 48 48 46 43 41
14 9 11 11 4 9 12 12 11 9 6 7 17 18 16 15 14 17 22 27 27 25 26 26 27 28 30 37 37 39 28 33 37 40 43 45 46 48 49 49 48 46 43 40
13 10 17 11 9 10 11 12 14 16 16 16 19 21 16 19 18 20 23 26 29 28 27 27 28 32 38 39 35 33 33 37 40 42 44 46 48 49 50 50 47 45 42 38
13 9 11 14 13 13 14 16 18 20 21 23 23 25 20 19 19 22 24 26 29 28 27 28 33 36 40 36 36 33 36 39 41 43 46 48 50 51 51 48 46 44 39 35
13 13 9 8 14 15 15 20 21 23 23 22 23 19 17 17 18 19 20 23 26 27 28 31 36 38 35 36 34 34 37 40 42 45 47 50 52 51 49 46 44 40 36 31
11 12 10 6 7 1 17 17 17 18 18 22 23 20 19 20 19 17 19 21 24 26 29 33 36 34 36 32 33 36 38 40 44 47 49 51 51 49 47 44 40 35 32 29
12 12 9 6 12 16 14 16 17 20 21 23 23 20 19 20 18 19 20 19 24 27 31 36 36 36 32 32 35 37 38 42 46 48 49 50 48 47 45 40 36 33 30 27
15 16 16 11 6 6 10 12 12 18 29 27 22 19 16 18 24 21 17 21 25 29 34 36 34 30 30 33 35 37 41 45 46 49 49 46 46 46 42 38 34 31 29 26
11 13 19 21 16 14 18 20 19 14 22 14 11 14 22 26 24 25 23 24 27 31 32 32 28 28 32 34 37 40 44 45 47 48 45 43 44 45 41 37 31 28 25 23
15 9 12 13 11 12 17 20 19 18 17 19 22 25 30 27 28 31 25 25 32 31 32 26 26 29 33 36 40 43 44 46 47 45 42 42 43 40 37 32 27 25 23 23
17 19 15 14 14 19 24 25 23 22 24 29 30 31 29 28 33 27 27 32 36 31 25 24 25 30 35 38 42 43 45 46 44 41 40 41 40 36 33 26 24 24 24 23
21 19 24 27 26 25 24 27 28 29 32 31 31 30 31 34 31 30 30 32 33 25 23 23 29 32 37 41 41 44 45 44 42 39 38 39 36 34 29 23 25 26 23 23
18 21 26 30 29 28 26 26 27 29 30 29 29 31 36 34 31 31 31 36 28 19 20 25 31 36 40 39 41 43 44 43 39 36 36 36 34 31 26 23 24 26 23 24
26 24 26 28 21 23 25 25 28 30 30 30 32 33 32 30 30 33 32 22 21 16 22 30 36 39 38 39 40 41 42 39 36 34 34 34 31 29 26 23 24 25 24 24

GFSCGP_700_spd_015.txt.gz
Wind_Speed
11 10 8 10 15 11 8 7 11 12 11 11 8 8 5 3 13 13 12 14 14 15 15 14 14 13 15 16 14 15 17 19 20 19 16 14 11 13 18 21 24 26 27 29
13 15 12 8 9 8 7 5 8 13 14 12 12 10 10 9 12 17 16 16 15 17 18 15 16 18 22 16 12 13 15 16 17 16 17 14 14 17 21 23 25 28 31 35
11 9 11 8 5 4 3 1 3 6 16 16 11 9 10 12 16 19 17 16 14 12 8 8 4 3 4 3 7 10 11 10 10 11 13 13 19 22 24 26 30 34 37 40
10 10 6 4 4 3 3 2 3 6 13 5 11 5 12 15 18 19 18 14 10 10 10 5 1 2 8 7 5 7 10 12 12 12 13 17 20 24 29 33 36 39 42 43
8 8 5 3 2 2 5 5 6 10 7 6 11 5 12 18 20 20 17 14 14 16 13 6 4 4 4 11 16 18 16 13 11 12 17 22 26 31 35 38 40 42 44 45
9 7 6 4 2 2 4 6 7 7 6 3 10 14 13 20 22 23 20 19 19 18 12 7 9 5 14 18 14 16 18 17 17 19 23 26 30 35 39 40 41 43 44 44
7 6 5 5 5 5 7 9 2 1 2 4 8 10 20 8 16 23 23 20 21 19 14 11 8 14 17 12 13 18 19 21 22 23 26 30 33 37 40 42 42 43 43 43
8 3 6 9 10 5 8 11 5 5 3 2 6 7 9 11 17 20 20 21 21 18 14 10 11 17 12 14 19 22 24 27 26 25 29 33 37 41 43 43 43 43 43 43
8 6 8 6 11 9 7 9 12 4 1 1 5 8 12 12 15 23 27 25 22 20 15 13 16 15 17 19 22 25 28 30 31 32 35 39 44 40 41 42 41 41 42 43
7 5 8 8 10 11 8 7 4 5 3 3 4 8 13 6 10 22 28 28 26 22 17 16 18 19 22 23 26 29 33 33 34 37 38 41 35 38 39 40 41 41 42 42
11 8 7 9 9 10 10 9 5 4 3 3 2 5 2 3 7 12 14 20 22 21 19 20 21 24 26 28 30 36 37 31 37 38 39 35 36 38 41 42 42 43 44 43
14 8 7 12 8 10 11 9 8 4 4 5 3 7 3 2 6 13 17 18 22 23 23 25 25 27 30 31 36 41 34 39 40 39 33 35 39 42 43 44 45 46 45 43
14 9 6 4 10 14 14 14 12 10 8 7 4 4 2 8 6 11 20 24 25 26 27 27 27 28 31 34 37 36 39 39 34 30 34 38 41 43 44 46 47 48 46 43
14 15 11 14 6 9 18 18 16 13 7 9 17 20 17 16 12 9 16 19 24 28 29 28 27 29 32 34 37 34 42 32 30 34 36 40 42 44 46 48 49 48 45 43
15 15 16 15 12 9 12 14 16 18 18 16 20 21 16 17 15 11 13 19 23 26 29 28 28 28 32 36 35 40 34 32 32 34 37 41 44 46 48 49 48 46 44 40
14 11 14 15 16 14 15 16 18 20 23 26 25 25 17 15 15 15 14 14 18 23 28 28 27 32 30 34 35 35 34 31 33 35 38 42 45 47 49 48 46 44 41 38
13 14 11 8 14 16 15 23 24 25 24 24 26 21 20 19 16 16 15 14 16 21 25 26 28 27 32 33 35 35 31 31 34 36 40 43 46 49 49 46 44 43 39 36
10 12 11 6 7 3 16 18 18 18 17 20 21 22 21 21 19 18 15 13 15 18 22 23 26 30 32 35 36 29 29 32 34 38 41 44 48 49 47 44 43 41 37 33
10 10 8 5 8 16 14 15 20 23 22 18 22 23 24 21 19 14 16 19 17 18 21 25 27 30 33 34 30 28 31 34 37 40 42 45 48 47 43 42 41 39 36 30
11 13 13 9 5 5 8 10 15 22 24 22 15 15 16 17 15 18 23 19 19 20 23 26 30 31 31 29 27 30 33 36 39 41 44 46 45 42 40 41 39 37 31 26
8 9 13 16 12 9 14 18 20 11 16 13 13 11 15 21 25 29 25 23 21 21 23 29 36 29 27 26 26 31 35 38 40 42 45 44 41 39 38 37 36 31 25 24
12 7 8 8 7 8 8 9 11 15 23 22 20 24 24 25 28 27 24 26 22 24 28 32 35 29 25 22 27 34 38 39 40 43 43 41 38 36 36 34 32 26 22 23
15 16 12 11 11 17 23 24 22 23 22 21 24 27 28 28 30 28 28 32 30 30 34 31 26 20 17 23 29 35 37 39 41 40 40 37 35 33 33 31 29 25 23 24
18 16 21 23 23 22 23 24 23 23 24 24 27 29 28 29 30 31 34 34 32 32 35 26 12 12 20 26 32 34 37 39 40 39 36 32 32 31 31 29 26 24 22 23
18 20 25 27 25 22 18 19 21 23 24 25 27 28 27 28 30 35 35 34 34 40 35 16 11 16 22 28 31 34 37 39 38 34 32 31 30 29 29 27 25 24 23 22
22 21 21 22 19 22 22 23 25 27 27 28 29 29 30 31 30 28 32 34 44 30 15 8 14 18 23 27 31 34 37 37 33 32 32 31 29 28 27 25 24 22 21 22

GFSCGP_700_spd_018.txt.gz
Wind_Speed
7 8 6 13 14 5 7 7 12 13 16 13 15 14 9 15 16 17 17 17 16 16 14 14 13 14 14 15 14 15 17 19 18 14 14 10 9 9 11 13 17 19 22 26
7 7 8 9 13 9 4 10 11 15 16 14 13 13 12 11 12 18 17 17 16 16 17 18 18 19 20 21 20 17 14 14 12 11 11 13 10 10 13 16 19 23 27 31
11 12 9 4 8 7 8 7 7 8 22 19 13 11 14 15 13 17 20 20 18 17 17 16 15 11 10 11 9 5 7 9 10 10 9 7 10 12 16 21 26 30 33 36
5 8 11 10 5 6 5 5 1 1 15 13 19 11 15 17 15 16 21 22 19 17 16 14 11 10 8 7 1 9 12 8 8 8 10 10 14 19 22 28 31 35 38 39
10 12 9 6 6 6 6 5 5 7 7 7 11 11 6 14 16 19 23 23 20 17 16 14 15 11 7 4 11 12 11 16 16 15 16 18 22 25 28 31 34 38 39 40
12 12 9 7 6 5 6 7 8 7 5 8 9 11 10 11 15 20 24 22 20 19 20 19 15 10 4 12 7 10 12 15 16 19 22 24 28 31 33 35 39 38 38 41
10 10 8 6 5 6 6 8 5 6 6 8 7 9 19 13 16 18 21 24 22 22 21 16 11 9 7 10 10 12 16 17 20 23 26 30 33 33 34 38 39 39 40 40
13 7 7 9 10 6 9 9 7 5 5 4 4 8 7 14 20 18 18 20 22 23 21 16 13 12 11 10 14 17 19 22 26 28 30 33 32 34 37 37 38 39 39 39
8 4 7 7 9 9 8 9 11 5 5 4 10 11 14 16 15 16 22 26 26 25 21 18 15 15 14 15 19 22 25 28 34 34 36 28 34 40 39 36 37 38 38 40
7 4 8 8 8 11 10 6 3 6 3 4 4 9 7 6 11 15 24 27 27 27 25 22 20 17 18 21 23 26 30 33 37 35 33 34 40 36 35 35 37 38 39 41
10 8 6 9 9 9 12 9 8 5 3 3 3 2 3 3 6 6 13 22 27 28 27 24 23 22 23 26 28 30 33 37 40 37 38 42 35 33 34 37 39 41 42 42
14 9 7 9 11 14 15 11 11 8 5 5 2 7 5 2 3 8 13 18 25 28 29 27 26 27 28 30 29 33 37 40 42 33 37 34 32 34 37 40 41 43 44 44
16 9 6 3 6 13 13 16 16 14 11 8 4 5 7 9 10 8 14 21 24 26 29 30 30 31 33 33 31 37 40 40 33 33 32 35 36 37 39 41 43 45 46 45
12 16 11 13 5 6 12 21 20 14 8 9 16 13 13 16 13 12 13 20 24 28 32 33 34 35 36 33 36 39 40 34 32 33 36 35 36 38 39 41 45 46 46 44
15 13 19 19 16 14 13 12 18 22 19 14 14 15 12 13 16 16 17 16 21 26 29 32 34 35 34 34 36 40 32 32 34 37 33 34 36 38 40 43 46 46 44 43
16 13 16 18 19 18 18 17 18 19 21 24 23 24 19 18 17 19 19 17 18 22 25 27 30 32 33 33 37 33 33 35 37 33 32 33 36 38 41 44 46 45 43 42
16 15 10 7 15 17 16 24 25 25 25 25 22 20 23 20 19 19 19 18 18 19 21 24 27 30 31 34 34 36 32 36 32 30 31 34 37 39 42 45 45 43 42 40
12 12 10 6 4 3 12 17 16 18 18 19 18 21 23 22 20 21 19 16 14 16 20 23 27 29 31 34 37 30 32 30 27 29 32 35 37 40 43 44 43 41 39 36
12 11 7 5 8 15 17 15 15 18 17 15 19 19 22 21 20 20 15 16 20 21 20 23 27 31 32 36 40 37 28 25 26 29 34 36 38 42 43 42 40 36 35 34
15 13 13 7 4 4 7 10 14 15 13 8 7 11 14 12 14 12 19 25 26 23 21 23 25 29 33 37 44 34 26 23 26 32 35 37 40 42 42 39 35 33 33 30
7 9 14 15 10 7 12 14 14 5 5 12 21 17 16 19 18 22 26 26 24 24 24 24 27 31 35 38 35 23 19 24 28 32 35 38 40 41 38 34 32 31 29 27
8 5 6 7 6 6 3 6 8 13 22 23 19 16 20 23 26 24 26 27 27 27 28 28 33 36 37 42 29 17 22 25 29 33 35 37 39 37 34 32 30 28 26 24
11 11 8 7 7 13 19 17 17 21 24 24 24 23 26 28 30 30 29 30 31 33 34 33 35 43 39 23 15 18 23 25 30 33 35 37 36 33 31 30 28 27 25 23
15 12 17 18 17 17 21 21 21 21 22 21 23 24 27 29 30 31 31 29 32 35 35 40 42 38 25 15 15 19 23 27 30 32 35 34 32 31 30 28 26 26 24 23
16 18 20 21 19 18 18 20 21 22 25 26 27 28 28 29 29 31 32 33 34 33 37 41 34 22 12 14 15 17 23 27 29 32 32 31 31 31 28 25 25 24 23 22
15 16 14 15 16 21 21 22 24 24 25 26 28 29 29 29 30 31 31 30 31 35 39 33 19 11 10 12 16 21 24 27 30 31 30 30 30 28 26 25 25 24 23 23

GFSCGP_700_spd_021.txt.gz
Wind_Speed
7 9 6 10 15 5 9 7 11 10 12 13 13 7 10 15 16 18 17 17 16 17 20 18 18 17 18 18 20 17 18 18 23 15 16 11 8 8 10 11 14 16 18 21
9 14 11 9 12 7 3 6 11 9 12 11 12 13 11 15 16 17 18 19 19 18 22 21 21 20 20 20 22 20 19 16 14 15 14 11 10 11 13 14 15 18 23 27
11 1 4 7 8 10 5 7 9 9 14 12 12 17 17 17 18 19 19 19 19 20 22 22 22 22 22 22 21 19 13 10 11 13 11 12 13 14 15 17 22 24 28 32
4 10 3 4 4 6 9 7 8 5 15 22 20 18 20 19 21 20 20 22 20 19 19 21 19 19 17 15 11 9 9 8 7 10 12 12 11 12 18 24 29 31 36 37
2 8 10 9 6 9 5 7 6 7 14 11 16 14 18 22 19 16 17 20 22 22 20 17 17 19 17 13 12 10 9 8 9 12 14 16 18 21 27 30 34 38 38 40
8 10 6 3 6 6 5 4 6 9 15 10 19 17 16 15 15 14 15 19 21 22 20 20 23 21 16 14 11 11 11 13 15 17 20 22 24 28 31 34 35 39 42 39
11 9 11 7 4 5 6 8 12 11 9 9 8 10 19 14 6 12 19 16 20 22 21 25 24 20 17 16 14 15 16 17 18 21 25 28 30 34 40 30 38 41 38 38
17 12 13 11 10 6 9 13 12 6 7 12 5 9 6 10 11 8 18 19 18 20 23 25 24 22 20 18 15 18 20 21 23 26 30 33 33 38 33 37 34 35 36 38
14 8 9 9 7 7 9 12 10 7 6 10 17 20 12 9 10 9 18 20 20 20 23 26 25 24 23 21 18 19 22 24 26 30 33 34 37 37 38 34 34 36 37 37
5 5 4 8 7 9 10 4 6 10 5 9 10 9 3 3 6 10 18 21 22 21 22 26 27 26 25 24 23 23 25 27 28 32 36 38 40 38 38 37 34 36 36 39
11 11 5 6 10 12 8 13 11 7 6 4 4 3 3 4 5 10 15 20 22 22 23 25 29 28 28 29 28 28 30 32 31 37 39 38 41 36 33 33 36 38 39 41
14 10 13 12 11 12 10 11 12 10 8 5 3 13 10 4 0 6 11 18 21 23 23 24 30 30 31 32 32 34 35 36 34 40 39 42 34 33 33 35 39 40 40 41
13 11 12 11 11 11 12 13 13 11 11 10 5 6 3 8 11 8 9 15 20 23 25 27 32 31 35 35 36 38 39 39 38 40 42 36 35 33 34 36 38 40 41 42
13 15 16 16 9 2 10 13 15 17 13 14 18 15 10 10 9 9 11 13 18 23 27 28 34 35 36 38 39 41 42 41 41 42 36 33 33 33 34 36 38 40 42 43
13 11 15 18 13 12 11 12 14 20 22 20 19 15 13 14 15 14 15 15 16 23 28 32 35 36 38 41 43 42 42 41 40 42 33 32 33 34 35 37 38 41 43 44
15 9 15 16 14 16 15 16 17 18 20 21 23 23 19 18 16 16 14 19 18 21 25 28 31 34 36 40 41 40 39 41 41 40 35 32 30 31 35 37 38 42 43 44
12 15 10 8 9 9 14 21 22 21 20 20 22 22 17 15 15 14 14 18 19 20 23 25 27 30 34 38 39 38 39 43 42 41 34 28 29 32 35 36 39 41 42 42
15 14 10 5 4 1 9 12 13 14 16 19 21 19 18 19 17 19 20 18 20 18 18 21 25 30 34 37 40 38 42 43 47 43 38 25 29 32 34 37 39 40 40 38
14 14 8 5 9 11 14 13 13 10 9 8 8 10 12 15 17 19 18 17 16 19 23 25 24 28 32 35 38 42 44 49 45 41 25 26 30 33 37 38 40 39 35 35
15 14 10 7 4 4 3 8 9 9 8 2 7 7 10 19 15 15 15 19 24 27 25 23 23 24 28 33 37 43 45 51 38 29 23 26 28 32 37 39 38 34 33 33
12 14 14 12 8 7 9 13 12 6 4 10 14 23 24 15 12 18 21 26 29 28 28 27 27 31 31 38 40 46 51 44 29 20 24 24 29 33 37 36 33 34 32 30
7 6 7 8 6 7 9 4 2 7 16 23 24 23 24 21 24 28 30 29 30 29 30 32 32 35 41 42 45 49 43 30 19 23 22 26 32 35 36 34 32 32 30 29
6 10 6 7 3 10 11 17 15 22 24 24 24 22 21 23 25 25 29 31 29 30 34 36 40 43 45 43 44 39 24 17 18 18 23 29 33 35 33 31 31 30 28 28
12 12 13 13 6 9 12 22 20 18 19 20 22 24 25 27 28 29 29 33 31 35 37 38 40 42 44 43 37 31 16 14 17 22 26 30 34 33 31 30 29 28 27 27
11 12 12 14 17 13 10 9 17 22 23 25 25 25 28 27 28 30 32 35 35 38 36 38 39 43 40 33 24 15 13 16 19 24 29 31 31 31 31 30 29 28 26 26
16 12 14 10 13 19 17 24 27 26 26 25 26 27 32 30 30 32 34 34 33 33 36 35 38 40 27 18 17 21 19 18 23 27 30 31 32 31 30 31 31 28 26 26

GFSCGP_700_spd_024.txt.gz
Wind_Speed
2 6 6 10 10 10 13 15 17 13 13 12 13 14 12 15 17 16 11 13 15 14 14 12 12 14 11 17 16 12 16 14 15 19 16 12 11 11 12 11 13 16 16 16
6 7 9 9 11 13 14 9 10 7 8 12 13 13 15 18 19 19 18 18 18 12 18 17 17 18 19 24 21 19 18 20 18 18 16 12 13 15 14 12 16 17 18 20
4 11 11 13 10 13 12 2 12 6 8 11 6 16 17 17 18 18 19 20 19 19 23 25 23 22 24 28 27 24 23 18 16 15 10 12 15 13 17 19 18 18 22 28
15 13 10 6 8 11 8 7 7 7 14 11 13 12 4 10 18 23 23 23 23 22 24 29 24 26 27 28 25 22 17 14 13 11 12 13 17 21 23 24 25 28 27 28
6 10 10 7 5 2 2 7 9 14 11 6 12 10 24 30 25 25 24 27 27 24 28 29 26 22 23 24 22 18 16 16 14 15 14 15 20 22 23 27 29 32 29 37
8 10 3 10 7 5 3 5 8 11 15 3 22 22 10 25 19 13 19 21 25 30 30 31 22 22 23 20 20 17 17 15 16 16 17 20 21 26 29 31 34 39 32 32
9 11 8 6 7 5 8 9 11 6 8 4 17 10 12 12 17 19 15 25 24 26 25 26 27 25 21 22 19 19 18 18 18 18 20 22 25 29 32 34 38 42 33 34
13 12 15 10 11 5 10 13 4 4 3 11 6 6 1 8 10 5 19 21 21 20 22 22 23 23 24 23 21 20 20 20 21 21 22 23 27 32 34 35 40 43 39 36
8 9 5 5 8 5 7 6 7 11 17 5 7 21 11 4 1 4 13 17 17 17 19 23 24 25 25 25 24 24 24 24 24 25 24 27 30 33 35 38 38 39 37 35
9 9 20 9 9 9 10 8 5 5 2 4 11 17 4 2 2 2 12 15 18 18 20 21 25 28 28 28 27 27 29 29 27 27 29 32 32 35 35 41 37 37 34 33
9 19 6 4 7 10 7 9 12 11 7 1 3 4 6 3 1 3 9 17 20 22 21 22 25 28 30 30 30 30 32 34 32 32 33 36 37 38 40 37 37 35 32 35
11 8 10 13 9 7 9 8 11 10 8 4 3 14 11 9 4 6 7 14 20 23 22 25 26 29 31 31 32 32 33 35 35 36 37 39 40 40 42 39 37 36 35 37
8 7 12 13 12 10 15 14 14 9 11 10 5 6 8 10 13 12 7 9 17 22 22 24 30 34 35 34 34 34 34 36 39 38 39 40 42 43 34 37 36 35 35 38
14 11 14 13 15 5 12 13 13 15 13 14 20 19 12 15 10 8 11 10 13 19 23 24 31 36 40 41 38 36 37 38 41 40 38 41 43 46 36 34 34 32 35 37
15 12 13 17 18 9 12 10 10 16 18 20 20 17 15 13 10 9 10 11 15 14 21 23 29 35 37 43 42 38 39 41 42 37 39 41 43 46 38 37 34 35 34 37
16 10 11 17 14 16 16 17 16 18 17 19 20 20 16 15 18 19 13 12 17 16 17 24 29 33 39 43 40 37 40 43 41 38 39 41 44 29 37 34 29 30 34 38
11 12 13 8 8 10 14 19 19 20 18 18 20 19 16 16 17 11 14 12 16 20 19 19 28 28 30 32 35 38 41 41 38 40 41 44 34 40 30 28 29 29 33 37
14 12 9 5 5 1 9 7 9 10 11 12 14 13 9 13 12 15 21 15 14 15 20 18 19 22 26 29 34 37 38 41 37 40 44 45 43 32 23 27 28 30 34 37
14 13 9 5 8 11 15 8 8 5 5 4 3 7 5 12 13 13 11 13 15 19 19 22 27 23 23 26 29 34 37 37 42 46 50 41 33 22 24 22 24 31 35 34
14 15 13 7 3 4 3 9 8 6 4 3 11 9 9 14 17 13 17 17 19 18 26 20 21 22 22 26 32 36 40 46 49 55 49 42 23 23 21 26 29 32 34 34
9 13 15 12 7 7 9 12 13 5 4 9 9 16 24 18 12 19 22 23 25 27 26 24 22 26 33 36 39 42 43 49 55 52 39 29 27 20 23 28 32 35 34 32
6 7 9 12 7 7 10 6 4 9 9 15 24 23 25 23 21 21 22 18 29 25 22 30 35 37 40 41 42 45 49 49 43 43 29 23 21 23 26 30 34 32 31 30
8 10 7 8 1 8 7 11 13 16 20 23 22 19 19 20 20 20 22 23 30 29 33 36 37 38 39 40 42 44 44 47 32 20 19 21 21 22 28 32 33 31 29 29
11 13 13 14 9 5 8 14 13 9 15 17 20 22 22 24 24 22 21 25 32 36 34 32 32 34 36 40 45 38 26 20 17 20 20 16 22 28 31 31 31 30 29 29
11 12 8 10 12 12 9 13 16 20 23 24 24 24 26 25 24 28 32 34 33 33 31 30 31 32 35 33 25 18 18 20 22 17 19 24 28 30 31 32 32 31 30 29
14 12 14 12 14 18 21 26 25 27 28 28 25 26 25 29 30 28 27 26 27 26 25 27 28 28 22 18 17 20 19 15 17 22 25 28 30 31 33 33 33 32 31 31

GFSCGP_700_spd_027.txt.gz
Wind_Speed
3 3 2 6 8 7 11 11 16 18 12 12 18 11 18 17 14 17 16 13 9 8 7 8 9 11 9 8 8 6 6 10 11 13 15 14 14 12 12 10 13 16 17 19
5 10 1 8 7 11 17 17 22 6 13 12 7 17 17 17 20 20 18 10 16 12 10 12 16 19 14 15 11 12 11 12 17 20 18 17 15 12 10 14 15 16 16 17
9 7 7 5 10 17 15 5 13 2 2 10 7 8 21 17 17 19 19 13 17 17 16 16 16 20 20 20 19 15 18 18 22 22 21 16 12 11 14 15 13 16 19 22
15 9 11 11 12 7 11 11 5 3 5 4 8 2 10 14 19 18 18 18 23 22 22 23 22 22 24 26 26 19 22 24 24 20 18 17 17 16 17 17 18 20 24 27
3 17 13 16 14 7 8 10 7 14 10 11 9 5 11 21 24 21 24 25 23 25 25 27 30 30 27 30 26 26 25 24 19 19 17 16 17 20 20 24 25 26 29 30
5 3 7 16 8 9 4 5 7 10 7 5 15 15 7 17 24 28 29 28 26 24 27 28 32 35 35 27 22 28 24 20 17 16 16 16 19 21 22 26 27 29 32 36
15 15 10 4 9 5 8 12 4 3 5 4 17 9 21 15 19 27 14 20 29 33 29 32 36 39 39 27 22 21 19 18 16 16 18 19 21 22 25 28 29 31 32 39
10 5 4 10 13 8 10 11 2 4 2 6 17 6 6 5 16 15 13 16 27 29 36 39 42 43 36 22 21 22 21 19 16 16 20 23 24 27 28 30 30 31 35 42
12 5 12 12 3 5 8 10 8 5 5 3 8 15 10 10 12 12 18 21 28 28 27 31 34 29 23 20 22 26 24 22 21 18 20 25 28 31 32 34 34 34 37 37
16 6 12 19 11 11 14 11 4 4 4 4 5 6 9 5 4 8 14 18 20 21 20 22 22 23 22 20 24 29 29 27 26 24 25 25 28 31 33 36 38 45 35 34
5 6 3 21 14 12 13 12 9 10 4 4 1 1 2 2 2 2 13 18 18 19 18 18 18 20 20 19 21 28 32 32 30 28 29 31 33 35 36 41 43 41 44 35
15 5 12 19 8 11 10 7 6 13 6 3 2 8 17 13 4 6 4 11 17 21 22 24 23 22 23 23 20 21 27 32 35 33 33 35 37 37 39 42 43 44 39 36
15 6 7 11 12 12 14 14 19 14 10 13 5 5 4 18 15 12 9 5 12 16 22 25 27 29 27 28 29 31 33 34 34 35 36 37 38 39 42 44 40 49 36 37
17 11 10 10 9 10 8 11 12 15 13 11 15 18 22 11 18 10 10 7 6 10 18 23 27 30 31 33 35 34 39 40 40 38 36 34 36 40 41 41 46 33 34 36
13 17 17 15 16 15 9 11 8 13 15 19 18 15 10 14 4 10 5 5 5 8 10 17 28 29 31 33 35 37 38 41 42 39 36 34 38 39 44 38 38 40 38 30
14 14 14 14 17 19 16 15 18 17 14 15 12 16 11 16 11 11 9 11 9 8 15 20 19 24 27 31 34 36 38 40 40 39 37 38 41 44 44 47 45 36 29 28
17 16 15 13 14 14 14 21 18 15 18 17 16 14 15 17 11 9 9 11 15 21 19 19 22 28 31 33 33 35 37 36 36 38 40 44 47 49 50 48 41 36 29 32
20 16 11 6 6 0 7 4 7 3 3 6 6 9 9 5 9 10 13 17 18 19 21 19 19 19 24 28 30 31 31 33 36 40 44 49 53 54 56 49 37 31 28 24
15 15 11 6 13 12 10 9 9 9 5 7 11 12 12 10 10 13 18 22 21 18 20 20 21 25 25 23 26 30 32 37 40 43 49 56 56 56 47 34 34 29 24 27
19 17 16 11 5 6 5 6 7 6 8 10 13 15 16 14 16 22 19 21 20 22 25 25 29 31 30 30 32 33 37 40 42 49 52 57 57 46 33 30 21 21 24 30
14 17 19 15 8 6 9 10 12 9 8 12 12 12 14 22 20 20 20 23 26 28 28 26 26 28 29 30 32 37 41 43 45 53 55 41 32 36 26 21 18 23 30 33
10 11 14 14 8 9 12 13 13 12 14 11 12 20 24 22 19 18 20 23 25 25 27 29 28 26 26 28 33 38 41 48 50 46 38 40 35 25 23 20 25 30 30 30
10 11 11 7 4 6 7 10 11 12 12 19 23 22 20 20 20 20 23 25 27 29 27 24 25 25 24 27 31 38 38 41 41 39 29 25 23 17 19 25 28 30 30 29
17 11 12 9 6 8 5 15 18 19 21 22 18 21 22 22 22 22 25 27 29 27 24 22 24 26 28 31 33 34 33 27 23 21 23 17 17 21 26 27 29 31 32 32
19 17 16 15 15 16 16 18 20 22 23 22 23 26 26 23 22 24 27 28 26 23 24 29 28 29 27 24 21 18 18 19 20 19 18 20 24 26 28 31 32 34 34 33
17 19 18 18 19 22 24 25 24 22 23 25 26 26 25 25 27 28 26 25 27 27 28 27 25 21 18 17 18 18 19 19 19 20 23 26 28 30 31 33 34 34 35 34

GFSCGP_700_spd_030.txt.gz
Wind_Speed
5 5 4 6 7 7 3 2 18 20 13 22 15 13 14 14 13 16 16 12 10 4 5 5 5 7 9 11 9 8 7 9 8 8 10 10 12 15 13 12 14 15 16 16
2 0 3 4 11 3 8 15 16 15 11 13 23 16 18 18 18 15 14 12 8 7 11 10 8 9 8 7 7 10 9 10 11 13 14 15 15 15 15 14 12 13 16 18
9 2 6 10 11 13 16 17 12 8 4 10 5 18 23 21 20 20 18 14 13 9 13 14 14 12 13 12 12 12 11 14 15 17 19 19 16 15 14 12 10 11 13 16
11 7 9 12 10 9 12 7 9 7 2 1 3 4 23 22 23 24 24 21 22 18 17 19 20 19 17 16 17 17 16 17 22 21 22 18 16 16 13 12 11 12 14 17
7 9 13 11 11 9 9 11 11 6 3 4 4 4 11 23 24 27 22 26 28 25 21 23 24 23 22 20 20 17 23 23 27 25 19 17 15 16 14 13 14 17 20 23
6 6 1 4 9 6 6 7 8 7 7 2 6 5 7 16 22 30 30 27 26 31 29 28 27 25 23 22 25 25 28 27 29 21 16 15 16 17 16 17 20 23 26 29
11 9 4 4 7 7 6 7 4 3 1 4 5 5 11 12 16 22 27 28 28 24 24 27 30 28 28 28 28 25 27 25 19 16 17 17 18 20 22 25 27 29 32 31
13 3 11 8 7 8 8 11 5 4 2 4 10 7 6 15 14 14 19 20 23 31 26 24 24 27 29 27 24 26 28 20 16 18 18 20 23 25 28 31 32 33 35 37
9 9 10 15 12 4 2 4 6 5 3 1 5 3 15 8 8 15 21 18 23 25 22 28 27 31 26 25 29 29 27 22 20 20 21 25 28 29 31 34 35 37 39 40
22 13 15 14 19 16 15 7 3 4 3 3 4 5 5 5 2 6 15 20 21 20 16 17 21 24 25 24 25 26 25 23 23 23 25 28 31 32 34 36 38 40 40 49
25 22 12 14 19 24 14 14 12 12 4 4 1 3 5 5 6 4 2 5 12 14 14 13 12 11 12 15 17 17 18 19 23 26 29 33 35 35 36 38 40 43 43 50
20 13 10 16 10 9 11 13 14 9 6 6 3 9 10 7 6 9 5 5 6 13 15 15 14 14 15 15 17 16 15 16 17 20 23 25 28 34 36 39 42 43 46 46
23 13 11 16 17 16 17 15 13 14 13 14 8 7 9 9 15 15 11 5 6 7 11 14 18 19 20 20 21 23 23 24 26 27 28 30 31 30 33 37 40 43 45 49
21 18 19 19 13 10 8 11 11 13 10 14 18 16 16 21 15 16 16 10 9 13 18 18 21 22 23 24 25 25 27 29 29 28 30 32 31 33 34 38 42 46 48 53
21 20 18 17 17 17 12 9 11 13 11 9 15 21 13 12 9 5 10 13 11 13 14 17 20 24 27 30 31 32 34 30 30 30 31 31 32 38 40 43 48 50 53 54
17 19 22 23 21 21 21 19 16 18 17 18 12 9 9 13 9 8 9 15 17 15 15 14 17 21 22 27 28 28 29 28 30 29 29 31 38 42 45 48 51 55 58 56
17 18 16 18 16 15 16 26 26 24 26 22 21 12 8 13 14 13 11 12 11 13 16 19 19 21 22 22 23 25 25 28 31 30 32 37 41 46 48 51 56 60 50 39
15 19 17 12 12 1 12 8 9 13 13 9 12 14 11 11 9 6 5 7 11 15 18 20 20 21 21 24 23 29 30 29 33 35 38 42 44 46 51 59 57 43 34 34
17 19 14 7 14 12 10 10 13 13 12 11 10 12 11 9 7 9 13 14 16 17 19 21 20 22 24 25 25 25 27 31 34 38 43 48 49 50 54 48 29 34 38 26
20 20 20 12 5 8 10 22 16 15 15 16 13 11 10 11 12 15 18 19 20 21 22 24 25 24 21 21 22 24 28 33 40 45 53 57 52 48 37 33 45 37 26 22
22 22 22 20 13 11 16 13 11 15 12 17 16 16 14 14 17 24 29 27 24 21 20 21 21 22 21 20 21 24 30 35 41 39 43 44 51 41 41 37 27 18 22 26
19 16 17 20 12 13 15 19 21 16 14 14 14 13 13 21 23 21 21 20 20 19 21 23 23 23 22 23 24 26 28 31 35 39 35 35 39 36 27 24 23 24 28 29
15 20 15 13 8 9 9 15 15 12 11 12 13 16 18 17 18 19 20 20 21 21 24 26 25 24 26 27 27 29 32 35 38 40 37 30 28 28 27 25 26 29 31 32
21 14 16 13 15 12 12 14 15 14 13 15 18 17 18 20 22 22 21 21 24 27 28 25 26 27 28 29 30 30 31 27 23 22 24 26 27 26 26 28 30 33 34 35
23 22 21 19 18 17 17 18 18 18 18 19 18 20 22 25 26 23 23 26 28 28 24 25 27 27 32 31 27 23 21 22 23 24 25 25 25 28 30 32 33 35 36 37
24 25 25 25 21 21 19 21 21 22 22 20 21 23 26 27 23 25 27 26 25 26 26 28 28 28 24 22 22 22 22 22 23 23 26 27 29 31 33 36 36 37 38 39

GFSCGP_700_spd_033.txt.gz
Wind_Speed
6 3 3 7 6 3 2 4 5 1 7 20 16 17 16 11 13 10 6 10 11 14 12 11 11 9 9 8 8 8 6 6 6 5 6 7 8 10 11 12 14 14 14 16
4 2 3 6 6 5 2 11 5 11 12 14 15 18 22 15 15 13 7 6 8 9 8 7 9 12 11 9 8 9 7 8 7 8 9 11 13 13 13 15 15 13 14 14
1 4 3 6 8 9 11 14 5 10 9 10 8 16 21 20 19 19 19 13 8 7 3 3 5 3 6 8 8 9 11 11 12 12 14 16 14 14 13 13 12 14 15 15
7 7 9 13 11 9 14 9 7 8 5 3 7 4 23 26 23 26 25 24 22 13 14 14 10 11 10 5 6 10 14 15 15 17 18 18 16 15 12 14 15 16 15 16
11 9 16 17 15 10 13 8 6 6 4 5 3 3 5 23 26 26 26 28 27 24 16 18 16 14 12 13 12 11 15 15 17 21 22 21 18 16 16 16 17 18 19 22
8 3 8 8 9 11 6 8 6 7 7 1 2 2 6 15 24 21 22 27 29 30 26 22 22 20 19 18 17 14 17 17 17 22 24 24 19 15 19 19 21 22 26 29
9 9 11 7 7 8 5 5 3 3 2 4 4 6 14 14 15 21 21 23 24 27 29 22 26 26 22 20 21 18 20 20 21 21 21 19 19 20 22 25 28 30 31 34
9 4 12 7 4 5 5 4 2 3 3 4 4 6 12 11 13 15 15 20 26 28 26 19 19 21 23 22 22 21 21 20 24 25 20 21 23 23 26 31 32 32 35 41
7 5 6 10 9 9 8 2 6 3 2 1 4 8 10 11 9 9 10 11 14 16 19 16 16 20 20 23 25 22 22 23 27 23 24 24 23 26 30 30 33 35 42 45
19 13 13 12 13 14 10 10 4 4 2 3 4 5 8 4 4 4 9 13 16 17 17 19 11 10 13 18 23 22 26 26 22 21 22 26 25 25 29 32 36 39 42 44
22 19 14 13 19 23 26 20 14 11 6 4 1 5 8 8 4 3 4 2 6 10 14 13 10 5 6 7 8 10 14 15 13 13 14 17 19 22 25 30 35 38 38 40
22 15 20 22 15 9 19 13 12 11 7 9 7 13 10 12 14 10 8 8 7 4 6 8 6 8 10 10 11 13 15 13 14 17 20 20 23 26 25 27 29 33 37 39
24 16 14 11 14 11 13 15 18 18 19 14 8 10 7 11 12 18 18 12 11 7 7 7 8 14 16 18 18 18 19 19 20 23 25 23 25 27 26 29 33 36 36 39
24 24 19 18 18 19 16 14 17 19 16 18 23 24 18 18 21 18 16 13 13 10 11 14 17 18 21 23 26 27 27 27 27 30 28 26 26 28 31 32 38 41 41 46
30 23 23 19 15 18 19 20 15 17 19 21 21 20 16 20 16 10 10 12 15 15 15 15 17 20 22 26 28 29 30 30 30 28 30 28 28 31 31 36 38 44 48 54
31 17 18 16 18 22 26 26 25 22 21 22 20 18 13 14 19 14 12 14 18 19 19 17 18 19 22 24 24 28 28 26 25 28 30 28 29 33 37 38 43 50 53 53
27 24 20 21 21 21 23 27 30 33 31 26 27 25 22 22 18 17 15 15 18 19 16 16 17 19 22 21 16 18 20 21 24 28 31 32 35 38 41 48 52 54 57 55
25 21 21 11 14 2 19 20 22 26 29 32 31 30 23 17 19 17 16 15 14 14 15 16 17 18 19 20 23 24 24 21 23 27 32 36 37 42 47 52 57 61 52 42
19 18 15 10 17 17 14 13 16 15 14 14 13 13 17 18 18 16 13 12 14 16 18 19 19 21 22 23 23 23 22 24 26 30 34 39 45 47 54 51 58 43 43 39
22 20 18 13 7 8 25 21 23 17 15 18 15 14 16 15 14 13 13 15 18 20 20 21 22 23 23 22 24 26 25 25 27 31 38 44 49 60 51 45 41 42 42 41
23 22 23 24 15 15 18 15 14 21 17 21 21 17 15 14 15 14 18 21 20 18 18 19 21 23 25 26 27 26 26 25 28 31 31 33 35 42 41 41 41 38 32 31
31 25 23 24 15 14 20 20 25 20 20 13 13 17 15 15 17 22 21 19 19 20 21 23 24 26 28 30 27 25 26 27 29 29 30 34 38 41 42 33 32 33 33 32
25 26 22 18 17 14 9 14 23 24 19 13 10 13 14 18 21 21 19 20 21 22 23 24 26 28 26 27 29 30 29 33 33 34 35 31 28 28 31 33 33 33 34 36
28 22 23 20 21 18 15 13 14 16 15 14 11 15 18 19 20 20 21 23 22 23 24 26 29 25 27 29 31 32 36 36 30 26 27 28 29 31 32 33 34 36 37 39
31 26 25 24 22 18 18 18 16 16 15 15 17 18 19 21 22 24 26 24 24 26 28 29 26 27 29 31 33 29 22 24 24 25 27 28 30 32 33 35 37 39 40 42
27 28 27 25 20 21 16 15 16 18 20 21 22 23 23 24 25 27 26 26 27 29 28 27 27 28 29 25 22 22 22 23 23 25 27 29 32 34 36 39 40 41 43 46

GFSCGP_700_spd_036.txt.gz
Wind_Speed
1 1 3 8 6 7 4 4 4 3 3 13 13 6 13 10 7 6 10 13 14 15 15 16 17 15 15 15 13 12 11 9 7 5 4 1 2 5 5 9 11 11 14 15
3 2 5 7 5 5 3 8 6 5 9 13 13 9 10 14 8 3 8 12 12 9 10 11 12 12 11 11 11 11 10 8 8 7 6 7 8 9 11 11 11 13 14 16
6 3 5 8 11 8 4 8 8 9 10 5 7 12 17 18 19 13 12 10 11 5 5 5 4 4 3 2 3 5 8 8 8 8 9 10 12 10 10 11 12 14 17 16
8 8 10 8 11 9 9 6 9 7 7 0 5 2 12 20 23 21 16 17 16 15 12 8 8 5 1 3 6 7 10 13 11 12 12 14 15 15 14 15 16 17 19 18
8 8 12 14 13 8 11 5 5 2 5 5 3 2 4 14 25 25 25 21 19 19 17 15 11 10 7 7 10 9 11 13 12 16 16 19 21 19 19 22 21 20 21 22
16 12 11 18 12 10 8 8 7 4 5 1 6 3 7 11 12 15 22 21 22 22 21 18 15 17 15 14 14 17 16 17 17 16 16 18 22 23 23 25 25 23 24 25
19 11 8 9 7 6 7 4 3 1 2 4 5 6 13 16 17 13 14 21 20 21 25 23 20 16 20 17 15 19 26 18 19 18 19 21 22 24 24 25 28 27 29 31
14 11 13 9 6 6 4 3 3 2 2 3 3 6 13 11 11 14 14 12 18 18 19 20 21 16 16 19 17 18 22 17 19 20 20 22 20 21 23 26 27 28 32 36
9 11 8 10 9 5 5 5 4 3 3 1 4 9 12 10 9 7 4 3 7 9 11 9 14 13 14 20 17 17 18 23 19 21 22 23 21 21 23 25 26 28 30 32
14 8 10 8 9 10 10 7 4 3 2 3 4 5 7 12 4 9 8 5 5 4 5 5 10 14 11 15 16 17 17 18 21 22 20 19 16 18 22 22 23 24 27 28
23 21 19 13 13 11 14 17 13 9 4 4 1 6 10 10 6 5 7 6 5 6 7 9 11 14 9 8 9 8 9 10 13 13 12 13 14 18 21 23 24 25 28 31
23 14 22 24 19 17 16 17 18 16 5 8 7 18 17 14 11 16 13 9 7 4 4 7 7 4 4 4 3 3 9 11 13 15 17 18 19 21 22 23 26 28 30 32
25 18 19 15 17 17 11 11 13 12 13 14 5 13 5 8 16 13 16 17 11 10 6 5 5 6 9 11 13 14 18 19 23 25 25 25 25 25 26 26 27 32 30 34
27 25 22 21 23 14 16 15 14 13 12 17 22 27 22 20 20 17 17 17 15 14 12 11 10 11 14 15 19 19 21 25 27 28 27 27 26 27 27 29 29 30 33 37
28 30 28 26 21 19 16 19 19 20 21 22 24 24 21 18 18 19 13 12 15 15 17 16 14 16 17 18 20 22 24 26 27 27 28 26 27 29 31 32 35 38 42 44
28 25 27 27 25 20 19 21 22 23 27 28 24 26 24 20 15 15 17 15 14 15 18 20 20 19 21 21 23 24 25 28 30 29 28 28 29 31 34 37 41 42 42 47
26 30 26 23 21 19 24 30 29 31 31 31 31 30 24 25 24 22 21 18 18 18 19 18 18 18 20 23 24 23 24 25 25 26 27 28 30 32 37 39 42 43 48 53
33 27 29 18 16 4 28 29 24 24 25 28 32 33 30 32 29 22 19 18 16 15 14 15 17 20 23 24 24 26 27 27 25 23 24 26 29 33 37 41 43 49 58 57
28 27 22 14 18 23 21 17 16 15 19 18 18 20 23 23 20 18 17 15 13 14 17 20 23 24 24 24 24 24 23 23 24 25 25 26 29 30 35 48 47 49 45 42
32 31 28 17 8 8 24 20 24 24 27 22 15 12 11 15 18 15 12 12 15 17 20 22 22 22 22 22 22 23 24 26 27 27 29 31 28 32 35 34 37 37 39 39
29 27 26 26 16 17 21 16 15 18 29 17 18 16 15 16 16 15 14 14 18 21 22 21 20 21 22 24 26 28 29 28 28 28 29 29 30 28 30 34 40 41 39 35
35 30 26 25 16 15 22 20 27 24 18 18 15 14 18 17 16 16 16 20 21 21 20 20 22 23 25 28 30 31 28 28 29 28 27 35 33 34 34 31 31 34 34 35
36 36 31 27 25 25 18 13 15 20 23 12 9 11 15 17 16 17 19 20 19 19 21 22 24 26 28 30 32 28 29 28 32 35 37 27 27 28 29 30 31 33 34 37
34 31 35 30 30 29 27 22 17 14 17 18 15 13 15 16 17 20 20 19 20 23 24 25 27 29 29 30 28 29 31 35 29 23 25 25 26 27 30 32 34 36 37 40
33 32 31 33 34 29 23 21 18 16 16 16 16 15 16 18 19 20 20 22 24 27 26 28 30 30 28 27 28 31 26 23 24 24 25 26 28 31 32 34 36 38 40 43
32 31 31 31 28 28 21 15 14 18 17 16 16 17 19 21 22 23 25 26 28 28 28 29 30 29 27 28 26 23 23 23 23 24 26 28 31 32 35 37 38 39 43 46

GFSCGP_700_spd_039.txt.gz
Wind_Speed
3 4 7 8 8 9 8 6 6 2 4 7 11 11 3 3 2 4 7 11 13 17 18 19 20 19 18 18 18 18 17 17 17 14 12 10 8 8 9 9 10 12 12 13
5 4 3 9 9 8 5 4 2 5 3 7 11 11 7 5 1 7 8 13 15 16 18 18 16 16 15 15 15 15 15 14 12 12 11 11 9 9 11 11 12 13 15 15
9 5 4 9 12 9 6 4 3 3 4 4 5 9 10 9 8 10 11 13 15 15 15 13 12 12 13 12 10 11 12 12 12 13 14 13 12 11 10 8 11 15 17 17
9 7 6 8 11 12 10 3 5 3 2 2 3 2 6 9 15 15 15 16 15 13 14 14 14 14 11 11 11 10 11 13 14 15 16 12 11 12 13 16 17 18 20 21
10 3 8 14 13 13 7 8 4 3 3 2 3 2 5 6 9 9 15 18 18 18 18 17 14 13 10 11 10 11 13 15 18 17 15 14 13 17 18 21 23 23 22 25
14 11 10 13 14 14 12 8 6 4 4 2 6 5 4 6 9 10 10 15 18 21 20 19 18 18 17 15 15 17 18 19 18 20 16 15 15 16 19 24 25 24 25 26
17 16 12 7 14 12 12 8 2 2 2 3 5 4 5 8 11 14 14 12 13 17 20 23 22 20 18 20 19 18 20 20 17 28 21 21 21 21 22 25 27 26 26 27
17 7 10 10 13 10 10 10 5 3 3 1 4 5 2 8 10 10 11 13 14 16 19 21 22 24 22 21 21 21 21 19 27 16 22 22 23 25 24 26 23 24 25 25
11 9 12 11 12 12 11 9 8 4 2 1 3 5 8 6 3 2 3 6 8 11 13 15 18 21 23 22 21 22 18 16 28 29 17 21 25 27 24 24 24 21 23 23
15 7 12 14 14 12 10 6 4 4 3 3 3 4 5 7 1 5 7 5 0 3 7 9 11 14 16 17 18 20 22 19 20 19 20 22 22 22 20 21 22 21 24 28
23 15 10 10 10 12 12 13 10 8 5 3 2 5 7 10 10 8 6 8 6 4 4 7 9 10 11 14 18 20 20 19 14 16 17 17 16 18 19 20 23 24 24 21
23 11 20 22 17 17 15 14 17 12 7 8 6 13 15 7 7 9 8 6 8 7 5 3 5 5 7 6 7 8 10 9 10 12 14 17 20 23 27 24 21 19 24 28
25 22 16 12 13 18 18 18 14 17 17 14 7 8 5 5 10 16 18 13 13 12 9 4 4 6 6 6 7 9 14 14 14 17 21 24 25 27 25 25 23 29 29 32
21 28 24 23 21 14 15 14 17 18 15 17 22 24 15 15 15 17 18 16 15 15 15 13 11 11 12 12 13 17 20 19 19 22 25 28 27 27 27 26 26 30 34 27
31 27 25 26 22 22 21 22 18 22 21 21 23 24 21 20 17 15 15 16 13 12 14 17 17 17 18 18 20 19 19 21 24 28 32 33 32 30 30 30 29 31 32 35
33 30 25 27 25 26 27 23 21 21 23 26 27 32 25 24 19 17 14 12 16 16 17 20 21 21 21 21 22 22 22 24 28 30 30 31 31 31 30 29 29 32 35 36
30 29 28 23 25 24 27 30 26 26 28 33 36 36 27 24 22 21 20 19 19 20 21 21 21 21 21 20 20 21 24 26 27 28 29 28 29 28 27 27 30 32 42 40
24 28 28 20 19 8 24 27 26 27 30 30 30 27 25 26 26 25 26 24 21 20 18 17 17 17 18 19 22 25 27 27 26 25 24 25 26 28 30 31 31 37 32 37
24 26 20 14 22 22 22 22 22 24 37 25 22 19 19 20 19 21 22 19 17 14 14 16 17 19 22 23 23 22 21 21 22 24 25 27 29 31 33 33 30 32 30 32
26 25 29 18 10 10 26 23 20 16 39 31 27 22 17 14 18 18 18 17 15 15 15 18 19 20 21 20 20 20 21 22 24 26 25 24 24 24 27 28 27 29 34 34
29 27 30 28 16 19 21 19 18 17 34 21 18 15 16 14 13 14 18 17 15 16 17 18 18 18 18 19 20 21 24 25 25 24 24 25 26 28 31 25 25 26 28 30
33 30 25 29 21 15 26 25 27 23 22 23 18 14 12 15 18 18 18 16 15 16 16 17 17 18 19 20 22 24 25 26 26 25 26 30 28 22 23 24 25 27 29 31
30 33 35 29 33 32 24 26 27 25 21 18 15 13 16 18 20 19 18 16 16 16 16 16 18 19 21 22 25 25 26 27 26 28 25 21 23 23 24 25 27 29 32 34
35 32 36 31 33 33 33 32 28 25 19 15 14 12 14 20 21 19 17 17 17 17 17 19 20 21 23 27 28 27 26 26 29 22 22 21 22 24 26 28 30 32 34 36
33 34 37 37 35 33 33 31 31 24 20 18 17 16 18 20 20 19 18 18 19 19 20 22 23 24 27 29 28 28 29 26 21 21 21 22 24 26 28 29 31 34 37 40
37 35 36 38 30 27 22 25 23 20 20 19 18 19 20 21 20 21 21 21 22 23 24 25 25 28 29 29 27 28 22 20 20 21 22 24 26 28 30 32 33 36 40 43

GFSCGP_700_spd_042.txt.gz
Wind_Speed
10 8 10 10 12 11 8 8 7 4 5 8 9 9 7 4 2 0 9 8 10 14 14 15 15 16 17 17 18 17 17 17 17 16 16 16 15 15 15 15 17 18 17 15
10 9 8 11 12 10 8 8 7 7 9 7 8 9 7 5 2 3 5 13 15 15 18 18 19 19 18 17 17 16 16 15 15 16 16 16 15 15 17 17 17 18 18 17
12 7 7 9 12 10 9 7 6 5 7 9 12 9 7 8 8 8 9 11 15 17 18 18 15 16 16 15 15 16 17 18 18 18 18 18 17 15 13 15 17 17 18 19
13 14 9 8 11 12 12 7 5 7 6 7 6 6 7 10 9 13 15 14 12 16 17 17 17 16 15 15 17 18 19 18 18 19 18 18 17 15 15 15 18 20 20 21
16 14 13 11 12 11 12 8 8 5 8 5 6 8 6 6 7 10 16 19 19 16 15 16 16 18 17 18 17 17 18 20 20 20 20 19 19 19 19 19 23 24 25 25
16 16 11 10 14 13 12 8 8 5 7 8 6 7 5 6 6 6 8 12 23 22 22 21 21 23 20 20 20 21 21 21 22 24 22 21 22 24 21 20 20 23 26 27
20 18 13 11 11 15 12 9 10 8 7 7 5 7 12 6 8 9 12 16 15 25 27 26 25 24 24 23 21 20 21 20 23 27 16 21 27 25 25 24 24 25 25 27
23 17 19 14 15 16 16 14 9 4 5 4 5 7 2 6 9 9 9 11 13 18 24 29 31 29 28 26 24 23 22 21 22 24 26 26 20 26 28 30 29 29 27 25
22 18 12 13 14 14 12 13 11 5 5 5 7 8 11 1 3 4 5 8 12 16 21 25 26 29 31 32 30 27 25 26 23 25 32 24 20 23 27 28 30 30 29 28
12 15 15 18 17 15 11 11 7 9 5 6 5 7 3 4 3 0 4 3 3 8 13 20 23 26 28 30 30 28 27 27 26 25 28 20 22 25 26 26 26 28 29 29
18 14 11 18 18 16 15 11 10 7 6 5 5 7 8 8 7 7 6 4 4 3 4 11 15 19 24 26 28 27 29 30 30 29 26 21 20 23 22 23 25 26 31 35
26 15 14 18 15 15 14 14 13 11 8 8 8 16 14 16 14 9 4 6 6 4 5 6 8 11 15 20 21 21 24 25 26 27 24 18 19 21 23 26 29 31 29 28
30 19 19 15 15 17 15 16 16 15 17 16 10 9 4 6 6 10 13 14 13 11 10 10 9 11 11 11 11 12 14 14 15 18 18 21 23 24 26 28 29 29 29 33
29 24 27 21 20 14 15 18 18 17 13 15 17 16 14 15 16 15 16 16 17 17 15 15 15 15 14 13 13 13 16 17 18 21 23 25 26 29 31 31 31 31 32 30
33 27 26 24 21 21 21 21 18 19 18 19 18 20 19 18 19 19 19 16 17 18 16 15 20 20 20 20 20 22 23 23 23 24 25 27 29 31 32 33 33 32 32 34
32 23 19 19 20 24 24 23 22 22 21 21 22 26 21 22 24 24 22 20 17 18 22 19 21 23 22 22 23 21 23 25 26 26 27 29 31 30 31 33 34 34 31 32
32 30 23 24 21 19 25 29 25 23 24 24 25 25 23 23 25 24 23 22 23 18 16 19 20 24 26 24 24 24 23 22 24 26 28 30 31 31 31 31 32 30 27 33
20 30 22 19 17 9 26 20 19 24 25 24 26 27 25 22 22 25 26 26 25 25 21 22 23 21 20 20 20 20 22 25 27 28 27 26 27 28 30 32 33 33 34 35
21 22 15 12 17 18 20 23 23 23 27 20 26 26 22 24 23 24 24 24 25 24 21 19 17 16 17 19 21 23 25 24 23 23 24 26 28 29 31 31 30 27 28 27
23 26 22 18 11 9 21 22 23 16 36 17 19 14 22 25 26 22 19 21 22 22 21 19 17 17 19 21 22 22 20 21 22 23 25 26 26 25 25 24 26 25 23 23
27 28 28 25 13 14 18 18 17 15 28 19 18 17 17 18 20 20 15 19 23 22 20 19 18 19 20 19 19 18 19 21 23 24 24 23 23 24 24 21 21 22 22 24
22 24 22 20 15 15 21 21 23 28 22 20 22 20 17 20 18 18 18 23 24 22 20 19 19 19 18 18 18 20 21 23 24 24 23 23 23 20 20 20 21 22 24 26
25 24 21 26 24 28 26 26 27 24 23 25 24 20 19 19 19 21 22 24 23 21 20 20 19 18 17 18 20 21 23 24 24 25 26 23 21 21 20 21 22 25 27 29
36 35 31 28 25 24 27 28 29 29 27 28 25 21 19 20 21 23 25 25 23 22 21 20 19 19 20 21 22 24 25 26 26 26 23 21 21 21 21 23 24 26 29 31
30 31 34 35 33 30 28 28 29 30 28 28 27 22 22 22 22 26 27 26 25 23 22 22 22 22 23 24 25 26 27 27 27 22 21 21 21 21 23 24 26 28 31 33
30 35 35 37 32 31 29 33 29 28 26 27 26 24 25 24 25 27 28 28 28 26 25 25 26 26 26 27 28 29 28 28 23 21 21 21 21 22 23 25 29 29 30 34

GFSCGP_700_spd_045.txt.gz
Wind_Speed
12 13 16 13 16 17 10 10 10 6 4 4 10 9 5 6 7 8 9 10 8 7 9 8 11 13 13 13 16 19 20 20 19 18 20 20 20 20 20 20 21 21 22 21
14 16 12 11 12 12 10 11 12 6 7 7 9 12 4 7 8 10 11 12 13 13 12 13 14 15 15 15 16 17 17 17 16 16 17 17 17 16 16 18 18 19 20 20
18 5 10 8 10 12 12 13 5 9 7 11 13 14 11 9 10 11 12 13 15 17 16 15 15 17 13 14 14 15 16 17 17 16 17 18 18 18 18 18 17 18 20 20
19 15 9 10 13 13 14 12 9 9 13 10 9 2 14 14 13 13 14 15 16 18 19 16 16 17 17 16 17 17 17 17 18 19 18 19 18 19 18 18 18 19 21 22
21 17 15 14 14 13 13 6 8 10 14 16 13 12 12 14 14 15 17 17 17 19 21 19 16 15 16 18 17 17 17 18 20 21 22 24 24 23 22 23 22 20 23 24
21 15 16 15 14 14 12 9 10 10 13 13 15 14 18 12 11 12 14 17 20 21 21 20 19 18 19 18 18 18 19 20 22 23 25 23 22 22 25 27 22 22 24 24
24 21 19 15 13 14 14 14 14 11 8 10 9 8 7 7 4 7 7 10 17 23 24 24 24 24 24 23 23 22 22 23 24 28 24 25 24 24 33 34 29 28 26 25
26 25 24 19 19 18 19 19 11 5 7 7 7 7 7 3 4 7 9 11 15 19 26 27 27 27 27 27 26 25 24 24 26 30 30 22 28 20 24 23 21 21 28 29
24 26 13 24 18 21 21 26 18 9 10 7 11 8 11 7 5 4 5 6 7 13 18 26 29 29 29 29 31 29 28 27 29 31 30 23 25 20 24 22 24 26 28 29
19 16 18 16 17 21 18 19 17 16 6 9 14 13 2 6 3 3 1 2 3 4 9 18 24 28 29 30 31 35 34 32 31 28 27 23 20 23 24 26 27 29 27 27
26 18 19 17 22 22 23 15 18 12 16 6 7 6 5 3 6 7 7 7 4 2 4 7 13 21 26 29 30 34 33 31 31 32 30 29 25 25 25 26 27 26 28 28
30 19 18 22 21 23 21 25 23 20 17 13 12 20 13 12 13 13 11 9 7 6 5 6 10 14 19 22 24 24 23 24 25 31 29 28 29 27 24 24 24 27 29 30
30 28 21 20 18 20 21 19 19 20 16 18 12 13 8 9 8 8 10 11 12 13 11 12 13 15 18 19 21 23 24 24 24 26 24 23 23 23 24 25 28 29 31 32
32 27 31 25 27 22 25 23 23 23 18 19 22 22 14 13 12 13 14 14 12 13 14 13 14 18 19 18 18 18 19 20 19 18 18 21 22 25 27 29 31 33 34 35
30 36 30 30 25 19 24 25 26 29 26 26 22 20 17 15 16 14 14 12 17 19 17 19 18 21 23 22 22 22 21 21 20 20 21 21 24 28 31 32 33 35 36 35
26 29 32 34 27 25 24 25 26 26 25 26 25 25 20 18 18 20 19 21 21 22 18 20 23 24 27 28 27 26 25 23 23 25 27 29 30 32 33 33 32 34 34 34
28 27 29 27 26 26 30 28 27 25 26 24 27 24 19 20 20 20 20 20 20 24 23 20 21 25 27 30 30 29 27 28 28 29 31 30 30 31 33 34 32 31 32 34
19 20 29 22 20 19 23 23 25 28 29 26 26 25 24 23 24 22 23 20 25 26 26 24 21 20 23 27 28 26 24 23 24 25 28 31 31 31 30 31 32 34 35 36
17 17 20 22 24 23 23 23 20 22 24 23 25 24 22 23 24 31 26 26 25 26 30 28 24 22 24 23 22 22 22 24 27 29 30 29 29 29 31 32 33 33 33 32
22 20 23 15 20 19 27 25 17 18 28 20 19 20 19 18 26 23 24 23 23 23 24 25 24 24 23 22 22 23 24 26 28 27 27 27 28 29 29 30 31 30 29 26
22 23 26 25 15 16 18 17 20 22 26 10 12 15 15 18 21 21 24 24 21 22 23 25 25 24 22 22 23 24 25 25 25 25 25 26 27 28 28 28 26 24 25 25
15 17 19 22 25 22 17 20 22 25 23 18 18 15 19 18 24 24 24 22 22 22 25 27 26 24 24 24 25 25 25 25 25 25 25 26 27 27 26 24 25 25 25 25
31 25 17 20 20 27 25 27 24 21 20 23 21 24 24 25 23 23 24 24 24 24 27 27 27 25 25 26 26 26 26 26 25 25 26 27 27 26 24 24 24 24 24 25
28 27 32 23 22 19 17 18 17 23 24 22 25 27 27 25 24 23 25 25 25 27 29 30 29 28 28 28 27 27 27 27 27 28 28 27 25 24 24 24 24 26 25 27
28 22 32 34 34 26 25 26 23 25 24 26 25 26 26 25 24 24 26 27 28 31 32 32 31 30 29 29 28 28 29 30 31 30 28 26 24 24 24 24 25 26 25 28
25 27 29 26 22 28 30 24 31 26 29 26 23 26 27 25 23 25 27 28 31 34 34 34 33 32 31 31 31 31 33 34 33 30 29 25 24 24 25 26 25 25 28 29

GFSCGP_700_spd_051.txt.gz
Wind_Speed
17 18 22 16 15 15 19 24 27 20 17 8 11 15 10 4 8 11 19 7 7 5 3 6 8 10 17 26 23 22 22 19 17 25 27 38 42 37 35 29 25 26 25 22
16 26 18 10 14 21 26 17 14 3 6 10 10 9 10 5 8 7 10 2 7 6 6 6 6 9 11 15 17 17 17 21 24 29 32 32 33 31 25 20 24 27 25 22
25 22 13 12 18 19 17 15 15 13 11 10 14 11 12 7 23 11 19 7 4 3 5 7 6 9 10 11 14 16 16 15 19 23 25 26 27 28 24 21 20 18 17 18
29 24 18 25 17 16 19 13 18 10 10 11 8 2 16 15 18 8 19 16 4 5 6 9 10 8 10 12 12 13 14 16 19 20 20 20 20 18 16 17 17 16 15 18
32 23 24 26 20 15 19 19 15 10 13 14 18 6 4 10 24 14 21 19 8 5 8 6 7 11 13 13 13 12 13 15 16 17 18 17 16 17 16 16 17 18 18 17
30 22 22 20 21 17 16 18 14 11 16 13 21 19 11 16 18 19 17 27 18 10 8 11 12 13 15 16 16 17 17 17 18 17 16 14 15 13 14 18 21 17 15 21
31 33 29 25 23 17 18 13 3 5 3 7 10 14 15 9 9 18 20 30 23 18 11 9 15 17 18 18 17 18 20 20 19 19 18 17 18 16 11 12 18 16 21 20
32 26 30 23 25 20 26 22 9 5 2 5 12 6 5 7 10 3 11 18 23 18 16 15 13 13 15 19 20 19 20 18 19 18 19 19 16 13 12 13 19 20 21 20
24 35 20 23 21 25 18 21 23 9 2 5 8 14 4 8 8 12 10 15 14 22 22 20 18 17 19 18 22 22 21 20 21 21 20 21 18 14 14 17 16 20 22 22
31 19 29 26 26 28 30 22 22 13 5 4 9 19 11 24 12 7 10 11 12 13 19 25 24 22 21 23 20 18 23 26 22 23 25 25 25 26 23 20 19 21 21 21
39 26 30 25 23 35 29 26 25 16 9 6 2 4 10 18 13 9 12 13 14 13 12 13 18 29 30 30 28 24 26 36 25 24 26 28 29 31 32 31 24 22 22 20
41 29 34 41 18 32 34 30 24 22 11 7 4 5 10 1 8 10 14 16 14 18 16 15 17 18 18 27 38 41 41 32 19 20 25 28 27 23 26 34 25 24 23 21
35 33 29 22 24 21 34 30 27 29 26 23 10 12 19 10 10 17 10 17 17 18 16 21 18 16 18 25 25 26 26 24 18 23 17 21 26 22 16 21 23 22 20 21
36 39 31 28 17 23 21 26 28 26 28 22 21 18 17 19 14 18 15 16 17 20 18 18 19 16 15 18 21 22 24 21 19 16 22 25 24 21 15 16 15 16 18 21
28 41 46 29 26 28 29 29 29 32 33 27 27 26 29 20 22 23 19 18 14 24 18 16 17 22 24 22 19 20 22 25 24 26 20 16 16 17 19 19 19 20 22 26
33 29 36 42 32 30 30 28 26 29 29 26 25 29 23 17 20 18 19 23 20 22 26 25 23 26 28 29 26 21 22 24 26 24 22 20 21 21 20 21 23 26 29 31
20 35 25 32 34 31 36 36 29 34 27 30 32 27 25 23 30 15 14 17 21 24 23 24 28 29 29 34 34 25 25 24 25 29 28 25 24 23 24 26 28 31 30 30
18 27 37 24 21 14 24 23 26 23 32 26 26 19 19 13 21 24 21 19 19 22 24 27 30 29 30 32 34 30 25 26 29 32 30 28 26 27 30 31 29 30 31 31
20 22 18 23 31 22 40 26 16 21 26 21 21 31 26 20 20 22 26 26 22 21 23 28 31 31 31 32 33 30 25 26 29 31 28 29 33 30 28 30 32 32 30 29
33 12 24 12 15 15 28 29 22 16 30 22 19 19 21 21 24 26 27 24 22 24 27 29 29 28 29 30 31 29 27 26 25 27 28 26 25 27 29 30 30 29 29 30
28 25 23 7 4 15 13 25 30 27 31 19 16 24 21 22 28 23 22 22 23 23 24 24 25 28 29 27 27 28 28 26 25 24 25 25 26 29 30 29 29 29 29 30
20 18 18 28 7 11 6 14 24 39 28 30 26 19 20 20 19 18 19 19 20 23 24 22 23 25 26 25 25 26 26 26 26 25 25 27 29 30 29 29 30 30 30 31
27 24 24 21 26 17 18 27 13 14 23 16 19 20 22 20 21 18 21 20 21 22 23 23 22 24 25 25 25 26 27 27 26 27 28 29 30 31 31 31 33 34 33 33
30 26 25 19 22 24 33 22 26 27 19 22 17 23 25 27 29 29 23 25 22 22 24 23 23 24 26 27 28 29 30 30 30 31 31 32 33 34 34 34 35 33 33 34
26 24 20 20 17 17 19 22 30 37 22 32 14 14 16 16 15 15 18 25 26 24 24 23 24 26 29 30 32 32 33 35 35 34 35 36 36 38 38 37 36 37 37 35
27 29 23 21 18 12 16 19 19 20 24 35 17 22 20 19 17 16 18 21 24 27 26 25 27 29 32 34 36 37 40 41 40 39 39 40 41 41 40 38 37 37 37 34

GFSCGP_700_spd_054.txt.gz
Wind_Speed
22 26 32 21 17 18 15 17 21 19 12 16 11 12 12 12 8 7 7 4 7 11 4 3 7 14 16 11 14 17 20 26 24 29 30 30 26 31 25 34 39 39 39 34
20 30 25 15 13 14 16 22 24 11 2 9 13 16 9 15 6 8 4 4 6 10 4 2 6 8 9 11 15 15 18 22 22 25 30 17 26 26 36 34 37 39 33 29
30 24 18 17 15 16 16 23 18 19 13 15 13 16 16 16 11 12 6 9 14 7 7 5 6 6 7 10 11 14 17 17 21 26 26 29 32 35 36 37 33 30 28 27
25 24 21 16 20 17 24 16 18 15 11 6 7 4 12 18 21 16 11 8 6 12 13 10 6 6 7 8 11 13 16 20 24 28 29 27 26 26 25 25 26 26 22 21
35 23 24 24 22 14 20 16 15 18 12 11 15 7 9 17 24 26 19 11 8 8 11 10 8 8 8 8 8 9 13 14 15 18 20 20 22 21 21 20 20 21 19 21
30 25 18 19 20 20 17 17 14 17 11 7 23 18 12 17 21 22 24 16 13 11 12 12 11 13 12 12 13 14 12 13 13 16 18 18 19 20 20 21 22 21 20 20
31 33 27 23 22 22 20 20 3 3 2 7 7 9 16 20 26 23 23 22 17 12 15 14 18 18 17 17 15 15 16 17 17 17 17 17 16 19 15 12 18 19 17 17
26 17 33 25 27 26 18 19 13 5 3 4 13 7 6 10 12 11 13 17 17 16 14 15 14 14 19 18 19 17 16 17 18 18 18 16 17 16 17 13 9 14 19 17
13 22 22 31 24 19 19 21 23 17 5 1 6 20 21 9 11 10 7 15 20 19 21 21 17 14 15 18 19 20 19 17 19 19 21 21 19 20 13 12 15 12 17 20
31 15 15 27 23 28 27 25 14 11 5 3 7 12 15 13 13 10 10 14 17 18 20 19 21 19 16 17 15 12 15 19 19 20 26 27 25 23 25 20 21 20 22 27
34 35 29 17 32 25 24 31 21 17 18 6 2 8 11 10 23 15 11 14 15 16 17 20 21 22 22 22 24 22 25 21 21 13 32 35 35 30 33 32 26 28 32 32
34 21 41 42 25 22 13 28 34 24 10 15 13 23 16 5 17 14 16 17 17 16 16 15 17 17 22 24 27 29 31 31 30 26 17 26 31 32 37 40 24 33 27 23
20 28 23 26 37 33 31 27 39 33 29 29 13 9 17 14 9 8 17 21 22 19 19 19 19 17 16 15 19 23 25 25 28 42 31 22 27 28 30 22 15 23 29 26
22 35 36 29 23 20 25 22 38 38 26 26 35 31 25 23 25 19 10 17 22 24 21 20 19 19 15 15 17 18 19 20 21 27 29 27 25 23 23 24 19 19 20 21
13 25 36 38 41 36 23 20 32 39 35 30 29 32 32 23 24 23 20 19 25 21 22 23 24 23 23 21 23 23 20 19 20 22 27 26 24 21 21 20 19 19 20 20
10 15 27 30 37 34 30 34 30 33 32 33 31 31 29 31 29 29 29 20 23 28 26 25 30 29 27 25 24 23 23 19 21 22 26 26 23 23 21 22 22 21 23 25
30 16 12 33 28 37 35 45 33 31 29 23 22 24 27 26 25 26 24 24 24 22 26 24 27 24 26 28 27 27 24 23 22 24 24 24 25 24 24 26 25 26 25 28
21 25 23 16 25 12 45 41 40 31 36 31 31 23 18 21 17 21 28 29 23 20 28 29 29 26 27 28 29 28 28 26 25 24 26 25 27 29 29 29 29 30 32 31
22 24 17 9 23 18 29 14 27 30 26 26 28 27 15 27 24 26 19 21 22 22 22 22 24 23 26 28 28 31 28 28 28 27 26 28 30 32 31 31 31 33 30 31
21 24 26 33 12 16 38 30 25 16 27 21 16 27 22 17 31 25 24 21 22 23 20 19 19 22 26 27 26 27 27 27 30 27 29 30 31 32 35 34 30 30 32 33
19 20 29 33 16 21 19 18 27 24 30 23 18 15 29 24 26 23 24 19 23 23 20 20 23 26 27 28 27 29 29 28 29 32 32 31 31 28 27 28 29 31 32 32
18 10 4 23 15 12 9 13 21 25 26 26 28 30 27 27 26 22 15 18 19 16 15 17 19 23 25 25 26 27 27 27 28 30 30 28 26 26 28 29 31 32 32 32
32 34 18 15 15 11 14 19 19 14 11 17 13 16 15 18 22 22 22 24 17 14 15 17 19 21 24 24 25 26 26 26 26 27 27 28 29 30 31 31 33 33 34 34
31 33 33 30 35 24 16 20 23 30 18 14 14 11 16 9 10 17 21 20 24 27 24 20 21 23 24 24 23 23 25 26 27 28 31 33 34 34 35 35 35 35 36 37
26 22 27 26 28 25 16 15 25 33 27 26 22 13 13 10 7 11 12 16 19 21 23 23 24 26 26 24 24 25 27 29 31 33 36 37 38 39 39 38 38 38 39 39
18 23 30 30 25 25 17 15 17 14 22 16 25 30 25 14 11 14 13 14 16 18 22 24 24 24 27 29 28 28 30 33 36 39 40 41 42 43 42 42 42 41 40 40

GFSCGP_700_spd_057.txt.gz
Wind_Speed
28 33 38 31 22 21 16 14 12 8 10 18 15 21 18 15 14 14 6 5 6 7 8 10 8 13 11 13 27 25 26 26 28 18 24 27 25 38 47 55 38 36 39 39
30 39 35 28 22 21 20 17 15 12 7 11 10 16 18 17 14 10 8 5 4 6 5 8 6 7 10 13 8 13 29 28 23 21 23 26 29 27 35 39 34 40 36 33
37 29 31 29 24 23 21 20 14 15 13 17 16 21 23 20 15 13 3 8 8 4 4 3 5 4 6 8 11 9 5 16 25 29 25 27 26 32 39 35 32 39 40 34
32 35 10 12 25 23 21 15 14 18 19 11 13 7 16 18 16 19 15 9 6 5 6 5 3 2 3 6 8 11 11 12 18 25 29 25 26 29 33 29 32 37 37 36
35 28 34 31 24 21 20 10 16 13 19 14 13 9 13 15 17 18 15 14 8 6 7 7 5 5 5 6 7 9 12 14 16 19 23 25 25 27 30 32 32 34 33 31
32 18 13 21 23 21 15 19 21 19 15 8 14 13 20 27 28 23 19 15 14 11 9 9 11 13 10 10 9 8 8 9 11 13 15 16 19 22 24 25 23 24 25 26
31 30 29 20 20 25 16 19 5 4 2 6 9 8 13 14 13 21 19 15 16 15 15 13 13 13 12 11 11 10 10 10 10 10 10 11 14 15 16 19 20 22 23 24
30 17 34 35 32 25 22 22 14 6 4 6 8 6 6 5 13 17 15 16 16 15 18 15 13 12 12 12 12 12 11 11 11 11 10 10 12 14 15 19 18 22 23 22
13 20 14 27 30 29 27 28 20 24 3 2 8 15 21 16 12 12 12 13 16 18 18 16 14 13 13 11 11 16 16 15 13 13 15 16 16 16 19 23 18 18 21 22
18 6 13 20 16 29 28 17 13 10 5 4 5 7 13 6 12 16 14 12 11 15 19 18 21 20 17 13 11 14 18 21 21 21 20 20 20 22 20 24 27 26 24 25
37 30 23 15 17 25 26 29 27 20 19 6 1 7 18 7 11 15 14 11 9 11 13 14 17 18 21 20 20 18 17 19 25 26 26 21 24 27 27 30 30 28 33 33
26 18 34 43 33 17 25 26 27 25 7 12 17 25 13 4 8 18 20 12 15 13 11 10 11 12 16 21 26 26 24 23 21 24 27 19 13 22 25 31 34 38 35 35
1 12 28 27 25 28 36 24 22 21 26 32 15 18 20 20 13 16 19 18 16 16 17 16 15 14 13 12 14 19 24 24 24 25 26 33 31 23 23 27 35 38 20 20
10 10 20 23 18 11 21 26 31 28 32 27 36 34 32 23 20 21 16 16 20 21 22 18 21 17 14 11 8 9 12 14 17 24 27 32 36 25 23 23 25 30 26 24
12 9 12 20 31 30 29 21 24 26 32 35 35 39 35 29 28 29 26 21 22 23 25 25 23 21 19 19 17 17 16 15 19 22 25 30 31 29 28 26 27 23 27 26
14 18 17 16 20 27 32 37 42 38 32 32 40 38 27 24 26 28 29 25 24 26 25 26 23 24 25 25 21 18 17 18 19 20 23 22 28 27 31 31 26 27 25 25
16 13 19 8 8 10 28 41 40 41 38 30 29 29 27 33 30 29 25 31 31 27 28 21 27 28 24 21 21 19 19 20 21 21 23 23 24 25 28 29 29 27 28 27
16 13 13 9 16 4 24 14 24 41 43 38 30 25 24 27 27 28 28 27 29 27 27 20 25 29 28 26 24 23 24 25 23 24 24 21 23 25 26 28 29 29 29 30
20 14 8 6 13 22 27 11 14 21 35 44 44 28 31 28 32 22 19 16 22 31 28 24 26 27 26 27 24 27 27 26 27 25 24 24 24 26 29 29 31 33 33 35
17 19 19 11 3 7 23 13 20 27 33 26 32 31 23 33 36 26 21 24 23 22 24 26 27 29 27 27 28 25 26 24 26 23 24 26 27 29 27 29 33 35 37 38
16 16 19 18 10 16 24 25 26 22 42 20 16 19 22 24 31 31 24 18 18 22 23 24 25 23 26 26 23 22 24 26 24 26 27 28 30 31 32 32 34 36 38 36
16 8 12 11 9 13 13 18 16 12 15 37 29 21 26 27 19 23 27 31 19 25 26 24 23 21 20 20 22 23 25 24 26 28 28 29 30 31 31 30 29 29 31 32
20 22 14 15 15 19 24 28 34 17 9 12 21 32 35 35 30 35 31 29 21 25 24 23 22 21 19 19 19 21 24 26 27 28 29 29 30 30 29 29 31 32 33 34
22 25 29 30 40 36 29 23 20 25 27 27 23 14 13 16 20 23 25 24 26 26 23 22 19 18 18 18 18 21 23 26 27 29 31 31 30 30 31 34 36 37 38 38
21 20 22 31 31 30 31 30 21 30 20 22 24 30 23 12 11 13 19 20 23 25 23 21 19 17 16 17 18 20 24 27 29 29 30 31 32 34 36 38 39 40 41 42
24 27 31 32 20 24 26 25 24 26 24 22 17 21 22 29 24 16 14 12 14 15 18 19 18 18 18 19 20 23 25 27 28 29 31 32 34 37 39 40 41 42 43 43

GFSCGP_700_spd_060.txt.gz
Wind_Speed
30 31 37 34 32 27 17 11 13 12 12 15 12 14 9 16 16 16 10 7 7 8 8 10 12 14 9 17 24 20 21 24 22 21 24 27 26 43 43 42 44 44 39 38
32 41 33 29 28 25 23 21 19 15 10 15 16 17 17 18 18 20 12 10 7 6 5 6 7 9 9 2 19 26 26 24 26 21 19 28 30 44 47 46 48 47 48 45
39 26 33 33 31 29 26 23 19 14 13 18 19 21 18 16 20 18 11 8 7 5 4 3 5 6 7 6 4 14 22 25 24 28 23 21 29 27 36 50 53 52 42 33
35 38 22 18 35 32 30 21 17 15 18 16 19 9 19 17 20 20 15 11 9 6 4 2 2 2 3 4 5 6 6 21 28 28 22 24 24 29 32 26 42 44 42 36
27 29 34 20 22 29 32 19 18 15 19 22 21 11 17 17 23 21 14 6 9 8 4 5 4 3 1 3 4 5 8 7 9 17 23 23 24 26 40 26 32 32 27 34
28 16 15 32 30 22 18 18 14 17 17 5 18 18 15 15 23 23 22 15 9 11 7 7 8 6 4 4 4 5 7 9 11 13 12 11 11 15 20 21 25 28 28 31
28 28 19 18 15 20 23 17 2 2 3 6 10 15 28 23 18 11 10 12 9 14 14 10 9 7 6 5 5 6 6 9 11 13 16 17 17 16 17 18 20 23 28 29
27 9 32 30 25 17 25 24 9 6 3 4 11 8 13 8 9 12 10 10 14 12 14 15 12 10 8 8 7 7 6 8 9 11 12 14 16 17 18 20 21 22 23 23
20 17 15 20 32 29 22 19 23 17 3 2 7 12 22 26 18 12 9 9 12 16 19 15 14 10 9 8 8 9 9 10 11 11 13 14 13 14 16 17 16 17 21 23
16 4 6 17 15 28 32 20 14 11 5 4 4 8 13 10 10 15 13 9 8 10 16 19 17 16 13 11 10 11 13 15 16 15 16 16 16 17 18 19 22 20 19 22
28 16 7 12 15 19 26 29 23 12 9 5 3 8 16 14 10 11 13 12 9 8 8 16 19 18 18 19 16 13 14 15 18 21 21 19 20 21 23 25 24 25 27 28
23 12 24 32 20 13 9 24 32 23 7 9 14 20 15 19 10 10 15 16 11 11 7 7 11 11 12 15 18 21 22 19 18 18 21 25 26 29 35 31 30 30 31 29
3 8 19 9 17 17 20 29 19 19 24 28 14 7 10 18 20 17 14 21 21 16 13 12 14 14 14 12 13 16 17 17 19 20 20 25 29 37 32 19 26 29 33 35
4 6 8 5 7 11 11 18 29 29 26 19 27 27 26 26 26 24 20 18 21 21 16 18 18 14 13 11 10 6 5 5 8 13 17 20 26 29 40 36 28 26 27 27
7 10 8 3 8 17 24 26 19 32 33 31 27 28 27 25 30 29 24 25 25 20 21 21 23 20 17 17 15 14 9 11 11 11 13 19 21 26 29 34 32 30 27 26
10 6 10 16 13 11 18 23 28 30 34 36 33 32 22 23 22 24 21 24 26 30 27 28 25 24 24 19 20 21 17 13 14 16 18 14 20 23 26 29 29 32 30 27
11 7 6 3 11 16 11 3 12 24 33 38 41 37 26 21 19 23 24 26 28 25 28 28 30 31 26 26 23 19 19 18 18 21 23 23 20 22 23 25 29 31 33 31
12 9 6 5 7 2 7 3 10 14 14 22 34 35 35 26 21 22 23 24 28 27 26 28 27 29 25 22 25 23 24 25 23 24 26 27 25 23 22 24 27 30 30 30
23 19 11 5 9 15 24 19 18 21 26 20 23 26 29 36 29 29 28 22 22 25 23 26 27 27 23 23 25 26 25 27 27 28 28 27 26 24 26 24 27 28 29 32
21 22 18 10 4 4 1 10 14 21 39 29 28 23 24 24 36 39 30 29 29 30 24 18 22 29 27 28 29 29 27 27 29 31 31 28 26 28 29 28 28 29 32 35
22 23 23 17 10 13 16 17 18 13 25 21 28 20 16 16 17 20 28 28 32 27 27 26 25 27 30 29 31 28 27 30 33 33 30 27 29 29 31 32 32 32 33 35
10 11 15 18 9 14 19 13 11 16 23 24 19 14 18 17 21 21 20 25 26 27 27 24 27 24 28 30 30 30 31 32 31 30 29 28 31 31 32 34 36 36 35 34
17 19 9 11 15 17 16 18 24 31 30 27 22 15 12 10 6 12 28 37 36 33 27 23 27 23 24 21 22 23 24 25 25 27 28 30 30 30 30 30 33 32 30 34
18 14 17 20 26 27 28 29 31 35 31 19 29 19 15 11 10 15 10 18 29 33 36 28 24 22 19 20 21 23 25 24 24 25 26 27 29 29 30 29 30 31 36 38
15 16 20 26 26 27 24 29 29 27 29 24 18 16 24 21 23 23 19 9 13 16 25 26 25 21 27 29 21 23 24 24 24 24 25 26 27 28 29 28 30 34 37 38
17 19 22 27 28 28 30 29 30 28 22 24 23 23 22 22 16 22 20 24 20 17 17 21 24 21 23 20 23 21 21 22 22 24 24 24 25 24 25 28 32 34 35 36

GFSCGP_700_spd_063.txt.gz
Wind_Speed
34 33 40 35 31 28 16 13 12 12 12 15 13 16 10 10 12 14 15 11 13 8 3 5 10 13 14 19 20 21 16 19 21 13 22 18 32 35 37 34 37 42 42 36
34 43 36 28 28 30 25 22 21 18 17 15 12 17 16 14 13 13 17 13 13 9 4 4 7 9 10 6 17 23 21 22 20 19 22 20 32 35 43 40 39 44 44 43
42 33 28 32 31 30 28 25 22 18 15 17 17 18 19 20 18 13 11 12 11 7 5 2 1 4 6 7 7 21 21 25 21 24 27 24 30 36 38 43 47 44 44 44
34 39 19 27 36 30 30 23 20 19 16 8 13 10 22 21 17 16 14 14 11 9 6 4 3 1 3 5 5 3 13 21 26 27 23 22 26 26 27 43 45 39 47 48
24 30 33 19 22 27 29 25 18 18 17 14 15 9 16 16 18 17 17 16 11 11 7 7 6 4 3 4 6 5 2 11 24 23 28 19 21 21 22 36 44 43 47 46
24 21 20 36 36 25 18 19 9 11 12 7 14 11 12 5 6 14 12 14 13 11 10 7 7 4 4 4 5 6 6 7 9 17 23 29 25 24 31 35 32 47 49 39
25 23 16 20 25 20 19 12 4 5 5 6 12 12 24 21 19 13 9 7 14 12 16 10 5 2 3 3 4 4 6 7 9 12 15 18 22 24 30 34 36 31 31 32
22 14 28 22 25 31 37 28 10 8 6 4 13 8 11 8 13 8 15 6 12 16 17 15 10 6 4 4 5 5 6 7 8 9 9 11 13 14 18 21 25 26 27 27
23 19 13 30 27 18 21 24 28 8 4 1 6 12 15 18 16 12 12 4 8 18 19 17 15 10 8 7 7 6 6 6 8 10 10 10 11 11 12 15 17 20 23 25
14 5 18 17 28 30 17 22 14 13 7 8 4 8 12 13 11 9 12 7 4 13 15 17 14 14 11 10 9 9 10 10 10 11 12 12 12 12 13 15 15 18 20 23
18 9 6 18 20 25 27 26 17 15 19 8 6 8 16 13 7 5 5 7 9 8 8 14 18 18 17 16 14 12 12 13 14 15 15 16 16 16 17 17 19 21 21 23
27 6 13 12 10 12 22 26 31 17 7 10 11 16 10 10 13 16 12 8 11 9 6 10 15 21 20 20 20 20 19 16 15 16 17 20 22 22 23 22 24 23 29 29
8 14 8 6 22 20 18 21 16 22 25 24 12 8 7 10 14 16 16 10 10 13 11 10 12 13 13 14 15 19 22 22 23 22 20 20 21 29 29 28 29 34 31 35
3 6 11 9 3 7 10 18 20 23 20 17 21 18 20 23 22 22 22 17 13 13 15 14 16 17 17 16 17 18 19 18 19 18 19 21 24 25 30 35 35 36 31 34
2 0 7 9 4 5 7 15 16 17 23 26 23 22 22 20 20 22 22 23 19 19 18 17 15 17 19 17 17 16 14 15 15 12 10 7 13 20 25 31 34 36 40 36
8 2 3 6 8 11 12 8 14 19 18 21 21 25 23 21 19 20 26 23 22 20 23 26 24 23 20 22 19 20 21 19 16 17 17 14 15 14 21 25 27 32 36 43
11 10 4 4 4 10 6 5 5 3 6 8 12 17 19 23 26 20 22 22 21 22 23 25 31 32 28 26 23 24 23 25 24 21 21 20 21 21 19 21 25 27 29 31
12 10 13 7 8 2 6 8 2 4 5 11 19 17 15 14 20 25 22 20 20 20 24 28 29 30 34 33 33 29 29 29 26 26 27 25 25 24 28 25 26 27 29 30
20 16 6 5 13 13 10 8 11 12 15 23 29 27 24 20 20 23 29 25 17 18 19 23 27 29 29 33 32 32 29 32 32 30 29 29 27 29 30 31 29 29 31 31
21 20 16 9 3 6 9 8 5 9 16 14 17 19 24 24 22 13 21 30 26 22 28 20 25 26 23 32 33 33 33 31 31 33 33 31 31 35 33 37 33 34 35 34
15 17 23 12 8 10 13 11 15 8 10 9 17 17 19 21 19 11 11 15 21 32 30 25 28 29 33 25 34 34 35 36 35 35 34 33 33 37 34 39 36 37 37 37
7 14 13 16 8 7 6 9 6 11 12 19 15 18 23 19 20 14 18 19 20 23 23 24 31 27 33 32 28 37 34 35 31 30 33 35 37 38 36 37 38 37 38 39
9 12 12 11 7 5 6 9 14 19 26 30 28 21 24 16 14 17 18 23 24 25 26 25 26 25 27 31 35 35 30 31 36 33 33 33 35 34 35 37 39 35 34 35
13 11 15 14 9 12 13 19 20 21 25 28 31 26 19 16 12 18 18 19 20 26 29 34 35 31 29 28 25 26 28 31 32 32 33 35 33 35 34 33 31 30 27 28
14 15 14 18 18 19 20 21 20 22 23 26 26 28 28 26 18 18 15 13 16 22 14 13 23 27 26 25 24 28 23 24 25 26 26 28 33 32 31 30 28 26 23 24
14 15 18 20 19 22 23 25 24 26 25 22 22 23 23 27 23 22 15 20 20 21 24 20 19 17 22 22 24 23 27 32 35 39 25 26 26 27 25 23 22 21 24 28

GFSCGP_700_spd_069.txt.gz
Wind_Speed
26 31 38 33 32 28 25 20 20 16 16 18 19 20 19 16 17 14 14 14 14 13 13 14 13 15 16 19 12 25 20 19 13 11 14 17 18 21 38 39 34 41 44 36
27 40 34 29 29 29 30 29 24 19 15 14 18 20 20 19 19 16 15 14 14 11 13 13 12 12 12 12 10 18 17 16 18 16 14 16 17 15 30 34 32 37 40 44
33 30 28 28 29 31 31 31 27 22 13 16 18 22 21 23 21 19 18 16 16 15 13 12 11 10 8 7 7 17 16 19 17 16 18 17 18 21 28 37 31 41 45 46
27 32 16 27 33 29 31 27 24 22 20 21 15 19 17 18 21 19 18 18 18 17 11 12 10 8 7 3 1 10 14 20 20 20 20 19 16 20 21 30 36 37 47 49
14 20 27 31 29 30 31 20 21 22 23 21 23 17 18 14 19 18 18 19 18 18 16 12 10 7 5 5 1 3 10 18 22 23 21 22 24 21 21 29 38 37 42 45
25 22 18 24 30 25 19 24 21 19 20 20 24 21 17 14 11 6 11 13 14 18 18 15 11 8 6 6 5 3 4 8 15 20 21 23 25 23 22 30 32 34 41 44
25 26 22 18 25 29 25 20 13 14 17 15 19 17 22 8 7 7 10 12 11 17 19 17 14 9 7 7 7 5 3 3 4 10 20 26 26 27 29 27 27 34 33 45
16 21 22 15 24 25 30 31 20 11 11 14 21 9 14 12 13 8 7 10 12 15 20 18 16 13 10 9 8 8 7 5 3 4 7 15 23 30 27 24 25 33 32 36
11 15 21 21 18 25 29 36 29 18 8 11 14 15 9 9 8 7 6 9 10 14 19 20 17 17 14 11 9 9 9 8 7 5 7 10 13 18 21 24 28 29 29 29
26 24 19 17 19 29 26 24 32 32 9 8 11 19 8 8 9 7 5 2 6 10 17 18 18 19 17 15 13 13 12 11 11 9 9 9 10 12 13 15 14 16 26 32
29 23 12 24 27 30 30 26 28 25 23 8 7 7 7 14 9 6 3 1 1 4 11 16 17 19 20 18 17 14 14 14 13 13 12 11 12 13 14 13 14 14 17 21
19 13 21 17 26 27 29 27 23 22 21 30 17 7 5 13 8 7 2 1 4 2 5 11 15 16 19 21 20 16 15 15 15 15 16 16 16 16 15 14 15 17 17 18
5 16 23 12 9 24 30 30 29 24 16 12 11 11 14 12 8 5 4 5 3 3 4 7 12 15 18 22 24 21 19 19 20 19 18 20 21 22 21 20 20 21 21 23
7 13 21 18 8 16 21 26 26 26 24 25 22 14 14 9 9 10 10 10 7 6 4 5 9 12 16 17 25 26 24 23 24 24 24 24 24 23 23 25 27 27 26 28
5 12 16 21 11 7 13 17 20 22 22 21 20 21 19 15 11 10 13 15 10 11 10 9 12 13 13 15 19 22 21 21 22 23 25 27 29 30 30 29 28 27 30 33
9 7 12 20 13 6 10 15 17 17 15 16 17 14 10 9 9 10 12 13 15 14 12 12 9 14 18 19 18 17 24 28 27 27 23 23 25 29 32 28 29 30 31 32
12 8 11 4 6 6 12 17 14 16 18 15 16 6 5 5 4 6 9 12 19 24 25 19 15 16 20 17 20 23 24 23 26 28 27 27 25 26 27 25 24 23 24 26
8 8 5 6 3 5 5 3 27 17 9 9 9 7 3 2 2 2 9 10 14 23 26 24 22 21 21 20 19 22 26 31 30 30 32 33 32 31 32 31 30 29 29 30
20 11 6 3 4 9 5 7 10 20 13 9 6 3 1 6 2 4 9 15 15 15 22 30 30 28 26 26 27 24 26 29 32 34 30 33 39 39 40 40 39 37 38 37
20 17 12 10 4 4 4 5 5 4 7 4 2 3 5 5 5 9 17 23 17 18 18 22 27 38 32 28 29 28 25 23 22 23 30 39 41 43 50 49 47 45 46 44
22 19 21 16 8 6 8 9 10 12 6 2 2 1 2 4 10 16 16 18 20 24 22 19 24 29 38 35 35 38 37 34 32 28 28 33 41 46 45 48 51 50 52 52
20 17 17 18 15 13 6 7 7 7 3 2 3 9 12 14 18 20 20 20 18 23 28 27 27 26 29 36 37 39 39 39 43 45 45 39 36 42 43 42 46 49 50 49
11 14 11 13 14 5 4 10 11 8 7 10 14 16 17 19 18 18 17 19 21 26 29 31 33 32 33 31 30 31 32 33 38 40 40 41 40 39 36 39 42 48 46 49
10 7 4 5 6 11 10 4 7 9 12 16 18 19 20 21 21 19 19 19 21 23 25 29 27 26 27 26 32 36 36 34 32 36 37 38 40 39 39 41 46 48 45 43
5 7 8 8 6 3 6 17 14 16 18 19 21 23 24 25 24 23 23 24 26 29 30 30 29 27 27 28 28 27 30 29 27 29 28 33 36 37 36 34 34 41 44 46
7 8 10 10 11 11 13 16 14 18 21 23 23 23 21 21 23 24 25 24 25 24 23 23 26 28 26 28 26 28 24 25 24 26 23 19 22 26 28 30 30 30 34 38

GFSCGP_700_spd_072.txt.gz
Wind_Speed
26 25 35 30 28 29 27 28 32 27 19 21 25 22 21 23 19 23 17 17 19 20 17 17 16 16 14 19 23 10 17 10 4 4 12 12 22 19 23 25 26 27 36 37
25 44 46 25 25 28 30 31 33 28 18 15 17 20 20 21 23 21 20 15 17 21 20 14 13 15 13 16 14 10 19 12 11 7 10 14 13 14 15 21 30 30 37 35
27 26 35 27 32 32 33 34 33 31 22 20 16 23 23 23 24 24 22 17 15 22 23 19 13 12 11 9 8 5 12 13 11 12 12 13 14 14 20 27 28 30 29 33
22 28 27 33 30 33 37 33 32 30 27 25 21 18 22 24 23 26 26 20 20 17 22 22 14 10 10 7 4 3 10 12 16 15 11 13 13 14 16 19 24 32 28 36
12 9 29 30 25 33 36 29 32 28 28 28 27 20 21 13 18 22 27 25 22 21 26 24 15 10 8 7 3 1 5 11 17 16 15 15 14 12 17 18 25 33 29 26
22 24 23 32 17 23 29 29 26 24 27 23 28 26 25 22 20 20 19 15 21 18 25 24 17 12 8 6 5 3 2 5 11 19 17 21 18 20 20 19 22 30 30 34
21 29 35 17 18 16 25 24 11 11 18 13 22 20 27 17 9 8 9 11 14 17 21 25 18 13 10 5 6 5 4 2 5 11 16 20 20 22 23 16 20 24 29 35
9 7 33 26 23 16 20 33 15 7 8 14 26 14 31 19 13 13 9 11 13 16 19 26 18 13 12 7 6 6 5 4 2 3 8 16 24 25 22 24 20 21 26 25
6 8 8 34 23 20 18 38 39 21 12 8 15 27 7 13 12 8 8 11 12 14 18 22 21 14 15 10 6 6 6 5 4 2 3 8 16 23 23 24 24 26 27 25
9 14 12 16 23 30 23 32 27 26 7 6 6 25 15 19 16 13 11 9 9 10 17 21 20 16 17 13 10 8 7 6 6 5 4 4 5 9 16 24 22 23 24 24
10 14 11 6 16 31 24 28 27 20 26 6 4 9 1 11 13 14 12 4 5 10 13 20 19 16 17 17 15 13 11 9 8 7 7 7 5 6 8 10 15 18 20 25
13 8 17 25 21 23 27 29 27 20 26 25 13 2 8 12 10 14 10 5 2 4 10 17 17 17 13 18 18 15 15 12 10 8 9 10 11 10 9 8 9 12 13 16
7 8 10 12 13 17 29 35 32 23 16 19 6 8 10 13 10 11 7 5 1 2 6 6 13 15 16 16 18 19 18 17 16 15 14 13 14 14 14 14 15 15 15 16
10 12 12 14 14 16 25 29 32 28 10 10 15 9 15 14 7 5 7 6 3 8 4 2 6 10 15 15 15 21 23 22 21 20 20 20 19 18 18 19 21 22 21 22
15 9 12 25 27 23 16 23 28 30 31 26 18 19 17 9 5 7 9 8 7 2 3 3 6 7 12 15 14 14 19 25 25 23 21 21 20 22 25 26 25 25 26 26
13 9 15 25 23 18 18 13 14 17 24 25 18 16 10 9 6 5 6 7 11 6 10 6 13 8 5 11 20 19 16 16 23 24 24 24 24 23 24 27 30 31 31 30
7 12 8 9 7 10 10 11 12 11 11 9 11 10 13 6 1 5 11 13 17 19 22 15 15 15 16 19 12 16 22 26 21 20 24 27 29 28 26 25 28 30 31 30
12 11 10 9 13 4 9 12 11 4 9 14 9 11 9 10 4 1 4 5 3 6 17 27 25 22 22 19 22 25 27 25 25 24 25 26 29 32 33 33 31 30 31 31
21 12 6 4 7 10 5 4 8 27 11 13 13 12 8 7 10 13 6 5 7 11 14 11 15 21 24 22 22 19 18 17 25 23 27 29 28 31 34 36 33 37 39 38
22 21 13 8 5 1 5 7 7 16 11 5 6 9 10 12 14 3 7 7 11 13 17 20 16 13 16 27 27 28 27 25 23 21 23 27 29 30 32 38 40 42 46 46
29 25 23 17 7 5 3 6 5 2 5 5 4 5 4 6 3 9 10 7 2 6 17 19 24 21 20 18 19 22 32 36 38 39 37 32 32 31 34 31 32 46 50 58
24 20 18 17 11 7 7 5 5 7 11 9 9 5 6 8 10 12 13 17 19 24 24 22 24 23 23 25 27 26 24 24 27 32 40 41 37 44 47 40 43 44 43 47
17 25 12 15 19 7 6 12 17 10 10 7 6 6 8 11 14 15 19 19 19 21 22 20 21 20 22 23 23 26 28 30 32 31 28 28 33 37 41 49 48 44 43 43
14 19 15 12 14 14 15 14 13 9 4 4 7 11 13 16 17 18 20 19 19 21 22 23 24 25 27 26 26 26 26 28 29 29 32 35 35 30 30 35 40 42 42 44
3 12 5 8 11 10 13 9 4 4 8 11 14 17 19 19 19 19 18 19 20 21 22 23 25 27 27 27 27 28 28 27 27 27 26 27 31 30 31 28 33 38 41 45
2 5 5 8 8 10 6 2 7 11 15 18 19 21 22 20 20 21 20 21 22 23 24 25 26 25 26 28 30 32 33 32 30 28 27 29 29 24 22 27 31 37 45 42

GFSCGP_700_spd_075.txt.gz
Wind_Speed
14 20 28 31 36 32 29 22 30 33 31 29 36 41 37 21 25 26 29 25 22 25 27 25 22 13 13 16 18 20 8 11 7 4 14 19 24 23 27 31 35 34 27 23
12 27 25 23 25 25 25 26 38 39 38 26 28 29 30 28 24 27 31 31 23 23 28 27 21 15 13 13 14 14 12 15 6 2 11 16 21 27 32 32 27 26 26 26
19 18 10 21 29 30 30 31 35 33 36 28 26 32 26 23 27 30 26 28 28 26 26 24 20 16 13 12 10 6 9 10 10 8 6 16 24 24 32 32 33 34 29 29
19 25 26 30 31 36 34 27 24 28 27 24 26 20 24 24 24 23 30 28 28 27 23 22 19 16 12 11 6 4 7 9 8 11 9 9 10 17 26 29 27 26 28 35
15 17 16 22 31 34 35 28 19 25 23 27 40 25 28 26 28 20 28 31 31 28 26 24 23 19 13 11 6 3 5 6 8 11 14 11 12 10 17 21 22 26 24 28
25 19 24 21 24 23 21 28 17 23 19 11 40 27 21 31 28 14 21 34 36 29 25 24 22 22 14 8 6 3 2 5 6 8 13 11 13 12 11 20 24 25 25 29
16 21 21 26 25 29 17 7 2 3 5 6 19 24 30 21 23 21 18 28 31 30 27 22 18 18 13 7 4 3 2 2 3 4 8 15 15 14 13 15 13 19 25 25
8 7 10 14 29 17 20 21 6 5 3 4 25 11 28 28 21 19 12 17 18 26 22 18 17 12 14 9 3 2 2 1 1 3 3 8 12 16 17 17 14 14 18 23
4 5 7 13 19 22 18 23 19 13 12 5 7 20 33 19 22 23 21 14 14 20 19 14 16 11 12 11 5 3 2 1 0 2 3 3 3 6 15 18 21 17 15 20
13 11 8 9 13 19 18 14 8 9 3 3 8 13 18 15 24 20 15 15 18 17 17 14 15 11 11 13 10 7 4 5 4 2 1 2 1 2 5 13 16 16 17 18
14 14 10 10 10 17 22 23 13 8 9 3 3 4 12 15 16 16 18 20 17 13 15 14 14 11 12 13 12 9 7 5 6 4 3 1 1 1 1 2 7 9 11 14
13 8 14 19 16 17 19 28 22 10 5 15 11 11 9 17 16 18 13 12 7 12 12 15 15 13 10 11 13 12 10 8 6 7 6 4 3 2 2 2 3 5 6 9
5 7 9 9 6 16 18 22 28 23 16 14 2 5 8 10 16 13 13 14 13 10 7 13 13 13 10 10 11 15 15 12 11 10 11 10 8 6 6 7 8 8 8 9
11 13 16 10 15 12 9 8 30 36 10 15 21 13 19 13 15 14 9 16 17 16 12 11 8 4 6 8 9 9 14 18 18 16 14 14 14 13 13 14 14 14 14 16
9 13 15 21 23 20 21 23 21 37 42 11 11 17 13 15 7 6 9 15 20 17 13 18 13 12 19 10 9 6 6 8 18 22 20 17 17 19 21 21 20 21 22 23
10 7 15 23 18 24 27 25 27 23 40 34 28 21 17 11 12 6 10 15 15 15 12 14 13 8 4 15 23 18 15 11 10 10 19 23 22 20 22 25 27 27 28 28
7 7 12 6 15 18 16 15 13 21 20 30 20 12 12 10 11 10 10 12 15 14 12 10 12 17 12 10 8 17 22 24 21 17 14 14 17 22 28 28 27 26 28 31
18 11 12 13 16 4 7 5 2 8 10 9 11 10 14 21 23 17 9 6 12 15 16 16 20 20 20 20 18 19 21 23 23 24 27 28 27 23 23 27 30 31 32 32
27 19 11 5 11 16 5 4 11 15 10 9 10 16 12 18 20 15 14 10 5 9 12 8 9 22 28 22 23 23 18 18 25 27 28 31 31 30 29 31 31 30 34 36
30 23 20 8 5 3 8 10 11 13 6 9 17 12 17 14 14 17 14 7 3 8 10 11 7 11 12 19 23 26 27 22 22 24 26 26 26 25 27 30 32 36 35 34
28 26 27 17 6 10 10 8 4 5 8 13 13 12 11 14 6 3 3 3 9 16 20 19 14 13 14 16 18 18 20 30 35 34 30 30 34 34 36 35 37 37 37 34
28 20 20 21 7 8 8 11 5 11 15 13 8 9 4 3 0 5 8 9 9 13 19 21 17 14 13 12 12 12 14 17 20 25 27 28 28 31 36 39 41 41 42 44
16 30 16 18 12 6 8 7 10 19 12 11 6 5 4 4 8 9 13 16 16 17 17 20 17 17 17 18 19 19 17 16 17 18 20 23 29 33 34 33 39 49 48 47
18 22 11 13 12 16 17 22 18 13 7 6 3 3 4 7 10 12 13 15 16 17 16 17 17 18 21 23 24 24 24 25 24 23 24 25 26 27 28 30 33 34 34 38
5 19 20 10 18 29 22 18 12 6 4 1 3 7 10 12 13 13 13 14 15 16 16 17 19 20 20 21 23 24 26 27 28 29 29 29 29 28 28 30 32 33 34 36
19 10 13 12 13 19 12 12 8 6 7 9 10 11 13 14 15 15 15 15 16 17 18 19 20 22 23 24 26 28 29 32 33 34 35 34 34 34 29 28 27 28 31 35

GFSCGP_700_spd_078.txt.gz
Wind_Speed
13 19 25 24 30 34 35 29 31 31 27 20 30 33 33 34 33 38 31 35 31 28 24 25 25 24 20 21 18 19 21 8 8 9 14 14 24 26 29 28 23 41 43 29
14 21 15 14 18 23 28 33 38 36 29 25 29 38 38 31 31 30 26 30 29 32 29 24 19 19 19 20 17 16 11 8 6 5 5 16 24 24 36 31 29 33 40 34
16 11 4 12 21 25 28 28 31 28 29 33 29 42 37 29 23 26 26 25 26 36 34 25 16 18 16 18 16 13 5 8 7 5 5 12 20 27 26 33 37 33 36 32
17 19 21 22 25 22 33 28 26 27 23 23 14 13 31 28 27 23 29 30 34 28 38 26 16 16 13 16 15 12 7 7 7 7 5 7 15 26 31 31 26 28 30 27
8 10 13 17 20 17 34 28 26 26 24 24 30 11 42 29 29 23 22 19 28 28 36 29 17 17 14 14 14 11 6 4 8 8 9 8 9 14 31 39 35 31 30 28
18 16 17 16 17 15 21 26 28 23 19 12 30 10 31 34 30 29 29 26 19 34 33 28 18 18 18 15 13 9 6 2 5 9 11 10 9 12 15 26 33 33 32 24
17 14 11 13 16 14 18 10 6 6 7 9 16 16 34 26 25 30 24 16 23 34 34 29 20 15 16 14 13 8 5 2 1 4 10 14 12 15 12 13 22 27 27 30
6 2 4 7 11 9 26 22 6 5 4 8 23 13 27 30 36 33 19 16 21 31 35 24 18 11 11 13 13 8 5 3 2 2 2 8 15 16 16 16 18 15 17 23
5 6 5 17 14 10 13 20 24 6 5 4 7 11 29 34 27 25 23 19 13 32 28 22 17 9 9 15 12 9 6 5 4 3 2 0 6 11 13 18 18 15 16 23
7 7 8 10 8 10 24 8 12 8 3 3 5 7 11 16 21 25 19 24 21 23 23 22 11 8 12 16 14 10 6 5 5 4 4 5 4 5 11 17 15 16 14 17
16 15 7 9 9 11 13 26 10 7 7 2 3 2 17 8 11 16 27 22 19 23 22 17 10 7 8 15 16 12 8 6 4 4 4 4 6 7 6 7 11 13 15 16
6 5 8 19 19 18 15 19 19 9 5 11 3 8 14 10 4 17 19 20 19 22 19 16 12 8 5 12 18 15 12 8 6 5 5 3 3 4 6 7 8 10 10 12
1 2 4 9 3 13 14 15 15 20 16 14 7 6 6 12 13 13 16 19 20 20 22 19 14 9 6 10 16 15 15 12 10 8 8 6 5 4 4 5 7 7 8 10
9 6 7 8 12 14 22 19 17 18 13 21 22 12 19 9 14 20 17 17 19 23 24 25 23 17 12 9 9 9 9 13 15 14 13 12 11 10 10 10 10 11 13 13
13 9 12 12 17 20 26 27 25 29 26 14 20 20 13 20 2 13 17 17 19 20 20 24 25 22 19 17 15 12 10 8 7 11 17 17 17 17 18 17 17 17 19 19
10 9 10 14 8 11 20 28 31 31 29 29 34 20 16 11 21 5 11 13 15 19 20 17 17 12 12 19 15 14 12 10 10 10 12 14 15 16 18 20 23 24 24 25
12 7 6 7 18 25 20 13 18 26 26 26 36 38 30 14 21 18 11 17 16 17 20 19 15 10 5 6 6 10 16 19 19 19 19 18 17 17 16 17 17 19 22 27
16 15 12 13 19 4 5 14 13 10 12 16 24 20 20 27 23 25 22 15 20 19 15 17 16 14 15 15 15 16 18 17 18 17 19 22 24 25 25 25 23 24 24 22
22 21 12 6 9 21 16 11 2 8 10 25 25 19 32 28 27 24 15 18 13 11 11 13 16 14 14 12 15 18 20 21 22 24 26 29 27 28 29 29 30 30 31 30
20 26 23 9 5 4 10 19 6 10 4 16 21 21 25 28 27 22 14 7 5 6 5 4 4 7 10 15 20 25 28 20 18 17 20 23 25 26 28 27 26 28 29 34
13 23 29 24 12 13 19 25 9 2 9 16 20 22 25 19 19 17 10 4 0 1 4 7 8 9 13 14 13 13 15 18 21 23 25 29 31 30 32 35 35 34 35 38
15 15 20 21 13 12 10 12 4 11 19 13 11 18 16 9 10 10 4 2 4 7 8 9 11 10 10 9 9 9 10 12 14 14 17 21 25 30 33 31 33 37 42 44
13 25 16 15 13 17 14 14 6 4 4 12 7 8 5 7 4 3 3 4 5 8 10 12 12 12 12 13 13 14 15 16 16 18 19 19 19 20 19 21 25 29 33 34
9 20 10 15 11 17 12 18 12 12 19 16 12 8 5 2 1 3 7 9 11 11 11 13 14 14 14 15 15 15 16 17 18 19 20 21 23 25 26 28 28 29 28 27
4 10 21 19 17 26 20 19 17 19 12 8 6 2 2 3 4 7 8 10 11 11 12 12 13 14 14 15 17 17 19 21 22 24 25 26 27 29 30 32 33 32 32 31
12 14 20 12 8 19 19 12 12 9 7 3 2 1 2 4 6 8 9 9 10 10 12 13 13 14 15 16 18 20 21 23 25 27 28 29 29 29 31 31 30 30 30 29

GFSCGP_700_spd_081.txt.gz
Wind_Speed
18 24 30 31 31 30 31 33 39 36 27 27 29 39 42 39 38 40 35 35 32 28 29 29 23 20 24 20 20 26 27 25 16 11 13 16 20 21 25 29 21 30 42 40
18 26 21 20 22 23 26 29 35 39 31 29 33 45 42 40 39 35 29 28 31 31 32 30 26 18 20 15 20 24 23 19 10 10 9 13 17 20 26 30 22 32 41 41
19 13 10 17 16 19 24 29 33 30 26 31 34 48 46 44 41 36 30 28 29 30 31 30 28 21 16 16 17 20 19 14 12 10 6 6 13 22 26 29 28 32 42 40
18 19 21 18 20 19 26 24 28 29 20 18 10 18 38 34 42 38 30 21 30 27 26 27 27 26 14 15 17 16 17 12 11 10 4 2 13 22 23 25 29 30 40 39
10 8 7 13 15 16 26 22 18 20 20 23 27 17 21 26 38 34 28 19 25 20 27 28 26 28 16 17 17 15 15 10 8 9 5 3 3 17 23 36 30 32 37 36
15 15 15 12 11 15 20 20 18 18 13 11 24 20 19 24 34 28 27 23 20 20 18 25 28 28 20 20 16 13 13 7 7 10 10 7 6 8 19 25 35 28 26 36
15 16 16 14 12 12 14 10 3 3 5 7 3 19 32 9 12 22 22 28 26 26 25 22 27 26 23 24 16 12 12 6 6 7 10 12 9 10 9 18 24 33 31 31
9 3 9 8 6 7 10 19 5 5 3 3 15 11 18 28 28 26 27 25 26 25 26 23 29 27 21 13 13 12 11 7 6 5 5 10 14 12 14 12 17 23 29 31
8 5 9 10 10 7 5 17 22 10 12 5 6 15 22 22 21 27 33 33 26 22 20 25 27 27 16 15 14 11 9 7 6 5 5 4 10 14 15 14 15 19 20 23
7 5 8 11 9 10 11 9 6 10 4 3 6 8 6 11 4 14 30 25 24 18 21 24 26 22 17 15 15 13 10 8 6 4 4 4 5 8 15 18 19 18 16 19
16 9 5 7 7 9 8 7 11 7 7 2 4 1 8 11 14 12 22 25 24 17 20 23 25 18 18 17 17 15 11 8 7 6 5 5 5 6 9 15 18 17 17 17
10 5 8 14 11 11 12 14 12 9 4 11 7 10 7 12 11 11 13 24 23 22 24 26 20 19 18 17 18 17 14 10 8 7 6 6 4 4 5 8 12 16 17 16
5 2 4 6 2 0 7 9 13 15 20 11 5 10 12 11 10 4 7 18 24 26 28 28 23 22 20 17 19 21 18 16 13 10 8 7 6 4 4 5 5 8 10 12
3 3 6 6 11 15 24 25 21 17 10 9 19 26 19 23 11 8 8 9 27 28 31 32 28 27 23 19 19 18 16 16 16 15 13 12 11 10 8 7 8 9 9 10
5 4 7 13 14 16 17 21 23 23 27 17 30 20 23 31 35 8 5 9 21 30 34 34 33 30 27 23 23 22 20 19 19 18 17 16 17 16 15 14 14 14 14 15
8 7 12 17 10 15 27 29 28 26 32 30 32 28 8 23 22 5 5 13 19 25 30 32 32 29 22 21 21 20 17 14 14 16 17 18 18 18 17 18 19 20 20 21
9 9 9 9 22 26 19 3 16 22 24 25 32 24 27 15 10 28 8 17 20 19 21 21 20 20 17 15 18 16 17 15 15 15 14 14 14 15 17 17 18 18 20 21
15 14 13 13 18 3 7 23 30 24 22 23 27 26 25 33 21 18 16 12 19 20 23 23 21 18 14 11 10 11 12 11 11 13 13 14 19 21 20 21 22 23 23 21
21 19 10 5 9 22 27 16 21 21 16 15 19 21 25 32 32 24 22 19 20 17 14 12 12 11 10 11 11 13 15 16 18 18 18 18 20 21 22 23 30 33 28 27
6 23 22 12 5 4 10 24 29 37 19 7 28 25 26 26 33 28 20 20 18 21 19 11 7 10 10 11 13 16 18 20 24 28 27 22 21 21 24 24 24 24 26 32
8 11 24 23 13 14 15 21 22 11 4 19 29 26 23 36 32 26 21 13 14 13 10 7 7 8 12 13 14 15 15 19 22 23 26 28 27 26 28 29 29 30 31 31
9 8 9 13 9 11 14 15 17 3 5 12 14 14 13 18 18 18 15 11 10 7 5 5 6 5 7 9 10 10 12 14 15 16 16 18 19 20 21 23 27 32 34 36
15 21 12 10 7 12 18 14 20 5 4 9 9 13 15 18 17 15 11 3 3 1 2 5 7 8 9 10 12 14 15 16 17 18 19 19 20 21 22 24 25 25 26 27
15 17 14 14 12 16 11 15 13 8 13 10 10 12 12 9 7 6 3 2 2 3 5 6 8 9 9 11 12 13 15 15 16 16 18 19 20 21 22 24 24 26 27 30
8 12 8 12 8 14 18 14 15 17 13 9 6 8 5 3 2 1 1 2 3 4 5 5 6 7 8 9 10 12 13 15 17 17 18 20 21 22 23 24 25 26 27 27
12 1 13 9 17 10 16 11 9 9 10 6 3 2 1 1 2 2 2 3 4 5 6 7 8 9 9 10 10 11 13 15 16 18 20 21 22 24 24 24 24 24 25 25

GFSCGP_700_spd_084.txt.gz
Wind_Speed
21 25 32 29 29 31 31 32 35 35 31 33 38 45 43 35 36 38 36 37 37 33 33 34 29 26 25 19 21 24 20 26 29 30 19 16 13 18 24 28 22 28 36 30
21 29 26 23 21 23 26 29 33 34 23 14 22 41 44 42 40 40 37 38 34 30 33 28 29 26 25 19 17 19 20 24 26 21 15 15 18 22 22 24 19 25 28 38
23 15 8 23 23 21 23 25 25 27 28 28 30 49 42 35 40 41 40 37 33 25 25 29 28 22 27 18 17 16 20 24 23 16 14 15 18 16 21 21 28 20 25 43
19 24 24 16 15 15 18 19 19 22 22 7 6 14 46 36 32 32 35 36 31 20 21 29 26 26 24 19 16 17 18 23 20 14 13 12 11 12 20 16 28 19 32 47
15 10 16 25 22 17 17 17 17 17 13 19 18 11 32 18 33 27 25 28 23 17 17 21 24 22 25 20 15 16 18 18 16 13 11 9 6 10 16 16 19 23 34 39
23 9 10 9 8 10 11 13 14 10 9 7 11 22 13 16 21 14 7 21 19 16 14 19 27 28 26 23 16 18 17 15 14 12 11 10 5 5 13 17 25 31 35 42
22 20 17 14 11 9 9 6 2 3 3 5 11 11 27 19 17 20 13 10 12 14 12 18 23 23 27 25 21 19 14 12 13 11 9 10 8 5 8 18 15 30 34 40
15 5 14 11 8 3 4 4 4 4 3 4 11 7 7 13 22 22 19 16 16 20 18 26 22 20 24 23 23 20 15 10 10 8 7 8 9 7 8 10 20 27 31 32
8 4 8 11 1 2 2 6 9 7 15 7 6 13 17 13 13 16 20 24 25 25 26 25 22 22 25 22 18 16 14 9 9 6 5 5 7 9 8 9 13 14 25 24
5 3 5 8 9 7 6 5 3 8 3 4 6 7 5 16 15 8 15 23 26 29 22 26 23 24 26 22 19 17 14 10 9 5 3 3 5 9 11 13 10 13 19 24
14 6 3 4 4 1 6 4 6 5 6 2 3 4 2 11 23 17 11 18 28 20 20 22 21 27 27 23 21 19 15 11 9 7 5 3 2 5 9 13 13 14 16 17
18 7 4 5 8 7 7 9 8 5 3 9 6 9 6 17 22 30 15 5 19 22 18 16 29 32 28 26 23 20 17 15 14 12 9 7 5 5 6 11 14 15 15 13
14 5 3 1 4 4 2 3 6 11 12 12 5 5 7 23 18 23 30 10 14 24 20 26 31 28 28 28 26 23 21 18 15 14 13 11 9 8 9 9 11 12 14 14
7 8 4 3 4 10 13 15 13 12 10 15 21 32 31 28 23 17 28 14 7 14 21 28 30 29 27 26 25 23 22 21 19 17 16 14 13 11 10 10 9 9 9 10
5 6 2 2 9 11 13 15 19 26 25 19 35 33 29 23 21 18 21 15 9 12 21 30 32 33 32 30 27 27 28 26 22 20 18 17 16 14 12 11 10 11 11 12
3 3 5 10 10 10 20 24 20 11 16 26 30 37 29 21 14 15 24 8 8 13 19 26 32 33 32 29 27 26 22 19 19 18 19 19 19 18 16 15 15 15 15 15
3 4 5 2 11 19 17 11 12 24 22 24 28 27 23 16 18 19 15 5 12 12 17 23 27 29 31 23 18 20 19 19 16 15 14 14 16 18 18 17 17 19 19 19
9 8 5 9 12 2 3 12 23 22 28 26 28 32 23 20 22 19 17 13 12 18 15 16 19 20 19 20 22 21 21 22 20 16 13 17 15 15 14 14 16 18 18 16
10 8 3 2 4 16 14 10 22 29 38 28 22 25 23 24 23 20 14 17 11 20 23 25 24 23 23 24 25 21 20 18 15 13 13 13 14 22 24 24 26 25 24 26
1 3 10 7 3 3 5 19 24 27 24 20 23 10 22 32 32 26 19 18 24 15 22 21 22 20 17 15 15 15 13 12 12 13 15 17 20 23 21 19 21 22 25 26
5 6 14 17 9 9 17 14 17 12 13 24 3 21 33 35 31 26 25 20 18 15 19 16 16 14 9 8 8 9 9 11 13 15 15 16 19 21 23 26 29 30 30 31
6 5 5 6 7 8 9 10 11 20 12 10 2 8 13 24 23 19 17 16 14 10 8 10 12 7 4 6 8 9 10 12 13 14 16 15 16 17 18 19 21 22 22 24
5 10 6 10 6 12 16 16 16 19 12 9 16 20 19 19 19 19 19 17 14 11 8 5 3 1 4 7 8 10 12 13 15 16 16 17 18 20 21 22 23 24 25 26
9 15 12 14 14 16 14 14 14 17 7 6 10 12 13 16 16 13 10 9 7 4 2 3 4 4 6 9 10 12 14 16 17 17 18 20 21 21 21 22 22 23 24 25
15 9 1 7 7 8 13 9 4 6 6 4 3 5 7 7 8 8 10 6 3 1 1 1 1 3 5 8 8 9 11 12 14 15 17 18 19 19 20 21 23 24 25 26
11 6 6 3 10 5 8 8 7 1 2 3 3 4 3 2 2 2 1 1 1 1 2 3 4 4 5 6 7 8 9 11 13 14 15 16 18 19 19 20 20 21 22 23

GFSCGP_700_spd_087.txt.gz
Wind_Speed
30 32 40 37 35 34 21 20 19 25 27 32 37 47 39 33 35 38 36 34 36 38 33 31 35 35 35 30 30 23 20 20 25 26 28 29 20 18 18 23 31 34 31 33
23 33 29 23 23 24 25 28 27 25 20 19 27 44 37 33 34 34 32 33 37 34 35 31 33 33 33 32 29 22 19 19 24 27 27 26 19 17 20 23 29 33 28 39
29 18 8 22 25 24 25 25 23 21 22 26 27 43 26 18 22 24 26 27 33 34 35 27 26 27 30 31 26 19 19 19 24 24 26 22 19 18 22 26 30 36 27 34
22 25 25 16 19 22 25 21 16 15 12 7 9 14 19 18 22 22 20 22 23 28 28 26 24 27 29 27 23 21 20 19 21 22 23 19 17 18 16 18 27 30 27 27
21 13 16 28 26 17 14 15 14 13 12 10 7 9 10 20 9 9 13 10 11 16 20 21 20 25 26 26 20 21 19 18 18 19 20 16 14 13 11 15 20 19 22 25
30 18 12 10 15 20 15 11 10 11 6 6 10 13 8 10 17 17 9 5 9 13 17 19 19 25 28 26 22 21 19 17 16 18 16 13 12 10 10 12 17 16 19 24
20 22 18 12 11 12 12 7 3 2 5 5 4 12 18 19 17 19 18 8 8 15 17 13 20 27 25 22 23 24 17 14 15 15 13 10 11 9 7 13 16 14 26 38
19 10 24 22 21 8 12 11 4 3 3 2 7 9 4 8 17 21 25 19 13 17 19 19 22 25 19 22 24 25 21 14 14 12 9 9 8 9 6 11 15 10 25 29
20 6 14 12 14 12 8 8 7 3 7 5 6 10 12 10 12 14 16 18 16 19 23 18 21 24 21 19 23 25 22 15 14 10 7 7 6 8 6 7 13 18 24 31
9 9 12 16 10 8 8 5 4 6 2 3 5 9 9 10 16 19 15 13 15 24 27 27 22 25 20 22 26 22 20 15 14 10 7 6 5 7 9 10 10 15 17 23
11 7 9 11 9 9 10 5 7 3 4 2 2 2 4 9 18 24 24 28 20 22 25 27 25 25 18 25 29 24 20 17 15 11 8 5 4 6 10 13 13 14 17 19
19 10 8 6 8 8 8 4 5 3 2 5 5 9 10 6 22 27 29 30 31 15 21 24 23 28 26 32 29 26 22 18 16 13 11 8 6 5 9 13 15 14 17 19
21 10 8 6 8 7 6 4 7 7 6 7 5 5 5 22 26 26 27 25 27 12 12 19 21 24 34 35 30 25 23 21 18 16 13 10 8 8 7 10 14 15 16 16
18 15 5 4 8 6 3 4 5 3 4 9 18 26 23 25 25 24 21 21 22 19 11 16 18 30 34 33 30 27 24 24 21 18 16 13 11 9 9 9 10 11 12 13
14 12 9 6 2 2 4 7 7 15 21 12 29 23 27 23 20 20 16 21 15 12 9 12 26 28 33 32 31 28 27 26 24 21 19 16 14 11 10 9 9 10 10 10
7 8 5 3 3 5 11 14 14 9 7 17 20 30 18 20 23 17 17 20 14 11 12 12 23 30 35 34 32 29 27 28 26 24 22 20 18 15 12 10 10 9 9 9
1 4 2 4 3 9 7 4 4 12 16 18 25 26 28 26 18 16 18 19 18 14 11 13 19 28 32 32 30 28 26 25 24 23 22 20 20 19 17 16 15 15 16 16
4 4 2 3 3 1 4 12 8 14 17 24 27 23 22 20 25 19 19 20 19 14 16 13 17 21 28 30 27 28 28 19 16 14 16 17 18 19 17 16 16 16 16 15
9 5 2 1 2 6 6 4 14 22 26 23 25 31 23 27 20 19 19 18 9 6 20 20 19 21 23 30 30 33 32 27 26 30 20 19 20 20 20 19 18 17 19 19
1 5 4 2 2 2 3 11 18 20 11 29 33 27 15 21 21 25 23 18 13 12 8 23 24 26 28 29 31 30 28 30 27 26 21 19 19 17 16 17 17 17 18 21
3 1 5 3 2 7 13 15 10 7 15 23 24 16 7 30 28 24 24 20 18 19 13 12 20 19 21 25 27 26 25 24 23 18 18 18 19 21 21 22 26 29 28 28
2 3 3 3 4 4 5 8 14 7 15 15 18 21 11 12 19 19 18 17 16 14 13 13 10 14 15 16 14 11 9 10 13 14 11 11 15 16 16 18 20 21 23 25
2 2 2 4 5 9 14 15 17 10 13 5 12 17 17 19 19 18 16 15 14 12 10 10 11 11 11 11 9 9 9 7 9 10 10 12 14 14 14 16 17 19 20 22
9 11 5 5 5 11 12 12 15 9 3 4 8 10 11 11 12 13 14 13 13 13 13 10 7 6 4 5 3 4 8 10 11 12 13 14 15 16 18 19 20 20 20 21
10 5 3 8 5 1 7 4 2 6 6 4 6 7 8 10 10 11 10 10 10 10 8 7 5 3 2 3 4 7 8 10 11 11 13 12 14 15 16 16 18 18 20 21
7 5 6 4 3 2 5 7 8 7 4 5 8 7 7 7 5 5 5 5 5 4 3 1 1 2 3 4 6 6 6 7 8 9 11 13 14 15 15 16 17 19 20 21

GFSCGP_700_spd_090.txt.gz
Wind_Speed
27 28 32 29 27 24 21 18 20 16 14 24 29 29 26 24 27 29 27 29 32 35 32 37 35 38 40 41 37 36 34 33 31 28 29 30 27 30 31 25 22 24 28 31
21 36 30 24 24 25 25 27 27 24 21 21 26 30 28 28 27 23 25 29 34 32 32 36 35 38 40 41 38 36 34 31 28 24 25 26 28 31 28 25 24 25 29 34
27 14 20 27 24 23 23 24 20 19 18 24 26 31 14 5 4 11 16 22 27 27 33 33 34 37 38 39 38 36 36 30 26 23 22 26 29 30 25 24 25 27 31 38
28 27 15 15 19 19 22 17 17 16 13 11 5 7 15 9 7 8 6 12 17 24 29 32 33 29 32 32 35 39 35 26 24 21 22 25 29 25 22 24 24 28 35 43
27 16 25 22 18 18 17 10 11 11 13 17 18 12 6 7 6 8 12 13 19 18 19 21 26 30 30 32 33 34 32 26 24 19 22 24 25 21 21 22 23 21 28 34
27 14 12 15 17 16 10 9 9 10 10 12 22 18 5 3 8 12 12 12 13 15 15 19 26 28 29 31 30 31 29 24 22 19 22 23 21 19 19 19 18 20 22 30
25 21 12 10 11 13 18 14 7 8 6 6 6 12 13 11 6 10 14 12 10 11 13 17 22 24 26 28 29 26 26 23 20 18 20 20 17 16 17 16 15 16 16 26
27 21 24 21 15 10 19 18 8 8 6 3 9 8 4 3 6 9 11 14 17 12 13 16 19 24 26 30 28 24 26 23 19 17 17 17 14 14 14 12 12 15 15 24
27 25 13 17 21 16 14 15 12 7 6 7 10 9 6 3 5 11 13 11 12 12 16 17 15 21 23 21 22 24 28 25 20 17 17 14 11 12 12 11 11 15 11 18
11 17 14 18 16 18 13 14 6 8 5 6 6 9 3 3 9 13 18 17 15 13 19 20 17 19 26 22 18 25 29 25 21 18 17 12 11 10 11 11 8 12 12 19
12 13 17 20 15 21 15 11 7 6 4 3 2 4 3 6 12 18 21 23 23 18 14 25 25 21 24 22 21 25 28 26 23 18 16 11 10 8 10 11 9 12 15 17
16 6 17 16 11 13 11 11 13 9 6 4 3 6 5 6 15 20 22 24 23 16 13 19 24 25 29 25 26 27 29 26 21 19 17 12 9 8 10 12 11 11 18 16
15 9 13 9 8 10 10 11 12 10 1 8 4 2 1 15 21 21 21 23 19 15 15 14 24 31 30 26 26 32 31 24 21 20 18 13 10 8 9 13 15 12 17 21
15 8 9 9 11 13 10 11 9 9 7 6 12 18 18 20 23 18 21 20 17 15 15 9 18 25 30 28 31 35 32 26 23 21 19 16 13 10 9 13 15 15 15 16
14 12 11 11 10 8 8 8 9 10 8 8 12 17 19 20 18 23 24 19 17 16 12 15 18 32 31 33 32 35 30 27 24 23 20 18 16 13 12 12 15 17 16 16
16 12 11 6 4 4 4 5 8 10 10 10 16 15 15 17 23 21 20 17 19 15 9 12 15 15 23 32 39 37 34 29 27 28 25 21 18 16 15 15 14 14 14 14
10 4 5 4 2 5 4 2 0 2 6 11 18 17 22 20 20 19 20 19 18 16 10 12 15 17 21 29 35 35 31 28 28 27 26 24 22 20 18 17 17 17 17 18
2 5 3 3 2 2 5 3 3 6 6 12 20 19 27 29 28 22 20 23 19 18 13 19 17 19 23 26 31 32 29 28 28 28 26 24 23 22 21 20 19 18 18 18
3 1 1 2 2 1 4 3 7 11 12 14 26 27 19 18 15 15 20 19 16 15 17 13 22 21 23 26 30 31 31 28 27 26 26 24 24 23 22 22 21 21 21 20
2 3 3 1 1 1 2 7 9 9 3 23 28 28 12 15 15 18 16 15 8 11 9 9 18 23 25 31 32 32 32 31 30 26 25 20 19 22 24 23 24 23 22 21
2 2 1 2 2 1 5 6 10 4 10 18 22 25 9 11 20 18 16 12 9 9 6 3 4 14 23 29 32 30 32 34 38 42 35 28 23 24 21 21 21 20 20 19
1 1 2 1 3 2 3 14 11 9 10 9 15 20 15 6 8 7 7 8 8 8 11 11 6 10 12 14 14 19 24 31 29 30 25 25 27 20 18 17 17 20 23 24
2 3 2 2 2 9 12 14 13 10 9 3 9 14 16 17 15 14 11 10 9 10 9 7 9 9 5 9 7 11 14 15 14 13 12 16 13 12 13 14 15 17 18 18
8 5 5 2 4 6 7 10 12 5 1 6 7 9 10 12 12 11 10 10 10 11 10 9 8 5 2 5 1 4 10 5 6 8 7 7 10 12 15 17 19 20 21 22
7 3 4 6 4 1 6 4 2 5 6 6 7 7 7 9 9 10 9 9 9 9 8 10 9 7 8 8 9 7 5 2 1 2 4 7 9 10 12 14 16 17 18 19
4 7 10 5 4 2 2 3 4 5 5 4 5 8 9 9 7 7 7 7 7 7 7 6 6 5 4 4 4 5 5 4 3 3 7 11 12 13 16 16 16 15 16 17

GFSCGP_700_spd_093.txt.gz
Wind_Speed
18 27 39 34 32 35 30 27 24 24 19 20 25 30 30 28 28 30 29 27 27 27 26 26 25 25 26 29 31 44 44 41 40 38 38 36 36 34 33 32 30 32 30 28
26 38 32 28 30 31 29 31 31 27 26 26 29 33 29 28 30 29 27 24 23 23 24 25 27 28 29 32 37 43 44 42 40 38 35 34 34 32 31 33 31 33 31 29
35 33 20 33 30 30 31 31 28 27 21 23 26 35 32 27 21 23 23 21 19 20 23 24 26 29 30 35 36 42 43 42 39 37 32 31 32 27 31 30 33 29 28 29
36 32 33 22 35 30 34 27 26 23 22 18 7 12 14 6 9 10 9 9 12 15 19 22 26 29 31 32 36 40 41 44 39 36 32 32 26 27 28 30 32 30 29 30
35 36 32 30 25 26 26 17 20 20 19 20 23 16 23 16 14 12 6 9 11 14 15 15 20 26 28 28 35 37 39 42 38 35 33 28 25 27 28 31 29 30 31 31
31 28 31 30 29 23 19 18 14 14 16 19 25 21 15 18 12 5 6 6 8 11 13 12 13 20 24 25 34 34 36 36 37 35 31 25 24 25 29 28 27 28 28 24
24 32 30 21 24 27 22 18 11 13 13 13 13 16 20 5 5 1 4 7 9 11 10 9 8 13 20 27 35 33 34 33 32 31 28 24 23 26 27 27 25 24 23 24
24 24 33 15 21 21 27 24 14 11 10 14 19 8 12 8 4 1 3 6 10 13 8 6 6 12 21 30 31 30 32 31 30 29 24 22 23 24 25 24 22 21 21 23
23 31 34 26 25 18 19 29 24 19 16 7 9 13 6 7 7 1 6 10 12 13 10 8 13 11 19 29 28 29 32 30 30 27 23 20 21 23 24 21 20 19 19 18
15 16 23 30 24 24 16 19 15 15 5 8 13 17 13 13 5 4 9 12 14 13 9 16 15 7 14 22 24 26 28 33 30 27 23 19 19 22 22 18 16 17 14 15
19 17 23 23 25 30 24 20 17 12 14 6 7 7 16 9 7 9 13 14 15 13 8 13 21 14 13 22 21 22 27 31 30 28 25 18 17 22 18 15 13 13 13 15
14 10 20 31 21 26 27 22 20 10 12 10 6 1 9 9 10 14 15 15 18 16 11 7 19 18 19 19 18 20 23 30 30 28 22 17 16 20 15 13 11 9 8 10
7 13 18 16 17 17 29 21 20 12 3 10 5 3 6 9 13 13 16 15 17 14 12 4 12 17 21 20 15 19 17 25 32 28 21 17 16 18 13 11 10 8 8 13
12 18 4 4 18 20 15 14 13 10 9 9 12 13 15 17 14 17 12 15 19 14 12 4 6 14 23 25 21 21 25 31 33 26 21 19 16 17 12 11 10 10 9 11
12 4 13 14 15 16 10 10 9 8 7 6 8 10 14 12 14 16 18 19 16 15 11 7 7 10 18 26 36 30 24 33 33 27 24 22 19 18 12 11 12 13 14 16
4 7 14 15 13 12 10 6 5 6 7 12 11 10 12 15 21 22 21 19 15 14 12 12 7 9 12 18 24 28 31 39 32 29 28 25 22 20 16 13 15 15 15 17
10 10 13 11 7 5 6 3 2 1 2 6 9 16 23 23 28 27 23 20 17 14 14 18 12 11 14 17 24 31 39 41 35 32 29 27 25 24 20 19 18 19 20 20
11 13 11 4 1 4 10 7 5 4 6 9 12 19 24 29 26 24 20 16 13 16 13 12 14 13 18 19 28 37 38 37 34 31 29 27 26 26 25 24 22 22 22 22
10 9 7 4 2 11 9 7 5 6 11 10 20 22 25 21 16 14 13 11 13 16 16 16 18 18 22 27 30 31 32 32 30 30 29 28 28 28 27 27 26 25 24 24
8 3 2 3 3 3 7 5 6 8 4 14 20 24 19 11 7 9 10 9 9 6 9 10 15 15 21 26 32 33 37 34 30 29 26 27 28 29 29 28 28 27 27 26
4 6 2 3 2 5 4 7 2 5 6 15 16 21 15 9 6 6 4 3 2 1 3 6 5 4 8 16 24 30 29 36 35 33 33 35 31 28 27 27 27 26 27 27
6 5 5 1 2 4 3 10 7 6 6 8 9 16 19 15 8 4 2 1 1 3 8 10 8 10 9 10 6 14 25 33 35 38 37 34 28 37 32 28 28 31 29 29
2 6 3 5 3 6 12 10 10 8 5 2 6 10 13 14 14 12 11 9 7 6 5 7 8 9 11 9 10 7 7 5 14 15 13 25 29 33 30 23 24 28 13 22
8 3 1 3 4 4 6 8 7 5 3 3 4 6 8 10 11 11 11 10 9 8 7 9 11 11 10 10 8 6 7 10 8 8 5 4 4 8 11 14 15 19 13 13
8 2 4 5 2 4 8 6 4 5 4 4 5 7 8 9 9 11 11 11 11 11 10 10 9 9 9 11 11 9 5 6 4 5 10 9 4 3 4 3 2 7 11 14
8 6 6 5 3 2 3 2 2 2 3 3 5 7 9 10 10 11 11 11 11 12 12 12 12 11 10 10 9 10 11 11 9 7 4 5 7 8 4 6 8 9 11 13

GFSCGP_700_spd_096.txt.gz
Wind_Speed
19 20 38 32 32 36 35 35 35 33 23 29 30 36 32 26 31 32 28 30 31 31 30 28 27 29 28 32 31 37 44 46 41 40 39 39 38 37 35 35 34 32 31 32
23 38 34 26 31 34 36 36 40 33 29 27 28 33 29 32 39 38 31 35 32 27 26 25 27 31 31 31 35 38 42 48 49 38 39 39 39 37 35 34 34 32 32 32
30 38 31 32 32 35 38 39 34 30 25 26 31 36 33 36 39 37 37 34 24 22 24 26 26 27 29 32 34 38 45 51 46 36 40 39 40 37 34 33 30 30 31 33
29 28 34 37 36 32 39 34 28 26 24 29 24 21 35 24 13 19 16 19 19 20 21 23 24 30 31 32 36 43 47 47 44 34 37 38 40 37 31 27 28 29 31 34
37 31 32 38 42 36 30 29 26 26 28 26 28 23 27 23 22 16 15 12 11 10 15 15 20 23 30 33 35 40 42 40 41 32 34 36 39 35 29 29 29 30 33 33
35 35 34 35 37 32 26 25 21 23 24 20 29 30 27 27 19 19 16 6 4 6 8 8 10 17 25 28 34 37 41 38 37 32 32 36 36 32 30 29 28 30 33 30
34 35 33 34 32 33 26 20 10 10 14 13 24 26 24 27 3 13 9 6 4 7 9 1 8 11 13 22 31 37 39 33 34 29 31 35 33 30 30 29 28 31 29 28
29 31 26 25 33 29 37 28 12 7 7 14 30 11 16 25 22 11 11 4 2 12 12 10 11 4 12 16 30 32 36 32 34 29 30 33 33 28 29 27 28 28 28 28
16 24 21 24 35 32 26 37 33 18 20 9 8 22 15 26 14 13 8 2 6 14 8 12 12 11 14 19 28 34 33 28 31 30 29 29 28 29 24 24 24 27 26 26
17 22 21 18 24 23 18 26 22 16 4 4 2 9 11 17 14 9 6 3 11 10 7 5 14 15 14 25 29 30 26 28 31 29 27 28 28 25 23 19 22 24 23 23
20 15 27 13 20 27 23 19 13 14 18 2 2 5 13 9 13 9 7 7 11 11 9 4 16 17 16 16 16 22 29 32 30 29 29 31 27 22 21 17 19 21 20 19
18 15 15 20 21 20 27 20 21 8 6 15 1 3 18 16 10 9 12 9 12 10 11 7 9 18 16 16 12 13 25 29 29 28 31 30 25 20 19 16 17 17 15 12
20 7 8 10 24 24 31 26 20 18 9 9 7 5 15 14 13 10 5 6 15 13 10 9 3 10 18 17 15 16 21 26 30 31 33 28 23 19 18 15 15 15 10 9
19 21 19 18 11 24 28 26 21 15 9 5 8 16 13 13 11 11 13 14 17 14 11 10 5 3 12 19 17 20 22 25 25 28 29 28 23 19 18 15 13 13 7 5
12 10 15 31 33 20 21 15 7 8 5 3 5 13 18 19 16 18 19 24 21 14 10 8 8 5 6 14 19 22 22 21 25 27 29 27 24 20 18 15 14 13 9 8
11 3 5 25 18 24 17 9 8 6 4 4 7 3 20 16 21 23 27 25 21 18 9 9 8 9 8 8 13 21 19 16 23 28 30 29 26 23 20 17 14 13 10 13
11 2 6 17 19 26 22 13 10 14 10 10 14 19 25 29 29 25 24 21 17 12 11 7 7 12 11 12 12 16 22 30 35 29 34 32 29 26 23 19 18 17 19 17
9 7 5 5 9 9 14 17 13 11 10 9 9 18 24 27 22 18 15 14 12 10 13 12 10 9 16 16 17 19 22 28 32 31 37 34 31 28 26 23 21 19 19 20
10 8 6 6 16 17 13 15 14 12 9 10 13 19 21 15 10 11 11 9 9 11 12 13 12 13 13 20 21 22 29 30 32 35 38 33 32 30 28 27 27 25 23 23
11 13 8 5 8 3 5 7 5 2 1 12 15 20 19 12 8 10 10 10 11 11 11 12 14 15 16 15 25 24 30 35 38 34 36 33 29 28 28 28 27 27 27 26
8 11 14 9 7 6 11 7 1 2 5 10 13 17 18 12 9 9 10 10 10 10 11 13 14 16 17 12 9 15 25 27 35 42 41 36 34 32 30 29 30 32 32 30
13 11 10 9 6 4 11 4 4 2 3 6 9 11 15 15 13 12 11 10 10 9 10 13 15 15 15 16 14 11 1 11 3 15 34 37 34 32 30 33 31 32 34 31
9 8 3 5 4 8 10 10 6 3 3 3 5 7 10 11 12 12 12 12 11 11 10 12 14 17 15 17 17 14 18 17 16 11 8 7 18 20 25 30 40 41 39 36
10 6 4 3 7 8 10 7 6 6 5 3 2 5 8 9 10 11 11 12 13 14 13 13 12 13 14 15 15 15 14 13 13 13 13 11 9 8 7 5 6 4 12 22
10 3 4 1 1 4 8 6 5 7 7 5 5 7 8 10 11 12 13 14 14 14 14 14 14 14 15 16 15 16 15 13 12 10 7 7 6 3 4 7 8 11 5 2
12 3 5 4 1 1 2 3 3 4 4 4 5 6 7 8 9 10 10 11 12 12 13 13 13 14 15 15 15 15 15 15 15 14 13 11 11 10 9 7 5 6 8 8

GFSCGP_700_spd_099.txt.gz
Wind_Speed
16 26 40 32 29 37 42 38 37 37 32 28 34 33 29 37 35 39 35 38 30 31 25 28 24 25 29 26 30 34 34 38 41 43 38 32 35 34 39 36 34 30 31 32
19 37 31 29 31 30 37 42 42 35 38 34 36 38 36 28 29 33 37 38 39 31 35 36 36 31 30 29 30 33 36 36 43 43 39 37 34 35 36 36 33 32 33 31
26 30 25 30 35 39 40 39 39 38 35 36 34 36 38 41 42 36 34 40 45 43 35 30 22 26 33 32 32 38 39 39 39 42 41 43 36 38 37 36 35 33 33 31
33 30 32 33 36 37 38 34 39 42 37 23 24 23 35 32 34 39 39 41 36 28 27 25 29 29 28 33 35 36 40 42 40 41 45 43 36 39 38 36 34 30 28 29
42 34 37 38 39 35 40 37 29 38 35 21 28 21 41 28 36 30 29 20 21 23 29 30 33 32 34 30 32 38 36 40 44 42 45 42 40 37 35 33 31 27 29 29
36 36 38 39 40 38 39 33 29 29 13 14 30 23 29 35 30 24 17 24 26 25 25 24 27 36 39 43 37 35 36 40 44 43 42 42 36 36 33 31 30 28 28 29
28 34 38 35 35 36 34 33 6 6 4 11 20 20 40 22 26 26 22 28 25 23 18 17 16 20 21 23 37 39 33 39 41 36 39 36 33 33 30 30 28 28 28 30
15 23 11 19 21 26 28 27 10 5 5 9 22 12 22 24 24 33 11 22 20 18 14 14 18 20 18 19 22 27 34 38 33 33 32 29 29 29 29 27 27 27 28 30
13 23 35 28 25 21 23 19 33 26 16 4 7 21 18 10 17 5 23 14 8 5 10 15 20 20 17 18 11 21 25 29 32 32 30 28 28 28 27 27 24 26 28 29
16 30 23 15 29 17 22 18 10 19 2 4 1 5 9 23 7 8 7 7 4 5 8 11 19 19 21 17 16 20 24 29 31 29 29 29 28 23 24 24 25 25 27 26
23 17 31 25 10 11 21 25 26 17 11 2 2 6 12 11 16 25 9 7 3 2 3 6 17 21 19 24 23 23 26 27 29 29 27 25 23 26 25 25 24 25 24 23
24 17 23 31 20 23 21 27 21 5 1 12 3 2 11 10 7 16 16 10 10 11 7 2 19 15 20 22 24 28 28 28 31 32 27 24 24 25 26 26 22 23 20 21
26 8 12 18 6 13 14 21 20 21 6 5 2 4 17 12 7 10 13 16 16 12 9 5 3 20 18 16 15 17 21 27 27 28 28 24 25 30 28 23 22 18 17 18
26 22 22 14 12 15 13 16 20 13 9 0 9 18 16 13 13 11 15 15 21 17 11 7 4 9 20 22 22 14 22 27 28 27 29 29 30 27 25 22 20 15 14 15
16 23 24 23 24 19 22 20 12 7 3 3 15 18 16 19 20 19 19 20 21 15 12 9 4 4 8 10 16 15 24 23 23 22 23 23 23 27 25 23 19 14 13 15
22 15 17 33 19 20 15 16 13 15 19 16 11 10 21 22 20 19 20 18 16 11 10 9 5 4 7 9 10 12 22 28 25 26 21 22 27 27 27 24 20 15 14 17
24 8 12 24 36 22 20 24 23 21 15 11 14 15 19 22 20 17 16 14 13 11 11 10 5 5 6 8 11 10 13 27 26 21 21 19 20 30 26 24 20 16 15 16
13 4 2 0 5 7 14 24 22 18 20 18 15 18 18 15 15 16 14 12 12 12 12 13 12 9 5 8 11 15 14 16 24 26 25 19 21 30 27 27 22 19 16 16
13 9 5 2 12 12 7 12 11 11 17 19 19 20 18 11 10 11 12 14 13 13 13 13 14 12 10 9 10 18 18 19 23 27 27 27 28 29 31 28 27 23 21 23
8 14 5 2 6 4 13 8 4 7 15 17 18 19 19 15 11 12 14 16 17 16 15 16 18 20 17 14 12 11 18 22 27 32 30 31 30 31 32 33 32 28 26 24
13 16 20 18 8 5 16 8 6 3 4 11 13 17 18 14 15 14 14 13 13 16 18 20 19 18 20 23 23 17 8 13 18 21 31 35 33 32 32 32 30 24 23 23
16 9 11 8 6 3 17 6 3 5 5 7 10 13 14 16 16 14 14 14 14 15 16 17 18 18 20 22 20 21 21 19 16 8 8 18 30 33 33 31 31 31 29 29
10 9 6 5 7 10 13 15 11 6 5 5 8 10 10 13 13 14 15 15 15 15 15 16 16 17 17 17 17 17 21 22 20 19 18 15 9 3 16 29 35 31 35 39
7 6 7 6 11 11 12 10 8 6 5 4 6 6 8 11 12 14 15 15 15 15 15 16 15 15 14 15 17 18 17 17 16 16 16 15 12 12 12 10 7 8 12 13
14 4 5 3 3 7 8 7 7 6 5 6 7 7 7 9 10 10 11 11 12 12 13 13 14 14 15 15 15 16 16 15 14 15 14 14 14 12 10 8 7 4 2 2
10 4 4 2 4 5 4 5 4 4 4 5 7 6 5 6 6 7 8 9 10 10 10 11 11 12 13 12 12 12 12 13 14 13 13 13 12 11 11 10 9 9 8 7

GFSCGP_700_spd_102.txt.gz
Wind_Speed
16 22 24 26 27 30 31 32 39 45 43 39 44 43 38 33 38 40 42 41 41 39 34 32 23 29 29 30 35 37 41 40 39 35 44 40 37 30 29 31 34 35 34 32
24 30 23 20 22 28 29 36 45 41 38 36 42 44 42 42 41 42 39 41 44 49 41 39 31 27 30 32 38 40 34 33 35 35 40 44 34 32 30 26 31 34 35 32
25 30 23 24 30 27 27 35 41 43 42 44 43 47 50 40 44 45 48 43 43 41 42 41 37 32 34 35 35 38 40 34 33 32 38 39 38 36 34 33 30 31 34 34
30 26 29 29 32 30 37 36 32 31 36 33 35 26 45 43 42 46 53 51 50 45 41 36 40 39 44 43 39 35 33 35 34 37 37 39 40 37 32 31 32 31 36 35
45 36 34 31 32 33 39 35 34 37 38 35 42 27 41 36 43 42 37 38 40 41 44 42 36 34 36 32 41 45 38 33 34 36 37 35 37 37 34 36 35 34 38 37
32 27 28 28 32 33 33 38 38 32 28 12 33 29 53 39 44 44 27 24 17 22 23 23 31 25 31 30 32 35 39 40 38 33 35 37 32 32 33 38 39 36 35 33
28 31 30 28 32 35 32 26 12 6 7 12 28 23 34 25 26 23 26 24 9 21 23 22 25 27 32 37 38 36 37 39 40 37 35 30 31 33 37 38 34 34 32 30
14 17 9 8 16 28 27 19 11 8 4 6 14 8 6 17 20 12 16 24 8 15 23 23 22 22 25 32 38 42 46 39 34 31 30 30 31 32 34 34 34 31 29 28
15 13 19 28 22 14 14 21 28 26 27 11 10 17 16 10 9 7 15 20 30 5 21 17 19 21 22 21 23 24 30 33 33 26 26 29 32 33 31 30 32 30 29 25
16 30 21 13 21 19 20 22 7 10 4 7 9 5 4 18 10 2 14 12 9 8 11 17 21 22 23 20 23 24 27 23 25 27 28 31 32 29 27 27 27 28 26 23
23 22 26 32 10 14 7 15 13 13 9 4 3 5 20 9 16 17 19 16 14 11 6 11 14 17 21 21 21 21 24 26 28 28 28 29 28 27 25 23 23 24 23 25
20 17 19 34 26 15 19 14 17 8 7 12 2 6 8 14 17 19 22 16 14 12 6 1 11 12 13 21 23 24 25 28 29 29 27 26 26 19 21 20 23 22 24 28
20 9 13 19 10 8 11 13 16 18 11 1 2 7 8 15 19 17 16 15 15 12 8 4 3 17 12 18 15 21 24 27 28 30 27 23 21 24 20 22 23 23 27 26
24 27 24 18 20 16 15 17 18 6 3 7 10 8 14 19 18 18 16 15 15 13 8 4 4 5 18 18 16 15 12 16 16 16 21 25 26 25 22 21 25 30 26 24
16 22 26 31 22 13 14 18 6 16 9 7 7 14 20 20 18 16 14 12 10 7 7 5 3 5 5 9 13 19 13 15 14 18 24 24 23 25 21 26 27 26 23 22
22 18 22 38 15 8 6 15 22 27 23 11 10 16 18 17 16 14 15 15 13 10 10 8 2 3 6 4 5 7 10 21 19 18 19 20 21 22 23 28 28 25 23 22
27 14 21 27 28 19 21 21 25 28 18 14 14 9 11 14 17 18 16 16 17 16 16 13 6 3 3 5 6 9 9 17 22 19 22 20 18 19 17 22 24 22 23 21
16 18 8 6 14 6 14 10 18 26 24 20 14 8 7 11 15 13 14 14 13 13 12 14 14 9 5 4 7 8 12 11 23 18 17 18 23 21 19 20 28 26 23 20
10 9 7 4 16 19 13 11 9 16 20 20 16 11 8 8 10 11 18 20 19 18 18 18 19 18 16 10 5 5 15 15 14 19 25 22 27 24 22 20 24 29 28 23
16 10 1 3 6 4 13 0 7 12 17 16 15 15 14 13 7 15 17 18 20 21 22 23 24 23 19 20 19 14 7 15 14 20 23 31 32 35 30 27 28 26 30 28
9 13 19 14 7 4 13 6 9 2 3 11 11 14 16 14 18 19 19 16 16 18 19 20 19 20 23 24 23 20 18 10 3 10 18 28 32 36 33 35 34 31 31 35
13 8 8 5 5 3 12 4 2 11 8 8 9 12 15 18 20 19 18 18 17 17 17 18 18 18 17 17 17 18 18 22 22 20 13 7 15 19 21 33 37 35 32 32
7 12 6 6 7 8 11 14 13 10 9 8 9 11 15 16 16 17 16 16 16 16 16 16 15 16 17 16 16 14 16 17 18 18 15 16 15 13 7 5 11 23 31 30
6 5 6 5 10 10 11 12 12 11 9 9 9 10 13 13 14 14 13 13 13 14 14 14 14 14 14 14 16 17 16 15 15 15 15 15 14 14 14 12 10 9 5 2
6 4 5 8 7 10 8 9 11 10 10 10 10 9 8 10 9 9 9 10 10 10 10 10 10 11 11 12 12 12 12 13 13 14 14 14 13 12 12 12 11 9 6 5
5 4 4 5 8 8 7 7 7 7 8 8 8 6 4 6 6 6 7 8 9 10 11 12 13 13 13 14 14 14 14 14 13 12 12 11 12 13 12 11 10 8 7 6

GFSCGP_700_spd_108.txt.gz
Wind_Speed
20 22 23 21 17 17 20 23 28 29 27 30 31 42 52 49 45 46 47 45 47 48 51 47 46 44 37 40 35 34 34 40 49 54 52 49 48 44 40 34 29 33 37 39
25 28 23 18 17 14 16 23 30 34 14 31 37 50 52 53 46 45 49 49 48 49 49 47 45 44 37 37 42 37 35 33 41 50 58 53 48 48 45 38 34 34 36 37
21 17 6 10 15 21 25 23 28 36 34 37 40 48 46 45 54 47 47 42 43 43 43 43 41 45 45 37 37 41 36 36 30 42 53 54 52 48 41 38 38 36 38 38
16 18 19 17 15 16 28 27 29 34 34 22 26 22 72 39 46 51 30 32 32 37 35 34 38 43 47 43 37 41 40 38 33 29 40 51 52 52 44 40 36 36 36 38
11 11 14 24 29 23 24 22 24 27 28 29 43 19 42 45 50 27 35 30 29 30 34 39 40 42 46 45 45 39 39 39 35 33 32 40 43 46 37 33 35 35 35 37
21 23 22 21 23 22 27 29 28 27 26 14 37 26 35 27 23 32 31 33 32 30 32 31 29 28 33 39 44 40 39 35 35 32 30 32 37 39 37 37 36 35 35 36
23 26 13 10 12 13 10 7 5 4 3 6 21 17 19 20 19 19 26 17 24 25 26 25 29 31 27 28 29 31 30 31 33 32 32 32 34 35 34 31 33 32 33 31
9 5 6 3 8 12 17 15 6 5 2 6 28 10 9 14 20 19 21 12 17 26 19 15 18 19 23 21 23 24 24 23 29 30 36 38 33 32 31 32 31 32 33 29
7 5 8 10 18 20 5 14 22 19 22 11 9 16 19 17 18 20 18 14 6 18 24 22 26 10 22 20 19 23 25 30 31 30 35 42 39 33 32 29 29 32 32 32
8 15 15 10 14 10 18 9 3 7 3 5 8 7 7 17 20 21 20 19 11 9 10 19 21 29 19 20 20 20 21 27 30 32 29 33 33 39 30 29 29 33 35 33
13 13 14 21 15 14 7 14 14 14 13 3 2 1 11 15 17 22 21 20 16 17 12 1 10 23 20 10 13 15 20 23 26 29 31 32 27 33 32 33 32 32 32 32
10 9 12 21 9 10 18 19 17 7 3 12 6 2 10 14 14 16 18 16 13 15 16 15 8 15 9 10 14 18 16 18 18 24 31 30 32 36 34 30 33 33 32 34
5 4 9 7 3 10 4 12 10 16 24 13 3 2 7 9 12 12 12 14 13 11 9 12 9 1 2 2 2 13 16 14 13 17 19 24 32 32 31 28 28 30 32 30
11 18 19 13 19 20 25 29 27 19 12 7 4 6 4 10 11 9 10 14 15 15 11 9 6 4 2 1 4 6 2 12 15 10 14 20 22 26 28 26 30 25 25 28
17 19 20 22 25 22 19 10 14 12 14 6 10 8 9 11 11 10 13 13 14 14 13 10 7 5 5 1 4 3 8 6 14 22 20 24 22 23 27 24 27 24 21 25
9 12 17 31 22 5 11 5 6 24 21 16 10 12 11 11 10 10 11 11 16 21 21 16 11 7 3 2 0 3 6 6 9 8 19 19 26 34 24 24 12 18 23 21
21 21 11 4 28 10 9 18 18 14 12 9 6 8 9 10 12 14 17 19 22 24 25 23 20 17 12 5 1 4 1 2 8 13 14 16 18 20 26 21 16 19 20 20
24 18 7 13 6 3 2 8 7 15 14 11 8 5 6 10 15 16 20 23 26 28 29 30 30 30 28 21 12 5 4 4 2 8 4 5 13 13 12 16 16 19 20 21
7 14 8 8 6 8 3 3 6 13 14 13 10 6 5 8 11 15 21 22 23 24 26 27 28 29 29 29 30 26 17 9 7 4 15 12 4 12 14 14 11 18 18 21
4 9 5 6 4 3 3 7 10 11 10 12 11 10 9 9 12 15 19 19 20 21 21 21 22 23 21 24 25 23 24 22 13 3 7 11 20 16 16 15 15 23 24 22
5 11 12 8 5 4 5 12 7 1 4 9 11 11 13 13 14 15 17 17 18 18 18 19 19 20 21 21 22 19 19 21 26 26 23 17 9 13 17 21 20 21 25 29
8 3 2 3 4 3 9 15 5 12 11 11 12 13 14 12 14 15 15 15 15 16 17 17 19 20 21 22 22 22 22 26 25 24 22 20 20 20 18 14 10 12 15 20
3 6 2 3 6 10 15 10 17 14 13 12 12 12 14 13 12 12 12 12 13 13 14 16 17 18 17 18 19 19 22 22 23 22 22 22 22 21 20 18 18 17 16 15
4 5 8 8 13 14 14 14 14 13 13 11 11 10 9 10 9 9 11 11 12 13 14 15 17 17 18 19 21 22 22 22 22 21 21 21 20 20 19 19 18 18 16 15
3 4 5 14 13 14 14 13 12 12 13 11 10 8 7 6 7 8 10 11 11 12 14 15 16 17 18 19 20 21 21 21 20 21 20 20 20 19 19 19 19 17 16 16
1 8 10 8 10 11 12 12 10 11 11 10 9 7 6 6 7 7 9 10 11 13 13 14 15 15 15 16 17 18 18 19 19 20 20 21 21 20 21 21 22 21 20 19

GFSCGP_700_spd_111.txt.gz
Wind_Speed
17 19 22 19 20 19 18 20 21 23 25 29 32 45 42 42 44 44 40 40 42 45 45 44 46 45 44 45 46 50 51 51 47 53 54 53 52 50 49 45 39 36 31 30
21 27 23 23 22 20 19 19 20 21 8 30 35 52 47 41 25 34 38 37 40 46 46 47 47 49 49 45 45 47 48 48 48 46 49 54 56 51 51 48 46 40 35 31
25 20 14 14 13 15 18 20 23 24 29 32 33 45 25 25 35 19 32 38 36 32 32 32 36 42 44 45 45 45 45 47 47 46 44 46 57 59 56 55 48 44 39 36
17 19 22 22 24 21 19 19 26 22 19 13 11 19 49 16 22 29 33 28 23 26 28 28 27 28 28 32 41 42 45 40 43 45 43 43 46 58 63 57 51 47 44 42
10 10 10 14 14 18 25 24 23 25 17 20 17 9 36 32 21 28 23 26 31 26 33 36 29 28 31 35 38 43 38 44 42 42 43 40 37 47 57 59 54 48 41 40
17 18 18 18 18 22 24 24 21 19 15 9 9 11 22 15 22 28 26 26 37 39 42 33 33 33 34 35 37 38 41 46 45 40 39 40 36 32 40 46 49 50 44 42
18 19 21 24 16 12 10 5 4 4 6 6 3 11 14 20 17 22 33 35 36 40 37 33 29 29 30 35 38 34 39 44 48 41 39 38 34 33 32 35 41 46 38 39
11 6 12 11 11 8 11 8 6 5 3 4 16 10 5 13 17 20 26 31 33 31 34 34 32 30 28 24 25 26 28 36 40 42 38 37 36 34 33 35 36 38 37 38
4 6 9 8 12 14 3 13 14 17 20 14 10 10 15 15 13 20 23 22 26 23 24 26 30 35 33 36 20 22 22 27 33 34 40 39 38 35 33 35 37 37 37 37
6 7 9 10 10 12 17 5 3 7 3 5 6 11 7 11 19 19 22 21 23 22 22 21 24 34 33 30 19 18 16 23 28 35 38 36 36 34 34 32 36 34 32 35
6 6 5 11 8 6 7 12 12 10 10 4 4 1 10 14 19 19 21 22 22 21 23 24 14 13 23 27 27 19 13 15 23 28 31 31 29 28 32 32 31 31 32 33
7 7 8 13 1 3 17 10 8 3 3 5 8 9 11 13 15 16 17 18 18 21 22 23 16 7 7 6 12 27 15 9 15 20 26 27 27 26 29 35 36 34 36 34
5 5 6 1 1 6 4 3 9 15 17 18 7 2 5 7 9 12 14 15 18 18 17 18 17 15 17 16 7 9 5 10 3 15 22 28 28 28 27 29 36 38 33 32
10 14 14 10 9 11 12 16 18 15 14 15 9 6 1 4 6 9 11 14 17 16 13 10 11 11 13 13 6 16 10 9 6 5 15 20 25 28 33 38 39 37 33 31
16 15 16 16 16 15 19 16 11 14 25 14 11 5 5 7 9 10 11 13 16 17 16 13 13 12 10 8 10 10 7 1 17 11 7 7 15 21 25 31 34 35 33 31
13 9 11 22 20 8 10 7 6 5 15 12 12 9 8 9 10 10 14 18 22 26 28 29 26 18 11 9 10 6 9 6 5 6 12 13 13 18 22 28 27 25 27 27
10 10 10 8 9 15 5 7 4 6 11 11 5 10 11 10 11 14 18 22 26 29 30 32 33 32 26 18 15 13 9 9 2 6 4 7 18 20 23 32 24 22 25 37
14 10 5 5 4 2 1 2 6 9 9 10 10 9 10 12 13 13 17 21 23 25 27 28 30 31 32 32 29 23 13 10 10 7 11 2 5 7 26 27 25 30 24 19
3 14 7 5 3 4 4 3 3 8 9 6 7 9 9 11 13 14 18 20 22 23 24 26 25 26 25 25 28 29 22 18 11 6 11 10 11 6 8 13 18 21 17 10
4 8 15 8 4 5 7 8 9 7 5 7 9 10 10 11 13 14 17 18 18 19 19 22 23 24 23 25 25 22 21 25 27 26 22 23 20 15 9 5 1 7 9 16
3 9 15 8 3 3 11 15 8 2 5 9 12 12 12 12 13 15 16 15 16 17 18 20 19 20 23 24 24 24 25 26 30 29 27 24 24 23 24 22 14 13 12 13
1 5 6 7 3 4 12 16 6 9 13 13 14 14 12 11 12 14 15 14 15 15 16 17 18 19 21 22 23 23 24 29 28 26 25 25 25 25 25 24 23 21 19 16
0 4 6 8 7 10 18 12 12 14 13 14 14 12 11 9 11 12 12 13 14 15 15 17 19 20 20 21 22 22 25 25 25 24 23 24 24 23 23 22 21 20 20 19
4 4 10 9 11 19 15 18 15 15 14 13 14 11 9 9 10 10 11 12 14 16 17 18 17 17 18 19 20 21 21 21 21 20 20 20 19 19 18 18 19 19 19 18
4 6 5 10 16 18 18 17 16 15 15 13 11 10 8 8 9 8 10 11 13 14 15 15 15 15 17 18 19 19 20 20 19 19 20 19 18 18 17 17 18 18 18 18
2 6 12 11 16 12 18 17 17 16 14 13 11 9 8 8 9 9 11 11 11 11 12 14 16 17 18 19 19 19 18 18 18 19 18 19 20 20 21 21 21 21 21 21

GFSCGP_700_spd_114.txt.gz
Wind_Speed
16 16 20 18 18 18 17 19 21 21 20 24 24 29 26 27 28 29 28 21 24 31 36 38 40 42 40 42 41 44 46 53 53 52 54 56 57 57 52 50 48 45 44 40
18 23 20 19 18 18 18 20 22 21 10 18 28 42 30 30 22 14 17 25 35 32 37 39 40 42 45 45 46 47 49 50 54 56 56 59 59 56 57 55 53 50 49 45
24 18 18 16 14 14 17 19 19 20 21 23 28 41 18 11 14 15 26 22 33 42 40 37 36 38 41 44 48 51 50 52 52 54 56 57 59 63 62 62 58 56 51 50
21 22 24 17 19 17 20 17 14 15 18 20 16 23 31 23 12 12 22 31 26 26 27 30 32 31 37 38 42 44 47 48 51 51 54 57 57 59 65 66 62 56 54 54
14 12 10 13 14 12 14 14 16 18 22 23 27 17 36 12 17 20 21 23 21 24 30 34 31 33 31 37 38 39 41 42 47 55 57 56 55 55 53 57 62 64 58 56
15 17 15 13 13 18 17 20 23 19 18 15 31 25 27 11 14 19 24 22 28 29 32 34 34 33 29 29 33 38 45 45 46 52 53 55 55 53 46 50 51 54 63 60
13 17 15 20 19 17 15 11 8 10 10 10 3 10 22 16 20 24 23 27 30 32 30 33 36 33 33 31 31 32 42 48 48 51 53 56 48 49 46 44 40 42 51 66
15 12 11 14 14 12 12 13 10 10 9 10 7 10 5 12 19 17 23 28 30 30 31 33 30 33 32 33 37 28 28 35 40 47 52 59 48 43 43 41 38 41 47 49
6 8 9 14 16 13 7 15 16 21 23 19 18 16 14 19 15 20 24 27 28 26 26 27 29 33 31 31 32 29 25 25 27 32 46 52 46 42 43 39 40 43 41 42
6 7 10 10 15 16 20 7 7 13 5 8 9 14 2 13 16 21 24 23 23 24 24 27 28 33 33 30 23 30 29 23 22 24 35 45 44 43 43 42 44 41 37 37
6 7 5 8 9 11 9 19 15 11 13 4 5 1 10 15 18 22 20 22 23 24 25 26 25 32 27 22 20 22 18 18 14 20 25 36 43 43 45 47 41 36 39 40
9 7 11 11 11 14 17 14 15 17 8 12 9 12 16 18 17 17 19 20 22 23 21 20 23 18 13 10 14 27 25 11 4 17 23 27 28 32 37 37 35 33 32 38
10 8 5 6 7 3 5 14 16 15 16 20 12 4 11 12 12 13 15 16 18 17 15 16 16 16 15 10 15 4 13 8 2 12 20 25 31 25 27 30 31 29 26 32
13 14 14 11 5 2 8 8 11 15 14 18 17 10 12 10 6 8 10 12 13 16 17 18 18 19 19 21 23 17 8 7 1 6 19 21 23 25 25 29 34 35 36 34
13 11 14 18 16 14 16 17 14 18 17 16 12 13 6 1 4 6 9 11 16 23 25 24 23 20 18 22 20 21 16 2 10 7 14 17 20 25 25 27 27 31 33 36
15 11 9 14 12 16 18 17 13 11 4 11 12 9 4 5 7 8 10 14 20 24 27 30 32 30 26 21 21 20 22 13 5 3 11 12 23 19 26 28 30 34 35 37
12 11 6 4 3 9 6 6 9 12 8 12 4 8 9 8 7 8 10 15 19 22 25 27 30 33 34 33 29 27 22 20 14 10 7 12 14 14 25 29 44 39 32 32
12 11 8 4 8 5 2 2 3 6 8 7 10 10 10 9 8 9 11 15 17 20 22 24 26 27 28 30 31 30 26 25 21 21 15 9 6 6 5 26 24 30 33 36
17 17 6 5 15 2 4 5 5 5 4 9 10 10 10 10 11 9 11 14 17 20 22 25 26 28 27 26 28 28 29 32 29 29 25 20 16 17 11 6 5 14 19 23
4 11 14 10 5 4 5 8 7 5 2 6 11 12 11 10 9 8 11 14 15 17 19 21 22 23 23 25 26 25 27 29 33 34 33 30 28 26 18 16 18 14 9 2
9 10 22 16 6 3 9 11 10 2 4 8 12 13 13 10 9 8 10 12 13 16 17 21 20 21 24 26 26 25 27 30 34 32 30 29 29 28 29 28 26 24 19 17
9 8 9 8 5 5 14 16 9 5 10 12 14 15 13 11 9 8 10 11 14 16 18 19 19 20 21 21 22 23 24 28 27 27 25 25 26 26 26 25 25 24 23 22
4 11 6 11 10 6 17 16 11 12 12 15 14 14 14 10 8 9 11 12 13 15 15 16 17 18 19 19 20 21 24 24 24 24 23 23 24 23 22 21 21 20 19 18
7 7 10 9 11 11 19 15 14 16 16 15 15 12 11 10 9 11 12 12 13 13 13 15 16 16 17 18 20 21 22 21 21 21 21 21 20 20 20 20 19 19 18 18
7 6 8 6 12 19 18 18 17 17 17 15 12 11 10 10 9 11 12 13 11 10 11 13 14 15 17 19 20 21 20 20 19 19 19 18 18 18 18 19 20 20 20 20
6 9 8 10 15 15 19 18 18 17 17 15 13 10 9 8 10 11 12 10 8 9 10 11 13 15 16 17 17 18 19 20 20 20 20 20 20 20 21 21 20 20 20 21

GFSCGP_700_spd_117.txt.gz
Wind_Speed
17 18 22 19 20 24 25 25 28 28 26 28 31 33 28 26 30 30 29 26 22 21 32 37 35 36 35 36 35 35 40 43 48 52 50 49 51 49 49 48 48 47 47 46
18 26 20 21 21 21 22 26 30 30 26 26 27 34 33 33 35 31 24 19 22 29 32 36 36 36 40 41 39 40 41 44 47 51 55 57 55 54 55 51 48 47 49 50
27 21 14 16 20 21 24 25 27 28 25 28 32 41 29 20 16 16 15 21 20 24 27 36 39 38 39 41 43 42 42 45 48 52 55 58 61 62 60 63 55 53 52 55
28 24 26 26 23 20 28 22 24 22 22 29 27 31 39 31 31 20 14 9 21 29 29 32 35 34 35 38 43 45 46 43 45 50 55 59 61 63 59 62 65 59 59 59
22 17 16 18 23 20 24 18 16 19 25 29 43 27 44 26 21 17 11 21 24 26 29 32 33 35 34 36 42 44 43 44 44 45 50 57 63 63 63 63 64 70 64 62
22 15 15 16 16 17 15 17 21 24 28 24 36 31 38 13 7 9 17 22 29 28 28 30 31 31 31 34 37 43 44 46 46 46 45 51 61 64 63 61 57 60 66 64
19 20 18 17 16 17 16 16 16 18 16 17 28 20 16 5 7 19 25 31 30 28 33 33 34 34 34 32 30 38 41 43 43 45 48 50 55 62 65 61 58 45 54 57
16 17 19 19 15 17 18 21 19 19 15 19 27 11 3 3 3 12 22 23 27 33 34 31 31 33 36 34 33 35 37 41 39 42 49 54 53 55 61 65 53 62 42 50
11 16 11 17 14 12 12 22 19 25 27 23 29 28 3 4 6 15 20 27 28 28 27 28 28 31 31 31 37 32 30 38 37 36 38 43 54 58 57 61 56 49 47 46
11 15 18 16 14 18 20 13 10 13 6 12 13 18 3 9 12 18 25 29 28 26 27 27 26 25 27 32 28 25 24 29 34 32 33 32 36 47 48 54 53 48 48 46
12 14 14 10 18 17 17 19 20 19 20 9 10 2 6 13 20 24 23 26 25 26 25 24 22 23 25 28 30 26 19 17 18 25 26 25 25 30 37 46 46 45 46 44
12 10 18 21 17 16 19 21 17 22 17 14 22 15 17 15 18 23 24 20 22 23 22 20 17 19 21 16 24 23 19 16 18 21 20 15 15 21 31 39 39 41 43 42
11 10 11 8 12 15 12 18 19 17 17 21 12 6 15 15 18 25 17 14 16 16 14 12 13 14 14 13 18 15 6 7 13 12 13 11 13 23 31 36 35 36 36 37
13 15 15 17 11 5 5 7 12 18 21 21 22 11 13 16 16 13 8 8 11 14 17 20 20 20 18 20 19 18 15 7 6 7 11 15 18 24 26 31 34 29 33 36
15 14 15 24 20 17 17 16 16 19 21 20 19 13 17 15 9 3 4 7 9 15 22 26 28 28 26 20 21 22 20 18 11 9 2 20 23 22 24 22 26 30 30 30
15 11 11 20 16 16 21 23 21 22 23 28 22 19 18 10 3 3 4 7 9 15 20 23 27 28 27 27 28 27 28 24 17 15 11 9 21 30 25 23 22 23 28 31
18 12 10 10 5 8 11 20 19 19 23 14 12 12 10 7 5 3 5 7 11 15 18 21 24 26 29 30 29 30 30 27 28 29 26 19 12 7 18 23 24 26 27 30
16 17 11 9 5 8 4 6 9 12 13 16 15 10 9 7 6 5 6 8 11 15 19 21 23 26 26 28 28 30 30 30 29 28 29 26 22 17 13 9 15 29 30 33
22 16 8 7 13 3 8 10 8 7 9 11 11 9 9 9 8 6 5 7 11 14 16 19 22 25 24 25 28 27 27 29 30 35 36 35 31 28 26 21 14 5 9 6
19 20 20 10 10 3 6 7 8 6 6 12 13 11 11 10 6 3 5 9 11 14 17 20 21 22 23 24 26 25 26 28 32 34 35 33 32 32 35 33 26 22 20 19
16 17 23 21 12 3 8 10 10 4 5 9 14 14 12 9 8 6 6 9 12 14 17 18 18 19 21 23 23 23 24 28 32 31 30 29 29 30 31 30 29 29 28 26
13 9 14 18 11 7 9 14 12 6 5 10 13 13 12 11 9 7 8 9 12 14 14 16 17 18 20 21 22 23 24 28 28 28 27 27 28 28 27 28 27 26 25 23
8 14 2 9 8 7 7 16 14 6 11 13 15 16 14 11 9 8 9 11 12 11 12 14 15 17 18 19 21 22 24 25 25 25 24 25 25 24 24 24 24 23 23 22
13 13 13 13 16 12 9 15 16 11 14 15 16 14 13 11 10 10 11 11 10 10 11 13 14 15 16 17 19 21 22 22 22 22 22 22 22 24 24 23 22 22 21 21
14 7 11 18 15 13 15 17 15 16 17 16 15 13 11 11 10 10 11 10 8 9 10 11 12 13 15 16 17 19 20 21 21 22 23 23 24 24 23 23 25 25 26 26
9 12 10 9 10 15 18 18 20 18 18 16 13 11 9 9 10 11 10 8 7 7 8 9 10 12 13 14 16 18 19 21 21 22 22 23 24 25 25 26 26 25 26 28

GFSCGP_700_spd_120.txt.gz
Wind_Speed
14 17 19 17 18 23 26 28 29 27 25 25 32 33 32 27 27 26 28 30 29 24 30 35 42 45 45 42 41 39 37 38 41 42 43 46 45 41 46 43 44 44 48 47
18 27 22 19 21 24 26 27 29 30 27 25 30 29 32 25 31 35 32 30 24 24 31 39 48 50 47 42 39 40 42 43 43 44 47 49 50 53 50 48 49 44 47 49
25 19 17 19 17 21 26 26 28 30 28 27 27 35 35 29 30 20 22 23 29 35 37 40 47 45 44 42 40 40 41 44 46 47 49 51 52 52 54 54 55 53 51 50
26 22 23 26 30 24 31 22 27 29 25 27 25 25 30 35 29 30 16 20 35 41 41 42 41 40 42 43 44 45 44 42 41 47 50 53 56 57 56 57 55 49 57 56
25 15 16 21 24 19 30 22 21 21 23 24 41 25 33 37 28 8 17 22 23 28 30 33 38 41 40 40 39 40 44 45 43 44 48 52 55 59 61 59 61 63 50 61
29 23 21 17 17 18 17 16 19 22 24 20 36 28 32 15 6 16 15 25 25 25 29 32 37 39 39 38 40 41 41 42 43 45 45 48 50 52 57 61 61 63 68 66
17 22 23 22 19 16 17 13 12 12 14 15 29 27 11 4 3 7 9 16 25 31 32 35 38 39 39 37 38 40 40 40 40 43 45 47 50 49 50 53 59 59 60 65
15 16 13 14 20 17 18 17 14 16 14 19 31 20 0 6 6 8 16 19 22 27 35 40 36 36 35 36 36 32 34 38 42 44 45 46 47 48 48 49 50 55 61 59
12 19 5 11 9 10 15 18 19 27 25 21 23 26 11 8 12 14 16 21 28 32 35 34 34 32 31 32 30 30 29 31 38 41 42 43 43 44 46 49 53 52 52 62
10 18 17 21 18 19 18 18 17 11 8 13 12 8 1 6 11 18 21 26 34 34 33 31 28 26 27 29 27 26 31 29 26 28 33 39 40 42 45 46 49 53 52 52
10 14 22 18 19 22 20 22 19 19 21 10 13 5 8 7 15 17 23 29 39 33 30 27 24 24 26 26 24 29 30 27 20 19 22 28 31 35 37 38 41 45 51 50
9 11 18 22 20 19 20 23 22 22 14 23 20 13 19 12 15 19 26 33 31 26 23 22 20 18 18 17 20 22 23 24 24 15 18 19 23 24 23 27 29 29 34 38
6 8 11 10 12 12 21 19 21 24 19 23 15 7 15 16 19 24 27 27 19 16 15 14 12 14 14 16 18 22 23 24 24 18 20 20 14 15 15 15 17 22 28 35
18 15 14 16 8 12 14 12 11 17 20 22 22 10 14 15 20 24 28 15 9 11 13 13 17 20 21 19 19 21 22 25 25 20 15 10 13 11 11 12 15 18 22 29
18 14 15 19 21 22 21 20 16 17 18 18 19 16 20 24 27 26 12 6 6 7 10 16 22 24 26 25 26 28 28 23 23 22 18 13 10 12 12 17 16 22 26 32
14 12 10 23 21 19 24 24 23 24 25 30 31 22 26 28 20 8 4 4 5 6 9 14 19 23 24 28 30 32 33 33 32 31 31 26 22 11 13 11 12 15 27 38
14 16 9 9 9 5 15 25 29 27 26 20 18 17 18 15 8 4 2 2 4 6 11 17 18 21 22 27 29 33 35 33 34 35 34 34 31 26 5 8 7 11 8 14
16 21 13 12 10 9 12 10 9 14 20 19 22 20 14 8 6 3 1 3 6 11 15 16 19 20 22 25 27 30 31 31 35 38 39 37 37 37 33 27 20 8 9 10
20 18 9 7 12 12 14 14 9 10 11 12 13 13 10 10 7 4 3 6 10 11 13 16 18 19 20 22 24 25 27 28 32 35 37 37 39 40 39 37 36 28 32 26
21 20 18 10 7 3 2 5 5 5 8 12 11 11 12 12 6 3 5 8 9 10 12 14 16 18 18 21 23 23 25 27 31 33 34 35 35 35 37 36 34 34 34 35
25 23 26 21 11 6 6 6 10 4 4 7 11 12 13 11 5 6 6 8 10 10 11 13 15 15 18 21 22 22 24 28 31 32 31 31 32 33 34 34 33 31 31 30
22 14 16 17 12 12 13 9 11 7 4 10 13 14 11 9 9 8 8 9 9 9 11 12 14 15 17 18 20 21 23 27 27 27 27 28 28 29 29 29 29 28 28 27
9 14 5 9 12 9 7 16 15 8 8 7 13 15 14 11 10 9 9 10 8 9 10 11 13 14 15 16 18 19 22 24 25 25 25 26 26 26 26 24 24 23 23 23
16 19 16 17 20 16 12 12 14 11 9 11 14 14 13 12 10 10 10 9 7 7 8 9 11 12 13 15 17 20 22 23 23 24 24 24 23 24 25 25 25 25 24 25
15 8 16 21 23 21 17 17 13 14 14 16 17 15 14 13 12 12 11 8 6 6 6 8 9 11 13 15 18 20 21 21 22 23 24 26 27 28 26 26 26 27 28 29
15 13 13 12 7 13 15 15 17 17 17 17 15 14 14 13 12 13 11 8 6 5 5 6 8 10 12 14 16 18 19 20 22 23 23 24 25 25 27 29 32 33 32 31

GFSCGP_700_spd_123.txt.gz
Wind_Speed
15 20 23 15 10 15 21 25 28 25 24 27 30 34 29 25 24 27 29 31 30 29 42 47 46 46 44 43 43 43 44 46 47 45 44 46 43 44 45 45 46 43 48 47
15 23 18 15 11 15 22 23 26 30 27 23 28 34 34 31 28 25 28 35 33 36 40 43 52 50 45 44 45 46 47 50 50 48 49 49 49 47 48 48 48 49 49 46
21 19 9 20 21 22 23 21 27 32 28 26 27 35 29 29 20 24 21 24 30 40 45 45 45 43 42 44 46 49 53 49 48 50 48 50 53 53 50 50 53 53 53 49
20 25 23 22 23 19 29 23 23 23 24 20 20 14 32 36 32 25 26 27 33 36 33 34 38 38 41 45 49 56 56 57 56 53 50 49 51 55 55 54 55 56 56 56
19 9 9 15 15 17 26 16 18 19 20 22 43 13 33 30 24 21 28 31 31 34 33 32 37 41 45 48 53 56 57 54 51 49 48 50 51 53 56 56 58 58 59 59
32 28 25 21 22 20 14 16 19 21 22 14 39 22 15 11 10 18 21 22 22 24 24 28 34 40 44 45 48 50 52 53 50 48 49 50 50 50 52 54 57 59 60 60
13 13 12 19 26 23 21 12 4 4 4 9 18 15 3 13 18 15 16 16 17 22 27 33 38 42 45 48 47 47 47 46 47 48 46 47 49 49 47 47 50 53 59 61
15 12 7 12 22 24 15 10 3 4 3 11 29 6 8 20 16 8 15 17 18 22 29 34 39 44 43 43 42 43 45 44 41 41 43 45 48 49 49 46 44 45 49 55
11 15 17 14 11 12 9 17 13 10 25 17 13 4 15 19 15 13 15 21 26 30 33 35 38 40 42 40 37 37 36 32 34 38 43 43 41 45 47 44 43 42 41 44
15 17 21 18 12 14 19 16 12 7 4 7 7 8 6 12 16 16 17 20 27 33 36 33 34 36 35 32 31 31 28 27 27 27 28 29 31 32 36 38 39 38 37 39
20 19 16 17 15 16 16 21 19 20 19 3 2 8 23 14 13 15 21 25 29 35 33 31 30 28 27 26 24 22 21 22 22 23 20 18 20 21 24 28 31 35 38 40
17 10 12 21 26 28 19 24 21 21 13 19 20 18 21 19 14 22 20 27 32 28 24 25 24 24 21 18 17 16 18 22 26 23 21 19 13 14 15 17 24 29 30 32
15 9 7 12 9 5 14 17 17 19 19 21 10 10 17 19 21 18 23 28 24 18 18 18 18 16 15 15 15 17 21 25 24 27 26 19 5 7 9 12 12 12 15 18
17 17 17 17 13 7 17 15 13 19 16 21 24 22 21 21 19 22 25 23 16 13 13 15 14 17 19 20 23 26 25 27 28 30 33 21 5 6 5 4 5 6 9 10
21 22 24 25 27 28 27 30 21 21 21 19 23 21 21 24 23 22 21 13 10 10 8 8 12 16 20 25 27 30 30 31 32 32 35 36 26 11 4 5 9 11 14 17
24 18 14 21 21 22 27 24 29 27 28 28 28 29 30 28 21 18 10 7 7 6 4 5 11 19 21 24 27 28 29 32 36 41 41 38 37 32 25 13 16 6 9 19
17 17 10 11 6 10 14 19 21 25 25 28 32 32 25 20 16 10 6 4 2 1 7 14 11 15 19 21 24 25 29 32 35 36 38 40 42 43 42 39 36 27 20 11
14 14 12 11 11 4 9 10 12 15 21 29 28 24 21 17 11 7 5 2 3 9 13 7 11 14 17 19 21 24 26 28 31 33 34 36 37 40 42 45 45 46 42 41
19 14 11 6 6 16 22 16 15 12 13 14 14 14 13 11 10 9 6 6 10 10 7 6 10 13 16 18 19 22 23 25 28 30 33 35 36 36 37 38 38 39 37 37
23 18 18 7 5 3 4 4 7 10 11 9 6 7 9 12 12 9 9 11 9 8 7 8 11 14 15 16 18 18 21 23 26 29 31 31 32 32 33 34 34 34 34 35
28 22 27 22 9 9 16 11 9 4 4 4 5 8 11 13 9 9 10 10 9 8 7 9 12 12 12 15 16 17 18 21 27 26 27 27 28 29 31 30 30 30 29 28
28 19 17 18 10 11 18 12 14 8 7 7 6 12 14 13 10 11 10 11 9 7 7 8 10 9 11 13 15 15 17 23 24 24 24 25 26 27 27 27 27 27 27 26
18 17 17 12 11 11 10 13 14 16 6 7 6 11 14 12 12 11 11 11 9 8 8 8 8 9 10 12 14 16 20 22 22 22 22 24 24 24 24 23 23 23 24 24
17 18 21 19 22 19 19 16 13 11 12 9 11 14 14 13 13 12 13 12 10 8 7 7 8 8 10 12 15 16 18 19 19 19 21 22 22 23 23 23 23 23 23 24
17 14 16 20 24 23 23 20 16 14 13 14 16 17 15 15 14 14 14 12 10 9 7 7 7 9 10 12 13 14 16 17 18 20 21 22 24 24 25 24 25 27 29 31
17 15 15 17 14 16 12 12 13 17 16 17 18 18 18 16 15 15 15 12 10 8 7 6 7 9 9 9 11 13 15 17 19 21 23 25 27 29 30 31 33 33 32 31

GFSCGP_700_spd_126.txt.gz
Wind_Speed
15 19 21 12 12 10 12 18 22 20 23 25 29 30 27 21 19 18 22 26 31 36 38 39 40 43 50 48 47 46 46 49 50 49 47 46 49 51 54 52 49 46 47 48
18 23 11 9 7 12 15 24 27 24 21 22 26 34 27 25 19 24 27 30 33 34 35 38 44 46 45 45 47 49 51 50 51 52 51 52 53 57 54 55 54 53 50 50
20 17 11 11 14 17 19 23 27 18 21 24 27 36 32 23 27 31 34 34 32 32 37 41 43 47 49 45 44 46 48 51 50 51 54 57 60 56 57 57 58 55 55 53
18 18 19 18 20 19 22 20 22 23 25 17 11 13 38 26 23 24 28 31 33 34 36 37 40 43 46 46 43 43 45 50 54 59 61 64 65 65 62 61 59 59 57 56
15 9 8 16 19 14 18 13 16 17 18 23 14 7 38 26 26 24 25 28 31 33 33 32 34 36 40 43 48 53 56 58 61 64 66 65 65 62 57 53 57 58 59 59
26 25 23 21 19 20 21 23 20 22 21 11 25 10 20 17 21 24 23 20 20 22 25 28 31 34 39 41 45 50 54 56 56 57 57 59 57 54 52 47 48 52 56 59
25 24 13 15 21 20 24 22 5 4 1 6 5 7 11 17 23 24 19 18 20 22 26 31 35 41 45 48 50 54 54 52 50 50 51 52 53 52 50 47 45 44 49 53
9 7 12 14 17 20 21 21 11 6 3 5 23 7 11 22 24 23 18 17 22 27 33 37 40 43 44 46 47 49 47 45 45 46 44 44 46 48 46 46 45 43 43 46
6 9 11 17 16 9 8 12 12 10 14 9 14 14 18 22 22 21 23 26 22 25 31 35 39 40 38 38 40 40 40 39 39 38 36 36 40 44 46 45 43 42 42 42
18 21 22 21 17 16 13 11 9 8 4 8 7 12 13 11 14 17 16 19 25 28 34 36 36 35 34 32 32 32 31 31 29 28 28 28 25 27 30 32 35 36 34 35
25 26 19 17 18 18 16 15 15 15 19 4 3 6 10 17 16 18 17 24 24 30 33 29 29 29 29 29 29 28 27 25 24 23 20 20 19 18 16 14 16 19 23 26
24 16 15 21 23 22 21 27 20 21 12 19 23 22 26 24 28 20 24 22 28 31 26 23 24 24 24 22 21 17 14 19 25 28 27 18 12 4 6 6 7 9 12 17
27 15 10 12 13 14 18 18 18 17 13 17 15 11 22 26 29 26 23 26 30 25 18 17 19 19 18 17 18 18 21 26 32 36 33 25 14 5 5 6 4 4 6 11
19 21 21 18 18 20 20 20 18 16 12 21 25 30 35 34 27 19 24 29 24 15 13 12 13 13 15 17 22 26 29 32 34 39 38 34 25 11 5 5 6 3 6 10
15 19 19 23 24 28 30 31 33 37 35 24 30 25 23 25 21 22 24 22 13 11 10 8 6 7 15 19 22 24 26 28 33 38 41 44 44 37 24 12 4 6 7 11
20 18 22 28 29 25 26 27 27 31 32 37 34 34 32 27 24 20 19 15 9 8 6 1 11 12 9 12 16 21 23 27 32 33 39 42 44 46 46 45 42 38 32 18
21 21 21 17 17 12 18 23 20 24 22 32 35 35 30 27 23 20 16 10 7 4 5 8 5 5 7 11 15 19 21 22 25 26 28 30 33 36 41 42 43 45 43 42
20 18 14 8 9 4 12 10 11 13 14 19 25 29 29 20 14 13 12 8 6 8 9 4 3 5 8 11 15 17 18 20 22 25 27 30 31 33 34 32 33 33 33 34
28 20 12 5 8 15 23 18 16 15 18 17 19 19 17 14 14 12 11 9 9 12 6 2 4 6 8 10 13 14 15 16 18 22 25 26 27 28 29 29 30 32 31 30
22 19 18 9 5 4 3 5 12 11 17 9 9 9 9 10 12 12 11 11 14 9 6 5 6 7 7 9 12 12 11 14 17 22 25 26 26 27 28 30 30 30 29 28
27 26 26 22 10 12 15 16 10 5 7 4 4 7 8 9 11 11 12 14 12 9 8 7 7 7 5 7 10 10 11 13 21 24 24 24 25 26 28 28 28 29 28 28
24 18 19 22 11 15 18 14 12 11 12 9 7 7 11 13 11 12 14 14 12 10 8 8 7 6 5 5 9 10 11 17 21 21 21 22 23 24 24 25 25 25 25 25
23 28 19 14 13 15 13 10 8 9 11 10 7 8 12 14 11 13 13 14 12 10 9 8 6 5 6 7 8 10 12 16 17 17 17 18 20 21 21 21 21 21 22 23
25 19 28 17 20 20 18 16 18 16 13 13 9 12 15 15 14 14 14 14 12 10 9 8 6 6 8 8 8 8 11 13 14 14 15 16 17 18 19 20 21 22 21 22
17 14 19 23 24 23 23 23 22 20 19 17 16 17 18 17 16 15 15 14 12 10 9 8 7 8 8 7 6 7 9 10 11 12 14 16 18 20 22 23 25 27 28 28
17 21 21 21 19 18 17 16 14 20 21 20 19 19 21 19 17 17 17 16 13 11 10 9 10 9 7 4 3 4 7 9 12 15 17 20 23 25 28 30 32 32 31 31